[[{"header":{"parameterUnit":"m.s-1","parameterCategory":1,"la1":31.0,"la2":29.5877,"lo1":-88.7671,"lo2":-86.6584,"dy":0.0162,"dx":0.0185,"nx":115,"ny":88,"refTime":"2024-06-23T06:00:00:Z","depth":0,"parameterNumber":2,"parameterNumberName":"U-component_of_WINDS"},"data":[0.0,0.0,0.0,0.0,0.0,0.0,0.0,0.0,0.0,0.0,0.0,0.0,0.0,0.0,0.0,0.0,0.0,0.0,0.0,0.0,0.0,0.0,0.0,0.0,0.0,0.0,0.0,0.0,0.0,0.0,0.0,0.0,0.0,0.0,0.0,0.0,0.0,0.0,0.0,0.0,0.0,0.0,0.0,0.0,0.0,0.0,0.0,0.0,0.0,0.0,0.0,0.0,0.0,0.0,0.0,0.0,0.0,0.0,0.0,0.0,0.0,0.0,0.0,0.0,0.0,0.0,0.0,0.0,0.0,0.0,0.0,0.0,0.0,0.0,0.0,0.0,0.0,0.0,0.0,0.0,0.0,0.0,0.0,0.0,0.0,0.0,0.0,0.0,0.0,0.0,0.0,0.0,0.0,0.0,0.0,0.0,0.0,0.0,0.0,0.0,0.0,0.0,0.0,0.0,0.0,0.0,0.0,0.0,0.0,0.0,0.0,0.0,0.0,0.0,0.0,0.0,0.0,0.0,0.0,0.0,0.0,0.0,0.0,0.0,0.0,0.0,0.0,0.0,0.0,0.0,0.0,0.0,0.0,0.0,0.0,0.0,0.0,0.0,0.0,0.0,0.0,0.0,0.0,0.0,0.0,0.0,0.0,0.0,0.0,0.0,0.0,0.0,0.0,0.0,0.0,0.0,0.0,0.0,0.0,0.0,0.0,0.0,0.0,0.0,0.0,0.0,0.0,0.0,0.0,0.0,0.0,0.0,0.0,0.0,0.0,0.0,0.0,0.0,0.0,0.0,0.0,0.0,0.0,0.0,0.0,0.0,0.0,0.0,0.0,0.0,0.0,0.0,0.0,0.0,0.0,0.0,0.0,0.0,0.0,0.0,0.0,0.0,0.0,0.0,0.0,0.0,0.0,0.0,0.0,0.0,0.0,0.0,0.0,0.0,0.0,0.0,0.0,0.0,0.0,0.0,0.0,0.0,0.0,0.0,0.0,0.0,0.0,0.0,0.0,0.0,0.0,0.0,0.0,0.0,0.0,0.0,0.0,0.0,0.0,0.0,0.0,0.0,0.0,0.0,0.0,0.0,0.0,0.0,0.0,0.0,0.0,0.0,0.0,0.0,0.0,0.0,0.0,0.0,0.0,0.0,0.0,0.0,0.0,0.0,0.0,0.0,0.0,0.0,0.0,0.0,0.0,0.0,0.0,0.0,0.0,0.0,0.0,0.0,0.0,0.0,0.0,0.0,0.0,0.0,0.0,0.0,0.0,0.0,0.0,0.0,0.0,0.0,0.0,0.0,0.0,0.0,0.0,0.0,0.0,0.0,0.0,0.0,0.0,0.0,0.0,0.0,0.0,0.0,0.0,0.0,0.0,0.0,0.0,0.0,0.0,0.0,0.0,0.0,0.0,0.0,0.0,0.0,0.0,0.0,0.0,0.0,0.0,0.0,0.0,0.0,0.0,0.0,0.0,0.0,0.0,0.0,0.0,0.0,0.0,0.0,0.0,0.0,0.0,0.0,0.0,0.0,0.0,0.0,0.0,0.0,0.0,0.0,0.0,0.0,0.0,0.0,0.0,0.0,0.0,0.0,0.0,0.0,0.0,0.0,0.0,0.0,0.0,0.0,0.0,0.0,0.0,0.0,0.0,0.0,0.0,0.0,0.0,0.0,0.0,0.0,0.0,0.0,0.0,0.0,0.0,0.0,0.0,0.0,0.0,0.0,0.0,0.0,0.0,0.0,0.0,0.0,0.0,0.0,0.0,0.0,0.0,0.0,0.0,0.0,0.0,0.0,0.0,0.0,0.0,0.0,0.0,0.0,0.0,0.0,0.0,0.0,0.0,0.0,0.0,0.0,0.0,0.0,0.0,0.0,0.0,0.0,0.0,0.0,0.0,0.0,0.0,0.0,0.0,0.0,0.0,0.0,0.0,0.0,0.0,0.0,0.0,0.0,0.0,0.0,0.0,0.0,0.0,0.0,0.0,0.0,0.0,0.0,0.0,0.0,0.0,0.0,0.0,0.0,0.0,0.0,0.0,0.0,0.0,0.0,0.0,0.0,0.0,0.0,0.0,0.0,0.0,0.0,0.0,0.0,0.0,0.0,0.0,0.0,0.0,0.0,0.0,0.0,0.0,0.0,0.0,0.0,0.0,0.0,0.0,0.0,0.0,0.0,0.0,0.0,0.0,0.0,0.0,0.0,0.0,0.0,0.0,0.0,0.0,0.0,0.0,0.0,0.0,0.0,0.0,0.0,0.0,0.0,0.0,0.0,0.0,0.0,0.0,0.0,0.0,0.0,0.0,0.0,0.0,0.0,0.0,0.0,0.0,0.0,0.0,0.0,0.0,0.0,0.0,0.0,0.0,0.0,0.0,0.0,0.0,0.0,0.0,0.0,0.0,0.0,0.0,0.0,0.0,0.0,0.0,0.0,0.0,0.0,0.0,0.0,0.0,0.0,0.0,0.0,0.0,0.0,0.0,0.0,0.0,0.0,0.0,0.0,0.0,0.0,0.0,0.0,0.0,0.0,0.0,0.0,0.0,0.0,0.0,0.0,0.0,0.0,0.0,0.0,0.0,0.0,0.0,0.0,0.0,0.0,0.0,0.0,0.0,0.0,0.0,0.0,0.0,0.0,0.0,0.0,0.0,0.0,0.0,0.0,0.0,0.0,0.0,0.0,0.0,0.0,0.0,0.0,0.0,0.0,0.0,0.0,0.0,0.0,0.0,0.0,0.0,0.0,0.0,0.0,0.0,0.0,0.0,0.0,0.0,0.0,0.0,0.0,0.0,0.0,0.0,0.0,0.0,0.0,0.0,0.0,0.0,0.0,0.0,0.0,0.0,0.0,0.0,0.0,0.0,0.0,0.0,0.0,0.0,0.0,0.0,0.0,0.0,0.0,0.0,0.0,0.0,0.0,0.0,0.0,0.0,0.0,0.0,0.0,0.0,0.0,0.0,0.0,0.0,0.0,0.0,0.0,0.0,0.0,0.0,0.0,0.0,0.0,0.0,0.0,0.0,0.0,0.0,0.0,0.0,0.0,0.0,0.0,0.0,0.0,0.0,0.0,0.0,0.0,0.0,0.0,0.0,0.0,0.0,0.0,0.0,0.0,0.0,0.0,0.0,0.0,0.0,0.0,0.0,0.0,0.0,0.0,0.0,0.0,0.0,0.0,0.0,0.0,0.0,0.0,0.0,0.0,0.0,0.0,0.0,0.0,0.0,0.0,0.0,0.0,0.0,0.0,0.0,0.0,0.0,0.0,0.0,0.0,0.0,0.0,0.0,0.0,0.0,0.0,0.0,0.0,0.0,0.0,0.0,0.0,0.0,0.0,0.0,0.0,0.0,0.0,0.0,0.0,0.0,0.0,0.0,0.0,0.0,0.0,0.0,0.0,0.0,0.0,0.0,0.0,0.0,0.0,0.0,0.0,0.0,0.0,0.0,0.0,0.0,0.0,0.0,0.0,0.0,0.0,0.0,0.0,0.0,0.0,0.0,0.0,0.0,0.0,0.0,0.0,0.0,0.0,0.0,0.0,0.0,0.0,0.0,0.0,0.0,0.0,0.0,0.0,0.0,0.0,0.0,0.0,0.0,0.0,0.0,0.0,0.0,0.0,0.0,0.0,0.0,0.0,0.0,0.0,0.0,0.0,0.0,0.0,0.0,0.0,0.0,0.0,0.0,0.0,0.0,0.0,0.0,0.0,0.0,0.0,0.0,0.0,0.0,0.0,0.0,0.0,0.0,0.0,0.0,0.0,0.0,0.0,0.0,0.0,0.0,0.0,0.0,0.0,0.0,0.0,0.0,0.0,0.0,0.0,0.0,0.0,0.0,0.0,0.0,0.0,0.0,0.0,0.0,0.0,0.0,0.0,0.0,0.0,0.0,0.0,0.0,0.0,0.0,0.0,0.0,0.0,0.0,0.0,0.0,0.0,0.0,0.0,0.0,0.0,0.0,0.0,0.0,0.0,0.0,0.0,0.0,0.0,0.0,0.0,0.0,0.0,0.0,0.0,0.0,0.0,0.0,0.0,0.0,0.0,0.0,0.0,0.0,0.0,0.0,0.0,0.0,0.0,0.0,0.0,0.0,0.0,0.0,0.0,0.0,0.0,0.0,0.0,0.0,0.0,0.0,0.0,0.0,0.0,0.0,0.0,0.0,0.0,0.0,0.0,0.0,0.0,0.0,0.0,0.0,0.0,0.0,0.0,0.0,0.0,0.0,0.0,0.0,0.0,0.0,0.0,0.0,0.0,0.0,0.0,0.0,0.0,-0.2114,0.0,0.0,0.0,0.0,0.0,0.0,0.0,0.0,0.0,0.0,0.0,0.0,0.0,0.0,0.0,0.0,0.0,0.0,0.0,0.0,0.0,0.0,0.0,0.0,0.0,0.0,0.0,0.0,0.0,0.0,0.0,0.0,0.0,0.0,0.0,0.0,0.0,0.0,0.0,0.0,0.0,0.0,0.0,0.0,0.0,0.0,0.0,0.0,0.0,0.0,0.0,0.0,0.0,0.0,0.0,0.0,0.0,0.0,0.0,0.0,0.0,0.0,0.0,0.0,0.0,0.0,0.0,0.0,0.0,0.0,0.0,0.0,0.0,0.0,0.0,0.0,0.0,0.0,0.0,0.0,0.0,0.0,0.0,0.0,0.0,0.0,0.0,0.0,0.0,0.0,0.0,0.0,0.0,0.0,0.0,0.0,0.0,0.0,0.0,0.0,0.0,0.0,0.0,0.0,0.0,0.0,0.0,0.0,0.0,0.0,-0.2047,-0.2047,-0.2014,-0.1978,-0.1978,0.0,0.0,0.0,0.0,0.0,0.0,0.0,0.0,0.0,0.0,0.0,0.0,0.0,0.0,0.0,0.0,0.0,0.0,0.0,0.0,0.0,0.0,0.0,0.0,0.0,0.0,0.0,0.0,0.0,0.0,0.0,0.0,0.0,0.0,0.0,0.0,0.0,0.0,0.0,0.0,0.0,0.0,0.0,0.0,0.0,0.0,0.0,0.0,0.0,0.0,0.0,0.0,0.0,0.0,0.0,0.0,0.0,0.0,0.0,0.0,0.0,0.0,0.0,0.0,0.0,0.0,0.0,0.0,0.0,0.0,0.0,0.0,0.0,0.0,0.0,0.0,0.0,0.0,0.0,0.0,0.0,0.0,0.0,0.0,0.0,0.0,0.0,0.0,0.0,0.0,0.0,0.0,0.0,0.0,0.0,0.0,0.0,0.0,0.0,0.0,0.0,0.0,0.0,0.0,0.0,0.0,0.0,0.0,0.0,0.0,0.0,0.0,-0.1972,-0.194,-0.1882,0.0,0.0,0.0,0.0,0.0,0.0,0.0,0.0,0.0,0.0,0.0,0.0,0.0,0.0,0.0,0.0,0.0,0.0,0.0,0.0,0.0,0.0,0.0,0.0,0.0,0.0,0.0,0.0,0.0,0.0,0.0,0.0,0.0,0.0,0.0,0.0,0.0,0.0,0.0,0.0,0.0,0.0,0.0,0.0,0.0,0.0,0.0,0.0,0.0,0.0,0.0,0.0,0.0,0.0,0.0,0.0,0.0,0.0,0.0,0.0,0.0,0.0,0.0,0.0,0.0,0.0,0.0,0.0,0.0,0.0,0.0,0.0,0.0,0.0,0.0,0.0,0.0,0.0,0.0,0.0,0.0,0.0,0.0,0.0,0.0,0.0,0.0,0.0,0.0,0.0,0.0,0.0,0.0,0.0,0.0,0.0,0.0,0.0,0.0,0.0,0.0,0.0,0.0,0.0,0.0,0.0,0.0,0.0,0.0,0.0,-0.2023,-0.2023,-0.2041,0.0,-0.1924,0.0,0.0,0.0,0.0,0.0,0.0,0.0,0.0,0.0,0.0,0.0,0.0,0.0,0.0,0.0,0.0,0.0,0.0,0.0,0.0,0.0,0.0,0.0,0.0,0.0,0.0,0.0,0.0,0.0,0.0,0.0,0.0,0.0,0.0,0.0,0.0,0.0,0.0,0.0,0.0,0.0,0.0,0.0,0.0,0.0,0.0,0.0,0.0,0.0,0.0,0.0,0.0,0.0,0.0,0.0,0.0,0.0,0.0,0.0,0.0,0.0,0.0,0.0,0.0,0.0,0.0,0.0,0.0,0.0,0.0,0.0,0.0,0.0,0.0,0.0,0.0,0.0,0.0,0.0,0.0,0.0,0.0,0.0,0.0,0.0,0.0,0.0,0.0,0.0,0.0,0.0,0.0,0.0,0.0,0.0,0.0,0.0,0.0,0.0,0.0,0.0,0.0,0.0,0.0,0.0,0.0,0.0,0.0,0.0,0.0,0.0,-0.1865,-0.1785,-0.1801,0.0,0.0,0.0,0.0,0.0,0.0,0.0,0.0,0.0,0.0,0.0,0.0,0.0,0.0,0.0,0.0,0.0,0.0,0.0,0.0,0.0,0.0,0.0,0.0,0.0,0.0,0.0,0.0,0.0,0.0,0.0,0.0,0.0,0.0,0.0,0.0,0.0,0.0,0.0,0.0,0.0,0.0,0.0,0.0,0.0,0.0,0.0,0.0,0.0,0.0,0.0,0.0,0.0,0.0,0.0,0.0,0.0,0.0,0.0,0.0,0.0,0.0,0.0,0.0,0.0,0.0,0.0,0.0,0.0,0.0,0.0,0.0,0.0,0.0,0.0,0.0,0.0,0.0,0.0,0.0,0.0,0.0,0.0,0.0,0.0,0.0,0.0,0.0,0.0,0.0,0.0,0.0,0.0,0.0,0.0,0.0,0.0,0.0,0.0,0.0,0.0,0.0,0.0,0.0,0.0,0.0,0.0,0.0,0.0,0.0,-0.1833,0.0,-0.179,-0.167,-0.1675,-0.1867,0.0,0.0,0.0,0.0,0.0,0.0,0.0,0.0,0.0,0.0,0.0,0.0,0.0,0.0,0.0,0.0,0.0,0.0,0.0,0.0,0.0,0.0,0.0,0.0,0.0,0.0,0.0,0.0,0.0,0.0,0.0,0.0,0.0,0.0,0.0,0.0,0.0,0.0,0.0,0.0,0.0,0.0,0.0,0.0,0.0,0.0,0.0,0.0,0.0,0.0,0.0,0.0,0.0,0.0,0.0,0.0,0.0,0.0,0.0,0.0,0.0,0.0,0.0,0.0,0.0,0.0,0.0,0.0,0.0,0.0,0.0,0.0,0.0,0.0,0.0,0.0,0.0,0.0,0.0,0.0,0.0,0.0,0.0,0.0,0.0,0.0,0.0,0.0,0.0,0.0,0.0,0.0,0.0,0.0,0.0,0.0,0.0,0.0,0.0,0.0,0.0,0.0,0.0,0.0,0.0,0.0,0.0,0.0,0.0,-0.1719,-0.1753,-0.1777,-0.1782,-0.1792,0.0,0.0,0.0,0.0,0.0,0.0,0.0,0.0,0.0,0.0,0.0,0.0,0.0,0.0,0.0,0.0,0.0,0.0,0.0,0.0,0.0,0.0,0.0,0.0,0.0,0.0,0.0,0.0,0.0,0.0,0.0,0.0,0.0,0.0,0.0,0.0,0.0,0.0,0.0,0.0,0.0,0.0,0.0,0.0,0.0,0.0,0.0,0.0,0.0,0.0,0.0,0.0,0.0,0.0,0.0,0.0,0.0,0.0,0.0,0.0,0.0,0.0,0.0,0.0,0.0,0.0,0.0,0.0,0.0,0.0,0.0,0.0,0.0,0.0,0.0,0.0,0.0,0.0,0.0,0.0,0.0,0.0,0.0,0.0,0.0,0.0,0.0,0.0,0.0,0.0,0.0,0.0,0.0,0.0,0.0,0.0,0.0,0.0,0.0,0.0,0.0,0.0,0.0,0.0,0.0,0.0,0.0,0.0,0.0,-0.1354,-0.1412,-0.141,-0.1343,-0.1344,-0.1407,0.0,0.0,0.0,0.0,0.0,0.0,0.0,0.0,0.0,0.0,0.0,0.0,0.0,0.0,0.0,0.0,0.0,0.0,0.0,0.0,0.0,0.0,0.0,0.0,0.0,0.0,0.0,0.0,0.0,0.0,0.0,0.0,0.0,0.0,0.0,0.0,0.0,0.0,0.0,0.0,0.0,0.0,0.0,0.0,0.0,0.0,0.0,0.0,0.0,0.0,0.0,0.0,0.0,0.0,0.0,0.0,0.0,0.0,0.0,0.0,0.0,0.0,0.0,0.0,0.0,0.0,0.0,0.0,0.0,0.0,0.0,0.0,0.0,0.0,0.0,0.0,0.0,0.0,0.0,0.0,0.0,0.0,0.0,0.0,0.0,0.0,0.0,0.0,0.0,0.0,0.0,0.0,0.0,0.0,0.0,0.0,0.0,0.0,0.0,0.0,0.0,0.0,0.0,0.0,0.0,0.0,0.0,0.0,0.0,-0.1116,0.0,-0.121,0.0,-0.112,-0.115,0.0,0.0,0.0,0.0,0.0,0.0,0.0,0.0,0.0,0.0,0.0,0.0,0.0,0.0,0.0,0.0,0.0,0.0,0.0,0.0,0.0,0.0,0.0,0.0,0.0,0.0,0.0,0.0,0.0,0.0,0.0,0.0,0.0,0.0,0.0,0.0,0.0,0.0,0.0,0.0,0.0,0.0,0.0,0.0,0.0,0.0,0.0,0.0,0.0,0.0,0.0,0.0,0.0,0.0,0.0,0.0,0.0,0.0,0.0,0.0,0.0,0.0,0.0,0.0,0.0,0.0,0.0,0.0,0.0,0.0,0.0,0.0,0.0,0.0,0.0,0.0,0.0,0.0,0.0,0.0,0.0,0.0,0.0,0.0,0.0,0.0,0.0,0.0,0.0,0.0,0.0,0.0,0.0,0.0,0.0,0.0,0.0,0.0,0.0,0.0,0.0,0.0,0.0,0.0,0.0,0.0,0.0,0.0,-0.1075,-0.112,-0.1076,-0.1081,-0.1076,-0.1078,-0.1077,0.0,0.0,0.0,0.0,0.0,0.0,0.0,0.0,0.0,0.0,0.0,0.0,0.0,0.0,0.0,0.0,0.0,0.0,0.0,0.0,0.0,0.0,0.0,0.0,0.0,0.0,0.0,0.0,0.0,0.0,0.0,0.0,0.0,0.0,0.0,0.0,0.0,0.0,0.0,0.0,0.0,0.0,0.0,0.0,0.0,0.0,0.0,0.0,0.0,0.0,0.0,0.0,0.0,0.0,0.0,0.0,0.0,0.0,0.0,0.0,0.0,0.0,0.0,0.0,0.0,0.0,0.0,0.0,0.0,0.0,0.0,0.0,0.0,0.0,0.0,0.0,0.0,0.0,0.0,0.0,0.0,0.0,0.0,0.0,0.0,0.0,0.0,0.0,0.0,0.0,0.0,0.0,0.0,0.0,0.0,0.0,0.0,0.0,0.0,0.0,0.0,0.0,0.0,0.0,0.0,0.0,0.0,0.0,0.0,-0.0891,-0.0913,-0.0876,-0.0923,-0.0902,-0.0844,0.0,0.0,0.0,0.0,0.0,0.0,0.0,0.0,0.0,0.0,0.0,0.0,0.0,0.0,0.0,0.0,0.0,0.0,0.0,0.0,0.0,0.0,0.0,0.0,0.0,0.0,0.0,0.0,0.0,0.0,0.0,0.0,0.0,0.0,0.0,0.0,0.0,0.0,0.0,0.0,0.0,0.0,0.0,0.0,0.0,0.0,0.0,0.0,0.0,0.0,0.0,0.0,0.0,0.0,0.0,0.0,0.0,0.0,0.0,0.0,0.0,0.0,0.0,0.0,0.0,0.0,0.0,0.0,0.0,0.0,0.0,0.0,0.0,0.0,0.0,0.0,0.0,0.0,0.0,0.0,0.0,0.0,0.0,0.0,0.0,0.0,0.0,0.0,0.0,0.0,0.0,0.0,0.0,0.0,0.0,0.0,0.0,0.0,0.0,0.0,0.0,0.0,0.0,0.0,0.0,0.0,0.0,0.0,0.0,-0.0648,-0.0753,-0.0807,-0.0807,-0.079,-0.0776,-0.0716,0.0,0.0,0.0,0.0,0.0,0.0,0.0,0.0,0.0,0.0,0.0,0.0,0.0,0.0,0.0,0.0,0.0,0.0,0.0,0.0,0.0,0.0,0.0,0.0,0.0,0.0,0.0,0.0,0.0,0.0,0.0,0.0,0.0,0.0,0.0,0.0,0.0,0.0,0.0,0.0,0.0,0.0,0.0,0.0,0.0,0.0,0.0,0.0,0.0,0.0,0.0,0.0,0.0,0.0,0.0,0.0,0.0,0.0,0.0,0.0,0.0,0.0,0.0,0.0,0.0,0.0,0.0,0.0,0.0,0.0,0.0,0.0,0.0,0.0,0.0,0.0,0.0,0.0,0.0,0.0,0.0,0.0,0.0,0.0,0.0,0.0,0.0,0.0,0.0,0.0,0.0,0.0,0.0,0.0,0.0,0.0,0.0,0.0,0.0,0.0,0.0,0.0,0.0,0.0,0.0,0.0,0.0,0.0,-0.0376,-0.0624,-0.0765,-0.0762,-0.076,-0.0746,0.0,0.0,0.0,0.0,0.0,0.0,0.0,0.0,0.0,0.0,0.0,0.0,0.0,0.0,0.0,0.0,0.0,0.0,0.0,0.0,0.0,0.0,0.0,0.0,0.0,0.0,0.0,0.0,0.0,0.0,0.0,0.0,0.0,0.0,0.0,0.0,0.0,0.0,0.0,0.0,0.0,0.0,0.0,0.0,0.0,0.0,0.0,0.0,0.0,0.0,0.0,0.0,0.0,0.0,0.0,0.0,0.0,0.0,0.0,0.0,0.0,0.0,0.0,0.0,0.0,0.0,0.0,0.0,0.0,0.0,0.0,0.0,0.0,0.0,0.0,0.0,0.0,0.0,0.0,0.0,0.0,0.0,0.0,0.0,0.0,0.0,0.0,0.0,0.0,0.0,0.0,0.0,0.0,0.0,0.0,0.0,0.0,0.0,0.0,0.0,0.0,0.0,0.0,0.0,0.0,0.0,0.0,0.0,0.0,-0.0416,-0.0472,-0.0517,-0.0492,-0.0533,-0.062,0.0,0.0,0.0,0.0,0.0,0.0,0.0,0.0,0.0,0.0,0.0,0.0,0.0,0.0,0.0,0.0,0.0,0.0,0.0,0.0,0.0,0.0,0.0,0.0,0.0,0.0,0.0,0.0,0.0,0.0,0.0,0.0,0.0,0.0,0.0,0.0,0.0,0.0,0.0,0.0,0.0,0.0,0.0,0.0,0.0,0.0,0.0,0.0,0.0,0.0,0.0,0.0,0.0,0.0,0.0,0.0,0.0,0.0,0.0,0.0,0.0,0.0,0.0,0.0,0.0,0.0,0.0,0.0,0.0,0.0,0.0,0.0,0.0,0.0,0.0,0.0,0.0,0.0,0.0,0.0,0.0,0.0,0.0,0.0,0.0,0.0,0.0,0.0,0.0,0.0,0.0,0.0,0.0,0.0,0.0,0.0,0.0,0.0,0.0,0.0,0.0,0.0,0.0,0.0,0.0,0.0,0.0,0.0,-0.0059,-0.0247,-0.0247,-0.0243,-0.0234,-0.0227,-0.0326,0.0,0.0,0.0,0.0,0.0,0.0,0.0,0.0,0.0,0.0,0.0,0.0,0.0,0.0,0.0,0.0,0.0,0.0,0.0,0.0,0.0,0.0,0.0,0.0,0.0,0.0,0.0,0.0,0.0,0.0,0.0,0.0,0.0,0.0,0.0,0.0,0.0,0.0,0.0,0.0,0.0,0.0,0.0,0.0,0.0,0.0,0.0,0.0,0.0,0.0,0.0,0.0,0.0,0.0,0.0,0.0,0.0,0.0,0.0,0.0,0.0,0.0,0.0,0.0,0.0,0.0,0.0,0.0,0.0,0.0,0.0,0.0,0.0,0.0,0.0,0.0,0.0,0.0,0.0,0.0,0.0,0.0,0.0,0.0,0.0,0.0,0.0,0.0,0.0,0.0,0.0,0.0,0.0,0.0,0.0,0.0,0.0,0.0,0.0,0.0,0.0,0.0,0.0,0.0,0.0,0.0,0.0,0.0,-0.0,-0.0,-0.0,-0.0,-0.0,-0.0,-0.0,0.0,0.0,0.0,0.0,0.0,0.0,0.0,0.0,0.0,0.0,0.0,0.0,0.0,0.0,0.0,0.0,0.0,0.0,0.0,0.0,0.0,0.0,0.0,0.0,0.0,0.0,0.0,0.0,0.0,0.0,0.0,0.0,0.0,0.0,0.0,0.0,0.0,0.0,0.0,0.0,0.0,0.0,0.0,0.0,0.0,0.0,0.0,0.0,0.0,0.0,0.0,0.0,0.0,0.0,0.0,0.0,0.0,0.0,0.0,0.0,0.0,0.0,0.0,0.0,0.0,0.0,0.0,0.0,0.0,0.0,0.0,0.0,0.0,0.0,0.0,0.0,0.0,0.0,0.0,0.0,0.0,0.0,0.0,0.0,0.0,0.0,0.0,0.0,0.0,0.0,0.0,0.0,0.0,0.0,0.0,0.0,0.0,0.0,0.0,0.0,0.0,0.0,0.0,0.0,0.0,0.0,0.0,0.0,-0.0,-0.0,-0.0,-0.0,-0.0,-0.0,-0.0,0.0,0.0,0.0,0.0,0.0,0.0,0.0,0.0,0.0,0.0,0.0,0.0,0.0,0.0,0.0,0.0,0.0,0.0,0.0,0.0,0.0,0.0,0.0,0.0,0.0,0.0,0.0,0.0,0.0,0.0,0.0,0.0,0.0,0.0,0.0,0.0,0.0,0.0,0.0,0.0,0.0,0.0,0.0,0.0,0.0,0.0,0.0,0.0,-0.0,0.0,0.0,0.0,0.0,0.0,0.0,0.0,0.0,0.0,0.0,0.0,0.0,0.0,0.0,0.0,0.0,0.0,0.0,0.0,0.0,0.0,0.0,0.0,0.0,0.0,0.0,0.0,0.0,0.0,0.0,0.0,0.0,0.0,0.0,0.0,0.0,0.0,0.0,0.0,0.0,0.0,0.0,0.0,0.0,0.0,0.0,0.0,0.0,0.0,0.0,0.0,0.0,0.0,0.0,0.0,0.0,0.0,0.0,0.0,0.0452,0.0202,0.0067,-0.0,-0.0,0.0325,0.0498,0.0,0.0,0.0,0.0,0.0,0.0,0.0,0.0,0.0,0.0,0.0,0.0,0.0,0.0,0.0,0.0,0.0,0.0,0.0,0.0,0.0,0.0,0.0,0.0,0.0,0.0,0.0,0.0,0.0,0.0,0.0,0.0,0.0,0.0,0.0,0.0,0.0,0.0,0.0,0.0,0.0,0.0,0.0,0.0,0.0,0.0,0.0,0.0,0.0,0.0,0.0,0.0,0.0,0.0,0.0,0.0,0.0,0.0,0.0,0.0,0.0,0.0,0.0,0.0,0.0,0.0,0.0,0.0,0.0,0.0,0.0,0.0,0.0,0.0,0.0,0.0,0.0,0.0,0.0,0.0,0.0,0.0,0.0,0.0,0.0,0.0,0.0,0.0,0.0,0.0,0.0,0.0,0.0,0.0,0.0,0.0,0.0,0.0,0.0,0.0,0.0,0.0,0.0,0.0,0.0,0.0,0.0,0.1082,0.0917,0.0606,0.0337,0.0135,-0.0,0.0674,0.0973,0.0893,0.0,0.0,0.0,0.0,0.0,0.0,0.0,0.0,0.0,0.0,0.0,0.0,0.0,0.0,0.0,0.0,0.0,0.0,0.0,0.0,0.0,0.0,0.0,0.0,0.0,0.0,0.0,0.0,0.0,0.0,0.0,0.0,0.0,0.0,0.0,0.0,0.0,0.0,-0.0,-0.0,0.0,0.0,0.0,0.0,0.0,0.0,0.0,0.0,-0.0,0.0,0.0,0.0,0.0,0.0,0.0,0.0,0.0,0.0,0.0,0.0,0.0,0.0,0.0,0.0,0.0,0.0,0.0,0.0,0.0,0.0,0.0,0.0,0.0,0.0,0.0,0.0,0.0,0.0,0.0,0.0,0.0,0.0,0.0,0.0,0.0,0.0,0.0,0.0,0.0,0.0,0.0,0.0,0.0,0.0,0.0,0.0,0.0,0.0,0.0,0.0,0.0,0.0,0.0,0.0,0.0,0.1172,0.1146,0.1048,0.1011,0.0945,0.0607,0.0067,0.0405,0.072,0.0983,0.0,0.0,0.0,0.0,0.0,0.0,0.0,0.0,0.0,0.0,0.0,0.0,0.0,0.0,0.0,0.0,0.0,0.0,0.0,0.0,0.0,0.0,0.0,0.0,0.0,0.0,0.0,0.0,0.0,0.0,0.0,0.0,0.0,0.0,0.0,0.0,0.0,0.0,0.0,-0.0,-0.0,0.0,0.0,0.0,0.0,0.0,0.0,0.0,0.0,-0.0,0.0,0.0,0.0,0.0,0.0,0.0,0.0,0.0,0.0,0.0,0.0,0.0,0.0,0.0,0.0,0.0,0.0,0.0,0.0,0.0,0.0,0.0,0.0,0.0,0.0,0.0,0.0,0.0,0.0,0.0,0.0,0.0,0.0,0.0,0.0,0.0,0.0,0.0,0.0,0.0,0.0,0.0,0.0,0.0,0.0,0.0,0.0,0.0,0.0,0.0,0.0,0.0,0.0,0.0,0.0,0.1295,0.1162,0.1129,0.1077,0.1078,0.0945,0.0607,0.0742,0.0854,0.0,0.0,0.0,0.0,0.0,0.0,0.0,0.0,0.0,0.0,0.0,0.0,0.0,0.0,0.0,0.0,0.0,0.0,0.0,0.0,0.0,0.0,0.0,0.0,0.0,0.0,0.0,0.0,0.0,0.0,0.0,0.0,0.0,0.0,0.0,0.0,0.0,0.0,0.0,0.0,-0.0,-0.0,-0.0,0.0,0.0,0.0,0.0,0.0,0.0,-0.0,-0.0,0.0,0.0,0.0,0.0,0.0,0.0,0.0,0.0,0.0,0.0,0.0,0.0,0.0,0.0,0.0,0.0,0.0,0.0,0.0,0.0,0.0,0.0,0.0,0.0,0.0,0.0,0.0,0.0,0.0,0.0,0.0,0.0,0.0,0.0,0.0,0.0,0.0,0.0,0.0,0.0,0.0,0.0,0.0,0.0,0.0,0.0,0.0,0.0,0.0,0.0,0.0,0.0,0.0,0.0,0.0,0.1422,0.1176,0.1076,0.1076,0.1078,0.1078,0.1078,0.1146,0.1116,0.0,0.0,0.0,0.0,0.0,0.0,0.0,0.0,0.0,0.0,0.0,0.0,0.0,0.0,0.0,0.0,0.0,0.0,0.0,0.0,0.0,0.0,0.0,0.0,0.0,0.0,0.0,0.0,0.0,0.0,0.0,0.0,0.0,0.0,0.0,0.0,0.0,0.0,0.0,0.0,0.0,-0.0,-0.0,-0.0,0.0,0.0,0.0,0.0,-0.0,-0.0,0.0,0.0,0.0,0.0,0.0,0.0,0.0,0.0,0.0,0.0,0.0,0.0,0.0,0.0,0.0,0.0,0.0,0.0,0.0,0.0,0.0,0.0,0.0,0.0,0.0,0.0,0.0,0.0,0.0,0.0,0.0,0.0,0.0,0.0,0.0,0.0,0.0,0.0,0.0,0.0,0.0,0.0,0.0,0.0,0.0,0.0,0.0,0.0,0.0,0.0,0.0,0.0,0.0,0.0,0.0,0.0,0.1422,0.1177,0.1076,0.1076,0.1076,0.1076,0.1078,0.1212,0.131,0.0,0.0,0.0,0.0,0.0,0.0,0.0,0.0,0.0,0.0,0.0,0.0,0.0,0.0,0.0,0.0,0.0,0.0,0.0,0.0,0.0,0.0,0.0,0.0,0.0,0.0,0.0,0.0,0.0,0.0,0.0,0.0,0.0,0.0,0.0,0.0,0.0,0.0,0.0,0.0,0.0,-0.0,-0.0,-0.0,-0.0,0.0,0.0,-0.0,-0.0,-0.0,0.0,0.0,0.0,0.0,0.0,0.0,0.0,0.0,0.0,0.0,0.0,0.0,0.0,0.0,0.0,0.0,0.0,0.0,0.0,0.0,0.0,0.0,0.0,0.0,0.0,0.0,0.0,0.0,0.0,0.0,0.0,0.0,0.0,0.0,0.0,0.0,0.0,0.0,0.0,0.0,0.0,0.0,0.0,0.0,0.0,0.0,0.0,0.0,0.0,0.0,0.0,0.0,0.0,0.0,0.0,0.1642,0.1423,0.1177,0.1076,0.1076,0.1076,0.1076,0.1078,0.1127,0.1161,0.0,0.0,0.0,0.0,0.0,0.0,0.0,0.0,0.0,0.0,0.0,0.0,0.0,0.0,0.0,0.0,0.0,0.0,0.0,0.0,0.0,0.0,0.0,0.0,0.0,0.0,0.0,0.0,0.0,0.0,0.0,0.0,0.0,0.0,0.0,0.0,0.0,0.0,0.0,0.0,0.0,0.0,-0.0,-0.0,0.0,0.0,0.0,-0.0,-0.0,0.0,0.0,0.0,0.0,0.0,0.0,0.0,0.0,0.0,0.0,0.0,0.0,0.0,0.0,0.0,0.0,0.0,0.0,0.0,0.0,0.0,0.0,0.0,0.0,0.0,0.0,0.0,0.0,0.0,0.0,0.0,0.0,0.0,0.0,0.0,0.0,0.0,0.0,0.0,0.0,0.0,0.0,0.0,0.0,0.0,0.0,0.0,0.0,0.0,0.0,0.0,0.0,0.0,0.0,0.0,0.0,0.0,0.1437,0.1189,0.1154,0.1087,0.1087,0.1087,0.1086,0.1059,0.0,0.0,0.0,0.0,0.0,0.0,0.0,0.0,0.0,0.0,0.0,0.0,0.0,0.0,0.0,0.0,0.0,0.0,0.0,0.0,0.0,0.0,0.0,0.0,0.0,0.0,0.0,0.019,0.0,0.0,0.0,0.0,0.0,0.0,0.0,0.0,0.0,0.0,0.0,0.0,0.0,0.0,-0.0,-0.0,-0.0,-0.0,0.0,0.0,-0.0,-0.0,-0.0,-0.0,0.0,0.0,0.0,0.0,0.0,0.0,0.0,0.0,0.0,0.0,0.0,0.0,0.0,0.0,0.0,0.0,0.0,0.0,0.0,0.0,0.0,0.0,0.0,0.0,0.0,0.0,0.0,0.0,0.0,0.0,0.0,0.0,0.0,0.0,0.0,0.0,0.0,0.0,0.0,0.0,0.0,0.0,0.0,0.0,0.0,0.0,0.0,0.0,0.0,0.0,0.0,0.0,0.0,0.0,0.0,0.1479,0.1291,0.1187,0.1118,0.1119,0.1118,0.1117,0.1225,0.1308,0.0,0.0,0.0,0.0,0.0,0.0,0.0,0.0,0.0,0.0,0.0,0.0,0.0,0.0,0.0,0.0,0.0,0.0,0.0,0.0,0.0,0.0,0.0,0.0,0.0,0.0,0.0,0.0,0.0,0.0,0.0,0.0,0.0,0.0,0.0,0.0,0.0,0.0,0.0,0.0,0.0,-0.0,-0.0,-0.0,-0.0,0.0,0.0,-0.0,-0.0,-0.0,-0.0,-0.0,0.0,0.0,0.0,0.0,0.0,0.0,0.0,0.0,0.0,0.0,0.0,0.0,0.0,0.0,0.0,0.0,0.0,0.0,0.0,0.0,0.0,0.0,0.0,0.0,0.0,0.0,0.0,0.0,0.0,0.0,0.0,0.0,0.0,0.0,0.0,0.0,0.0,0.0,0.0,0.0,0.0,0.0,0.0,0.0,0.0,0.0,0.0,0.0,0.0,0.0,0.0,0.0,0.0,0.1894,0.1586,0.1306,0.1201,0.1149,0.1149,0.114,0.1121,0.116,0.1245,0.0,0.0,0.0,0.0,0.0,0.0,0.0,0.0,0.0,0.0,0.0,0.0,0.0,0.0,0.0,0.0,0.0,0.0,0.0,0.0,0.0,0.0,0.0,0.0,0.0,0.0,0.0,0.0,0.0614,0.0491,0.0279,0.0,0.0,0.0,0.0,0.0,0.0,0.0,0.0,0.0,0.0,-0.0,-0.0,-0.0,0.0,0.0,-0.0,-0.0,-0.0,-0.0,-0.0,-0.0,-0.0,0.0,0.0,0.0,0.0,0.0,0.0,0.0,0.0,0.0,0.0,0.0,0.0,0.0,0.0,0.0,0.0,0.0,0.0,0.0,0.0,0.0,0.0,0.0,0.0,0.0,0.0,0.0,0.0,0.0,0.0,0.0,0.0,0.0,0.0,0.0,0.0,0.0,0.0,0.0,0.0,0.0,0.0,0.0,0.0,0.0,0.0,0.0,0.0,0.0,0.0,0.0,0.0,0.2076,0.1633,0.141,0.1304,0.1179,0.118,0.117,0.1149,0.111,0.1133,0.0,0.0,0.0,0.0,0.0,0.0,0.0,0.0,0.0,0.0,0.0,0.0,0.0,0.0,0.0,0.0,0.0,0.0,0.0,0.0,0.0,0.0,0.0,0.0,0.0,0.0,0.0,0.0,0.074,0.0659,0.0532,0.0,0.0,0.0,0.0,0.0,0.0,0.0,0.0,0.0,0.0,-0.0,-0.0,-0.0,-0.0,-0.0,-0.0,-0.0,-0.0,-0.0,-0.0,-0.0,0.0,0.0,0.0,0.0,0.0,0.0,0.0,0.0,0.0,0.0,0.0,0.0,0.0,0.0,0.0,0.0,0.0,0.0,0.0,0.0,0.0,0.0,0.0,0.0,0.0,0.0,0.0,0.0,0.0,0.0,0.3948,0.0,0.0,0.0,0.0,0.0,0.0,0.0,0.0,0.0,0.0,0.0,0.0,0.0,0.0,0.0,0.0,0.0,0.0,0.0,0.0,0.0,0.0,0.2242,0.1751,0.1695,0.1512,0.1211,0.1211,0.121,0.1207,0.1152,0.1175,0.1275,0.0,0.0,0.0,0.0,0.0,0.0,0.0,0.0,0.0,0.0,0.0,0.0,0.0,0.0,0.0,0.0,0.0,0.0,0.0,0.0,0.0,0.0,0.0,0.0,0.0,0.0,0.0809,0.0788,0.0806,0.0,0.0,0.0,0.0,0.0,0.0,0.0,0.0,0.0,0.0,-0.0,-0.0,-0.0,-0.0,-0.0,-0.0,-0.0,-0.0,-0.0,-0.0,-0.0,0.0,0.0,0.0,0.0,0.0,0.0,0.0,0.0,0.0,0.0,0.0,0.0,0.0,0.0,0.0,0.0,0.0,0.0,0.0,0.0,0.0,0.0,0.0,0.0,0.0,0.0,0.0,0.4612,0.46,0.0,0.0,0.0,0.0,0.0,0.0,0.0,0.0,0.0,0.0,0.0,0.5087,0.509,0.0,0.0,0.0,0.0,0.0,0.0,0.0,0.0,0.0,0.0,0.0,0.0,0.1736,0.1769,0.1577,0.1374,0.1241,0.1242,0.1232,0.1213,0.1192,0.1148,0.1145,0.0,0.0,0.0,0.0,0.0,0.0,0.0,0.0,0.0,0.0,0.0,0.0,0.0,0.0,0.0,0.0,0.0,0.0,0.0,0.0,0.0,0.0,0.0,0.0,0.0,0.0782,0.0,0.0,0.0,0.0,0.0,0.0,0.0,0.0,0.0,0.0,0.0,-0.0,-0.0,-0.0,-0.0,-0.0,-0.0,-0.0,0.0,0.0,0.0,0.0,0.0,0.0,0.0,0.0,0.0,0.0,0.0,0.0,0.0,0.0,-0.0,-0.0,-0.0,-0.0,-0.0,0.0,0.0,0.0,0.0,0.0,0.0,0.0,0.0,0.0,0.0,0.0,0.0,0.0,0.0,0.4962,0.0,0.4876,0.0,0.0,0.0,0.0,0.0,0.0,0.0,0.0,0.5006,0.5322,0.5295,0.5182,0.5185,0.0,0.4868,0.4518,0.0,0.0,0.0,0.0,0.0,0.0,0.0,0.0,0.1591,0.1684,0.1534,0.1398,0.1351,0.1341,0.1248,0.1228,0.1207,0.1158,0.1078,0.0991,0.093,0.0,0.0,0.0,0.0,0.0,0.0,0.0,0.0,0.0,0.0,0.0,0.0,0.0,0.0,0.0,0.0,0.0,0.0,0.0,0.0,0.0,0.0,0.0,0.0838,0.0,0.0,0.0,0.0,0.0,0.0,0.0,0.0,0.0,0.118,0.0705,0.0291,-0.0,-0.0,-0.0,-0.0,0.0,0.0,0.0,0.0,0.0,0.0,0.0,-0.0,-0.0,-0.0,-0.0,-0.0,-0.0,-0.0,-0.0,0.0,0.0,-0.0,-0.0,-0.0,-0.0,-0.0,-0.0,-0.0,-0.0,-0.0,0.0,0.0,0.0,0.0,0.0,0.0,0.0,0.0,0.5183,0.5189,0.0,0.5053,0.0,0.0,0.0,0.0,0.0,0.397,0.0,0.0,0.458,0.5012,0.5534,0.5139,0.4889,0.4708,0.4678,0.4496,0.4082,0.3799,0.0,0.0,0.0,0.0,0.0,0.0,0.1763,0.1496,0.1576,0.1514,0.1302,0.1275,0.1337,0.1334,0.1199,0.1141,0.1082,0.1115,0.1055,0.0907,0.0898,0.0,0.0,0.0,0.0,0.0,0.0,0.0,0.0,0.0,0.0,0.0,0.0,0.0,0.0,0.0,0.0,0.0,0.0,0.0,0.0,0.0974,0.0,0.0,0.0,0.0,0.0,0.0,0.0,0.0,0.0,0.0,0.1106,0.1146,0.0873,0.0162,0.0,0.0,0.0,0.0,-0.0,-0.0,-0.0,-0.0,-0.0,-0.0,-0.0,-0.0,0.0,0.0,-0.0,-0.0,-0.0,-0.0,-0.0,-0.0,-0.0,-0.0,-0.0,-0.0,-0.0,-0.0,-0.0,-0.0,-0.0,0.6045,0.0,0.0,0.0,0.0,0.5698,0.5635,0.5568,0.5488,0.5328,0.5079,0.4886,0.0,0.0,0.0,0.0,0.0,0.0,0.3748,0.3834,0.3777,0.4136,0.4921,0.4441,0.4101,0.3908,0.4051,0.4024,0.3751,0.3356,0.3059,0.2853,0.0,0.0,0.0,0.0,0.1506,0.1645,0.1486,0.1326,0.1335,0.1305,0.1279,0.1336,0.1219,0.1181,0.1212,0.1159,0.1107,0.1059,0.0932,0.0,0.0,0.0,0.0,0.0,0.0,0.0,0.0,0.0,0.0,0.0,0.0,0.0,0.0,0.0,0.0,0.0,0.0,0.0,0.0989,0.1032,0.1057,0.0,0.0,0.0,0.0,0.0,0.0,0.0,0.0,0.0,0.1321,0.1304,0.1138,0.0,0.0,0.0529,0.0529,0.0543,0.0461,0.0092,-0.0,0.0,-0.0,-0.0,-0.0,-0.0,-0.0,-0.0,-0.0,-0.0,-0.0,-0.0,-0.0,-0.0,-0.0,-0.0,-0.0,-0.0,-0.0,-0.0,-0.0,-0.0,-0.0,0.6005,0.6072,0.5954,0.5876,0.5859,0.57,0.555,0.5457,0.546,0.521,0.4699,0.4383,0.4192,0.411,0.3732,0.0,0.0,0.0,0.3318,0.3446,0.3222,0.3491,0.4091,0.3867,0.3623,0.3361,0.359,0.3578,0.3323,0.2869,0.2616,0.24,0.0,0.0,0.1934,0.1534,0.1398,0.153,0.1353,0.1354,0.1364,0.1335,0.1306,0.1276,0.1245,0.1215,0.1259,0.1126,0.108,0.1117,0.1049,0.0935,0.0,0.0,0.0,0.0,0.0,0.0,0.0,0.0,0.0,0.0,0.0,0.0847,0.0,0.0,0.0,0.0,0.0923,0.0967,0.1003,0.112,0.0,0.0,0.0,0.0,0.0,0.0,0.0,0.1315,0.1341,0.1368,0.1403,0.1398,0.1306,0.1137,0.1081,0.1103,0.1103,0.0,0.1049,0.0668,0.048,0.0289,-0.0,-0.0,-0.0,-0.0,-0.0,-0.0,-0.0,-0.0,-0.0,-0.0,-0.0,-0.0,-0.0,-0.0,-0.0,-0.0,-0.0,-0.0,-0.0,-0.0,-0.0,0.59,0.5677,0.5872,0.5852,0.56,0.5426,0.5173,0.4997,0.5341,0.4992,0.4219,0.3708,0.3542,0.3547,0.3128,0.0,0.3217,0.2883,0.2888,0.3227,0.2947,0.2974,0.3241,0.3395,0.3244,0.288,0.318,0.3152,0.2715,0.2406,0.2039,0.1699,0.1785,0.1779,0.1686,0.1517,0.1363,0.1393,0.1368,0.1366,0.1388,0.1365,0.1337,0.1307,0.1277,0.1324,0.1291,0.1159,0.1114,0.1084,0.1119,0.1061,0.0917,0.0,0.0,0.0,0.0,0.0,0.0,0.0,0.0,0.0,0.0,0.0,0.0,0.0,0.0,0.0,0.1022,0.0,0.1048,0.1194,0.0,0.0,0.0,0.1277,0.1306,0.1311,0.1324,0.1355,0.0,0.0,0.1442,0.1493,0.1519,0.1491,0.1513,0.153,0.1626,0.1532,0.1629,0.1537,0.1168,0.0689,0.0295,-0.0,-0.0,-0.0,-0.0,-0.0,-0.0,-0.0,-0.0,-0.0,-0.0,-0.0,-0.0,-0.0,-0.0,-0.0,-0.0,-0.0,-0.0,-0.0,-0.0,0.5713,0.5705,0.5313,0.5269,0.5363,0.5363,0.5137,0.4885,0.5433,0.5022,0.3969,0.3351,0.3089,0.309,0.2912,0.2763,0.2445,0.2717,0.2741,0.2409,0.2422,0.2615,0.2991,0.2722,0.2445,0.235,0.2433,0.2428,0.2335,0.2138,0.1947,0.1854,0.1669,0.1538,0.1468,0.1465,0.1394,0.1424,0.1418,0.1407,0.1391,0.1383,0.1366,0.1338,0.1307,0.1277,0.1325,0.1286,0.1176,0.1074,0.1094,0.1122,0.1034,0.0991,0.0,0.0,0.0,0.0,0.0,0.0,0.0,0.0,0.0,0.1041,0.1136,0.0,0.1088,0.0,0.1082,0.1119,0.1165,0.1209,0.0,0.0,0.1303,0.1338,0.1366,0.139,0.1415,0.1446,0.1482,0.1504,0.1505,0.1537,0.1558,0.1551,0.1556,0.156,0.1562,0.1581,0.1595,0.1594,0.1499,0.1405,0.1203,0.0502,-0.0,-0.0,-0.0,-0.0,-0.0,-0.0,-0.0,-0.0,-0.0,-0.0,-0.0,-0.0,-0.0,-0.0,-0.0,-0.0,-0.0,-0.0,-0.0,0.5273,0.5273,0.4882,0.4689,0.4681,0.489,0.4825,0.4498,0.4877,0.4471,0.3498,0.2855,0.258,0.258,0.2581,0.2413,0.2252,0.244,0.2455,0.2194,0.2004,0.2194,0.2577,0.2291,0.2099,0.1908,0.2099,0.2194,0.2099,0.1908,0.1813,0.1717,0.1526,0.1407,0.1453,0.1451,0.1459,0.1384,0.1371,0.144,0.1411,0.141,0.1396,0.1367,0.1338,0.1308,0.1279,0.1312,0.128,0.1187,0.1213,0.118,0.1165,0.1052,0.1027,0.0,0.0,0.0,0.0,0.0,0.0,0.0,0.0,0.0,0.0,0.0,0.1174,0.1134,0.1164,0.12,0.1248,0.129,0.1323,0.1339,0.1381,0.1413,0.1429,0.1457,0.1482,0.15,0.1528,0.1547,0.1547,0.1573,0.1592,0.1592,0.1591,0.1592,0.1593,0.1607,0.1617,0.1617,0.1617,0.1617,0.1617,0.0707,-0.0,-0.0,-0.0,-0.0,-0.0,-0.0,-0.0,-0.0,-0.0,-0.0,-0.0,-0.0,-0.0,-0.0,-0.0,-0.0,-0.0,-0.0,-0.0,0.4768,0.4667,0.4356,0.405,0.3734,0.4093,0.412,0.4014,0.4115,0.3633,0.2762,0.2384,0.2194,0.2194,0.2194,0.2103,0.2107,0.2107,0.2109,0.2114,0.1731,0.1827,0.2115,0.2115,0.1922,0.1634,0.1923,0.2019,0.1826,0.1826,0.1731,0.1538,0.1538,0.1538,0.1538,0.1538,0.1438,0.143,0.1407,0.138,0.1442,0.1441,0.1427,0.1397,0.1369,0.1341,0.1314,0.1334,0.13,0.1299,0.134,0.1305,0.1205,0.1172,0.1087,0.0,0.1064,0.0,0.0,0.0,0.0,0.0,0.0,0.0,0.0,0.1259,0.1276,0.1227,0.1254,0.1283,0.1317,0.1366,0.1399,0.1408,0.1455,0.1487,0.1487,0.1513,0.1532,0.1532,0.1559,0.1577,0.1579,0.16,0.1617,0.1615,0.1614,0.1613,0.1616,0.1616,0.1617,0.1617,0.1617,0.1617,0.1516,0.0808,-0.0,-0.0,-0.0,-0.0,-0.0,-0.0,-0.0,-0.0,-0.0,-0.0,-0.0,-0.0,-0.0,-0.0,-0.0,-0.0,-0.0,-0.0,-0.0,0.474,0.4211,0.3738,0.351,0.3401,0.3429,0.3365,0.3316,0.3416,0.2806,0.1908,0.2004,0.2004,0.2004,0.1908,0.1829,0.1758,0.1661,0.1675,0.17,0.16,0.16,0.17,0.17,0.17,0.16,0.17,0.17,0.17,0.17,0.16,0.1599,0.16,0.1599,0.16,0.0,0.0,0.0,0.1425,0.1503,0.1473,0.1472,0.1457,0.1427,0.1397,0.0,0.1286,0.1317,0.1286,0.1284,0.131,0.0,0.0,0.0,0.0,0.0,0.0,0.0,0.0,0.0,0.0,0.0,0.121,0.1287,0.1246,0.1285,0.1316,0.1322,0.1244,0.1352,0.1405,0.142,0.1446,0.1495,0.151,0.1517,0.1519,0.1545,0.1563,0.1563,0.159,0.1608,0.1607,0.1613,0.1617,0.1617,0.1617,0.1617,0.1617,0.1617,0.1617,0.1617,0.1617,0.1617,0.1617,0.1111,0.0505,-0.0,-0.0,-0.0,-0.0,-0.0,-0.0,-0.0,-0.0,-0.0,-0.0,-0.0,-0.0,-0.0,-0.0,-0.0,-0.0,-0.0,-0.0,0.3831,0.0,0.3167,0.2944,0.0,0.2812,0.2683,0.2553,0.2506,0.2079,0.1571,0.1767,0.1767,0.1767,0.1767,0.1678,0.1594,0.1594,0.1602,0.1617,0.1617,0.1617,0.1617,0.1617,0.1617,0.1617,0.1617,0.1617,0.1617,0.1617,0.1617,0.1617,0.1617,0.1617,0.1617,0.1617,0.1594,0.1549,0.1549,0.1534,0.1504,0.1488,0.1473,0.1457,0.0,0.0,0.0,0.0,0.0,0.0,0.0,0.0,0.0,0.0,0.0,0.1254,0.1242,0.1247,0.1276,0.1212,0.1227,0.1242,0.1366,0.1366,0.1388,0.133,0.1275,0.1388,0.1391,0.1416,0.1473,0.148,0.1492,0.1522,0.154,0.1549,0.1551,0.1575,0.1594,0.1595,0.1607,0.1617,0.1617,0.1617,0.1617,0.1617,0.1617,0.1618,0.1617,0.1617,0.1617,0.1617,0.1617,0.1617,0.1617,0.1414,0.0909,-0.0,-0.0,-0.0,-0.0,-0.0,-0.0,-0.0,-0.0,-0.0,-0.0,-0.0,-0.0,-0.0,-0.0,-0.0,-0.0,-0.0,-0.0,0.29,0.3223,0.268,0.2463,0.2462,0.2347,0.2237,0.2019,0.0,0.0,0.0,0.1633,0.1632,0.1632,0.1632,0.1633,0.1632,0.1632,0.1633,0.1633,0.1632,0.1633,0.1633,0.1633,0.163,0.1625,0.1624,0.1622,0.1617,0.1617,0.1617,0.1617,0.1617,0.1617,0.1617,0.1617,0.1605,0.1581,0.1579,0.1564,0.1534,0.151,0.1494,0.1489,0.1435,0.1406,0.1406,0.1373,0.1355,0.127,0.135,0.1348,0.1348,0.1324,0.1322,0.1344,0.1325,0.1324,0.1353,0.1276,0.1283,0.1292,0.1423,0.1428,0.1375,0.1376,0.1312,0.1447,0.1451,0.1474,0.1528,0.1534,0.1536,0.1542,0.1565,0.1579,0.1581,0.1607,0.1624,0.1625,0.163,0.1633,0.1635,0.1635,0.1633,0.1633,0.1637,0.1633,0.163,0.1625,0.1617,0.1617,0.1617,0.1617,0.1516,0.1516,0.1111,-0.0,-0.0,-0.0,-0.0,-0.0,-0.0,-0.0,-0.0,-0.0,-0.0,-0.0,-0.0,-0.0,-0.0,-0.0,-0.0,-0.0,-0.0,0.2784,0.2782,0.2412,0.2289,0.2177,0.193,0.1811,0.181,0.1695,0.1586,0.1586,0.1692,0.1692,0.1692,0.1692,0.1692,0.1692,0.1586,0.1586,0.0,0.1692,0.1692,0.1585,0.1692,0.1679,0.1657,0.1656,0.1642,0.1619,0.1617,0.1617,0.1617,0.1617,0.1617,0.1617,0.1617,0.1614,0.1611,0.1611,0.1596,0.1566,0.1561,0.1547,0.152,0.1486,0.1468,0.1375,0.1414,0.1384,0.1384,0.1361,0.1348,0.1348,0.1346,0.1343,0.1348,0.1344,0.1354,0.1383,0.132,0.1355,0.1401,0.1509,0.1499,0.1375,0.1486,0.1505,0.1513,0.1512,0.1528,0.156,0.1565,0.1575,0.1599,0.1607,0.1611,0.1612,0.1637,0.1656,0.1656,0.1677,0.1689,0.1687,0.1688,0.1687,0.169,0.1683,0.1689,0.168,0.1647,0.162,0.1617,0.1617,0.1415,0.1217,0.1314,0.1014,0.0202,-0.0,-0.0,-0.0,-0.0,-0.0,-0.0,-0.0,-0.0,-0.0,-0.0,-0.0,-0.0,-0.0,-0.0,-0.0,-0.0,-0.0,0.2356,0.2354,0.2114,0.1997,0.1994,0.1869,0.1753,0.1753,0.1753,0.1735,0.1705,0.1704,0.1704,0.1704,0.1704,0.1704,0.1704,0.1704,0.1704,0.1704,0.1704,0.1704,0.1598,0.1704,0.1697,0.1686,0.1684,0.167,0.1643,0.1642,0.1634,0.1618,0.1617,0.1617,0.1617,0.1617,0.1617,0.1617,0.1617,0.161,0.1596,0.158,0.1564,0.1551,0.1521,0.1506,0.1411,0.1386,0.1373,0.1372,0.1436,0.142,0.142,0.142,0.142,0.1421,0.1436,0.1451,0.1463,0.1384,0.1403,0.1524,0.1541,0.1545,0.1531,0.1528,0.1533,0.1548,0.1551,0.1563,0.1592,0.1596,0.1608,0.1639,0.1641,0.1647,0.1662,0.1675,0.1685,0.1686,0.1697,0.1706,0.1706,0.1706,0.1706,0.1707,0.1706,0.1706,0.1707,0.1685,0.1667,0.1666,0.1562,0.1562,0.1249,0.0833,0.052,-0.0,-0.0,-0.0,-0.0,-0.0,-0.0,-0.0,-0.0,-0.0,-0.0,-0.0,-0.0,-0.0,-0.0,-0.0,-0.0,-0.0,-0.0,0.1907,0.2131,0.1907,0.1795,0.1795,0.1795,0.1795,0.1795,0.1794,0.1768,0.1837,0.1832,0.1725,0.1725,0.1725,0.1725,0.1725,0.1725,0.1725,0.1725,0.1725,0.1725,0.1617,0.1725,0.1721,0.1822,0.1714,0.1699,0.1675,0.1672,0.1656,0.1629,0.162,0.1617,0.1617,0.1617,0.1617,0.1617,0.1617,0.1617,0.1616,0.1593,0.1581,0.1579,0.1552,0.1536,0.1536,0.1434,0.1431,0.143,0.141,0.1398,0.1398,0.1491,0.1491,0.1493,0.1513,0.153,0.1536,0.1536,0.1539,0.1547,0.1568,0.1581,0.158,0.156,0.1556,0.1577,0.1581,0.1594,0.1621,0.1627,0.1639,0.1667,0.1671,0.168,0.1701,0.171,0.1714,0.1715,0.1722,0.1729,0.1511,0.1511,0.1513,0.1514,0.1511,0.1511,0.1511,0.1619,0.1728,0.1725,0.161,0.1598,0.1494,0.0746,-0.0,-0.0,-0.0,-0.0,-0.0,-0.0,-0.0,-0.0,-0.0,-0.0,-0.0,-0.0,-0.0,-0.0,-0.0,-0.0,-0.0,-0.0,-0.0,0.1795,0.1795,0.1795,0.1795,0.1795,0.1795,0.1795,0.1795,0.1795,0.1793,0.1784,0.1787,0.1785,0.1787,0.1785,0.1783,0.1784,0.1787,0.1785,0.1784,0.1787,0.1786,0.1783,0.1785,0.1772,0.1748,0.1746,0.173,0.1701,0.1699,0.1685,0.1554,0.163,0.1618,0.1617,0.1617,0.1617,0.1617,0.1617,0.1617,0.1617,0.1614,0.1612,0.1613,0.1583,0.1567,0.1566,0.1541,0.1527,0.1526,0.1524,0.1522,0.1521,0.1521,0.1522,0.1521,0.1525,0.1538,0.1466,0.1469,0.1578,0.1605,0.1608,0.1611,0.1611,0.1609,0.1609,0.1612,0.1613,0.1626,0.1654,0.1658,0.1669,0.1697,0.1701,0.1703,0.1712,0.173,0.1745,0.1745,0.1765,0.1563,0.1223,0.1,0.1002,0.1,0.0999,0.0999,0.0999,0.1443,0.1778,0.1773,0.1636,0.1501,0.1391,0.0747,-0.0,-0.0,-0.0,-0.0,-0.0,-0.0,-0.0,-0.0,-0.0,-0.0,-0.0,-0.0,-0.0,-0.0,-0.0,-0.0,-0.0,-0.0,-0.0,0.1822,0.182,0.1802,0.1795,0.1795,0.1795,0.1795,0.1795,0.1795,0.1795,0.1795,0.1795,0.1795,0.1795,0.1795,0.1795,0.1795,0.1795,0.1795,0.1795,0.1795,0.1795,0.1795,0.1795,0.1788,0.1777,0.1777,0.1761,0.1732,0.1713,0.169,0.156,0.1546,0.1635,0.1618,0.1617,0.1617,0.1617,0.1617,0.1617,0.1617,0.1617,0.1617,0.1615,0.1605,0.1598,0.1597,0.1585,0.158,0.1579,0.1562,0.1553,0.1553,0.1553,0.1553,0.1554,0.157,0.1585,0.1598,0.1598,0.1603,0.1616,0.1617,0.1617,0.1618,0.1633,0.1644,0.1643,0.1644,0.1656,0.1682,0.1687,0.1699,0.1725,0.1731,0.1629,0.1208,0.1215,0.1221,0.1222,0.1564,0.1683,0.1346,0.0785,0.0448,0.0336,-0.0,-0.0,-0.0,0.1234,0.1795,0.1681,0.1219,0.0661,-0.0,0.033,-0.0,-0.0,-0.0,-0.0,-0.0,-0.0,-0.0,-0.0,-0.0,-0.0,-0.0,-0.0,-0.0,-0.0,-0.0,-0.0,-0.0,-0.0,-0.0,0.1847,0.1836,0.1807,0.1795,0.1795,0.1795,0.1795,0.1795,0.1795,0.1795,0.1795,0.1795,0.1795,0.1795,0.1795,0.1795,0.1795,0.1795,0.1795,0.1795,0.1795,0.1795,0.1795,0.1795,0.1795,0.1795,0.1794,0.1784,0.176,0.1731,0.1705,0.1688,0.1573,0.1555,0.1633,0.1629,0.1624,0.1618,0.1617,0.1617,0.1617,0.1617,0.1617,0.1617,0.1617,0.1617,0.1617,0.1617,0.1617,0.1616,0.1596,0.1584,0.1584,0.1584,0.1584,0.1585,0.1605,0.1617,0.1617,0.1617,0.1617,0.1617,0.1617,0.162,0.163,0.165,0.1669,0.1686,0.1686,0.1697,0.1712,0.1716,0.1729,0.1757,0.1761,0.155,0.1231,0.0897,0.0672,0.0673,0.1009,0.1346,0.1234,-0.0,-0.0,-0.0,-0.0,-0.0,-0.0,0.0785,0.1234,0.1234,0.0561,-0.0,-0.0,-0.0,-0.0,-0.0,-0.0,-0.0,-0.0,-0.0,-0.0,-0.0,-0.0,-0.0,-0.0,-0.0,-0.0,-0.0,-0.0,-0.0,-0.0,-0.0,-0.0,0.1866,0.1838,0.1808,0.1797,0.1795,0.1795,0.1795,0.1795,0.1795,0.1795,0.1795,0.1795,0.1795,0.1795,0.1795,0.1795,0.1795,0.1795,0.1795,0.1795,0.1795,0.1795,0.1795,0.1795,0.1795,0.1795,0.1795,0.1793,0.1789,0.1762,0.1747,0.1743,0.1716,0.1582,0.156,0.1556,0.1543,0.1623,0.162,0.1618,0.1617,0.1617,0.1617,0.1617,0.1617,0.1617,0.1617,0.1617,0.1617,0.1617,0.1614,0.1613,0.1614,0.1613,0.1613,0.1613,0.1615,0.1617,0.1617,0.1617,0.1617,0.1617,0.162,0.163,0.1654,0.1665,0.169,0.1738,0.174,0.1745,0.1747,0.1748,0.1759,0.1785,0.1791,0.1792,0.1682,0.0673,-0.0,-0.0,-0.0,-0.0,-0.0,-0.0,-0.0,-0.0,-0.0,-0.0,-0.0,-0.0,-0.0,-0.0,-0.0,-0.0,-0.0,-0.0,-0.0,-0.0,-0.0,-0.0,-0.0,-0.0,-0.0,-0.0,-0.0,-0.0,-0.0,-0.0,-0.0,-0.0,-0.0,-0.0,-0.0,-0.0,-0.0,0.1897,0.1867,0.1836,0.1824,0.1822,0.1804,0.1795,0.1795,0.1795,0.1795,0.1795,0.1795,0.1795,0.1795,0.1795,0.1795,0.1795,0.1795,0.1795,0.1795,0.1795,0.1795,0.1795,0.1795,0.1795,0.1795,0.1795,0.1795,0.1794,0.1784,0.1768,0.1751,0.1739,0.1718,0.1695,0.1689,0.157,0.1649,0.1646,0.1637,0.1619,0.1617,0.1617,0.1617,0.1617,0.1617,0.1617,0.1617,0.1617,0.1617,0.1617,0.1617,0.1617,0.1617,0.1617,0.1617,0.1617,0.1617,0.1617,0.1617,0.1617,0.1618,0.1635,0.165,0.1666,0.1696,0.1728,0.1748,0.177,0.1778,0.1779,0.1778,0.1782,0.1792,0.1795,0.1458,0.0785,-0.0,-0.0,-0.0,-0.0,-0.0,-0.0,-0.0,-0.0,-0.0,-0.0,-0.0,-0.0,-0.0,-0.0,-0.0,-0.0,-0.0,-0.0,-0.0,-0.0,-0.0,-0.0,-0.0,-0.0,-0.0,-0.0,-0.0,-0.0,-0.0,-0.0,-0.0,-0.0,-0.0,-0.0,-0.0,-0.0,-0.0,-0.0,0.1919,0.1896,0.1857,0.184,0.1837,0.1808,0.1795,0.1795,0.1795,0.1795,0.1795,0.1795,0.1795,0.1795,0.1795,0.1795,0.1795,0.1795,0.1795,0.1795,0.1795,0.1795,0.1795,0.1795,0.1795,0.1795,0.1795,0.1795,0.1795,0.1795,0.1784,0.1765,0.1765,0.1749,0.1832,0.1719,0.1705,0.1682,0.1676,0.1661,0.1635,0.1631,0.1626,0.1618,0.1617,0.1617,0.1617,0.1617,0.1617,0.1617,0.1617,0.1617,0.1617,0.1617,0.1617,0.1617,0.1617,0.1617,0.1619,0.1626,0.1632,0.1633,0.1658,0.1678,0.1691,0.1727,0.175,0.1766,0.178,0.1795,0.157,0.1682,0.1795,0.1683,0.1458,0.0897,-0.0,-0.0,-0.0,-0.0,-0.0,-0.0,-0.0,-0.0,-0.0,-0.0,-0.0,-0.0,-0.0,-0.0,-0.0,-0.0,-0.0,-0.0,-0.0,-0.0,-0.0,-0.0,-0.0,-0.0,-0.0,-0.0,-0.0,-0.0,-0.0,-0.0,-0.0,-0.0,-0.0,-0.0,-0.0,-0.0,-0.0,-0.0,-0.0,0.1932,0.1923,0.1867,0.1846,0.1841,0.1812,0.1796,0.1795,0.1795,0.1795,0.1795,0.1795,0.1795,0.1795,0.1795,0.1795,0.1795,0.1795,0.1795,0.1795,0.1795,0.1795,0.1795,0.1795,0.1795,0.1795,0.1795,0.1795,0.1795,0.1795,0.1793,0.1793,0.1791,0.1776,0.175,0.1749,0.1735,0.1712,0.1705,0.169,0.1666,0.1662,0.165,0.1626,0.1622,0.1621,0.162,0.1618,0.1617,0.1617,0.1617,0.1617,0.1617,0.1617,0.1617,0.1617,0.1618,0.1618,0.1622,0.1543,0.1559,0.1666,0.1688,0.1714,0.1735,0.1748,0.1764,0.1785,0.1792,0.157,0.1234,0.1458,0.1683,0.1683,-0.0,-0.0,-0.0,-0.0,-0.0,-0.0,-0.0,-0.0,-0.0,-0.0,-0.0,-0.0,-0.0,-0.0,-0.0,-0.0,-0.0,-0.0,-0.0,-0.0,-0.0,-0.0,-0.0,-0.0,-0.0,-0.0,-0.0,-0.0,-0.0,-0.0,-0.0,-0.0,-0.0,-0.0,-0.0,-0.0,-0.0,-0.0,-0.0,-0.0,-0.0,0.1962,0.1958,0.1919,0.189,0.1869,0.1839,0.1815,0.1795,0.1795,0.1795,0.1795,0.1795,0.1795,0.1795,0.1795,0.1795,0.1795,0.1795,0.1795,0.1795,0.1795,0.1795,0.1795,0.1795,0.1795,0.1795,0.1795,0.1795,0.1795,0.1795,0.1795,0.1795,0.1795,0.1791,0.178,0.178,0.1765,0.1739,0.1735,0.1721,0.1694,0.1691,0.1686,0.1676,0.1658,0.1647,0.1647,0.1628,0.1618,0.1617,0.1617,0.1617,0.1617,0.1617,0.1617,0.162,0.1638,0.1648,0.1652,0.1569,0.1692,0.1697,0.1718,0.1737,0.1751,0.1769,0.1783,0.1794,0.1795,0.1683,0.157,0.1683,0.1458,-0.0,-0.0,-0.0,-0.0,-0.0,-0.0,-0.0,-0.0,-0.0,-0.0,-0.0,-0.0,-0.0,-0.0,-0.0,-0.0,-0.0,-0.0,-0.0,-0.0,-0.0,-0.0,-0.0,-0.0,-0.0,-0.0,-0.0,-0.0,-0.0,-0.0,-0.0,-0.0,-0.0,-0.0,-0.0,-0.0,-0.0,-0.0,-0.0,-0.0,-0.0,-0.0,0.1977,0.1973,0.1943,0.1913,0.1883,0.1853,0.1823,0.1797,0.1795,0.1795,0.1795,0.1795,0.1795,0.1795,0.1795,0.1795,0.1795,0.1795,0.1795,0.1795,0.1795,0.1795,0.1795,0.1795,0.1795,0.1795,0.1795,0.1795,0.1795,0.1795,0.1795,0.1795,0.1795,0.1795,0.1795,0.1794,0.1784,0.1768,0.1766,0.1752,0.1727,0.1721,0.1716,0.1703,0.1687,0.1678,0.1677,0.1658,0.1536,0.1622,0.1617,0.1617,0.1618,0.1626,0.1634,0.1639,0.1659,0.1678,0.1681,0.1598,0.1721,0.1834,0.1749,0.1766,0.177,0.1787,0.1794,0.1795,0.157,0.157,0.1683,0.1346,0.0785,-0.0,-0.0,-0.0,-0.0,-0.0,-0.0,-0.0,-0.0,-0.0,-0.0,-0.0,-0.0,-0.0,-0.0,-0.0,-0.0,-0.0,-0.0,-0.0,-0.0,-0.0,-0.0,-0.0,-0.0,-0.0,-0.0,-0.0,-0.0,-0.0,-0.0,-0.0,-0.0,-0.0,-0.0,-0.0,-0.0,-0.0,-0.0,-0.0,-0.0,-0.0,-0.0,0.1977,0.1973,0.1946,0.1916,0.1884,0.1857,0.1827,0.1797,0.1795,0.1795,0.1795,0.1795,0.1795,0.1795,0.1795,0.1795,0.1795,0.1795,0.1795,0.1795,0.1795,0.1795,0.1795,0.1795,0.1795,0.1795,0.1795,0.1795,0.1795,0.1795,0.1795,0.1795,0.1795,0.1795,0.1795,0.1795,0.1794,0.1791,0.1792,0.1777,0.1754,0.1752,0.1741,0.1716,0.171,0.1707,0.1706,0.1592,0.1569,0.1631,0.1629,0.163,0.1629,0.165,0.1665,0.1666,0.1691,0.1705,0.1713,0.1735,0.1752,0.1755,0.1774,0.1795,0.1791,0.1792,0.1795,0.1795,0.1346,0.1121,0.1346,0.0785,-0.0,-0.0,-0.0,-0.0,-0.0,-0.0,-0.0,-0.0,-0.0,-0.0,-0.0,-0.0,-0.0,-0.0,-0.0,-0.0,-0.0,-0.0,-0.0,-0.0,-0.0,-0.0,-0.0,-0.0,-0.0,-0.0,-0.0,-0.0,-0.0,-0.0,-0.0,-0.0,-0.0,-0.0,-0.0,-0.0,-0.0,-0.0,-0.0,-0.0,-0.0,-0.0,-0.0,0.1977,0.1976,0.1968,0.1934,0.1889,0.1877,0.1843,0.1798,0.1795,0.1795,0.1795,0.1795,0.1795,0.1795,0.1795,0.1795,0.1795,0.1795,0.1795,0.1795,0.1795,0.1795,0.1795,0.1795,0.1795,0.1795,0.1795,0.1795,0.1795,0.1795,0.1795,0.1795,0.1795,0.1795,0.1795,0.1795,0.1795,0.1795,0.1795,0.1792,0.1785,0.1781,0.178,0.1772,0.1749,0.1739,0.1735,0.1716,0.17,0.1684,0.1681,0.1682,0.1679,0.1688,0.1694,0.1698,0.172,0.1737,0.1743,0.1765,0.1781,0.1782,0.1789,0.1795,0.1795,0.1795,0.1795,0.1683,0.1234,0.0785,0.0561,-0.0,-0.0,-0.0,-0.0,-0.0,-0.0,-0.0,-0.0,-0.0,-0.0,-0.0,-0.0,-0.0,-0.0,-0.0,-0.0,-0.0,-0.0,-0.0,-0.0,-0.0,-0.0,-0.0,-0.0,-0.0,-0.0,-0.0,-0.0,-0.0,-0.0,-0.0,-0.0,-0.0,-0.0,-0.0,-0.0,-0.0,-0.0,-0.0,-0.0,-0.0,-0.0,-0.0,-0.0,0.1977,0.1975,0.1962,0.193,0.1886,0.1872,0.1839,0.1801,0.1795,0.1795,0.1795,0.1795,0.1795,0.1795,0.1795,0.1795,0.1795,0.1795,0.1795,0.1795,0.1795,0.1795,0.1795,0.1795,0.1795,0.1795,0.1795,0.1795,0.1795,0.1795,0.1795,0.1795,0.1795,0.1795,0.1795,0.1795,0.1795,0.1795,0.1795,0.1795,0.1795,0.1795,0.1794,0.1793,0.1776,0.1769,0.1766,0.1752,0.1733,0.1712,0.1703,0.1704,0.1705,0.1718,0.1722,0.1725,0.1752,0.1769,0.1771,0.1786,0.1794,0.1795,0.1795,0.1795,0.1795,0.1795,0.1795,0.1795,0.1234,0.0673,-0.0,-0.0,-0.0,-0.0,-0.0,-0.0,-0.0,-0.0,-0.0,-0.0,-0.0,-0.0,-0.0,-0.0,-0.0,-0.0,-0.0,-0.0,-0.0,-0.0,-0.0,-0.0,-0.0,-0.0,-0.0,-0.0,-0.0,-0.0,-0.0,-0.0,-0.0,-0.0,-0.0,-0.0,-0.0,-0.0,-0.0,-0.0,-0.0,-0.0,-0.0,-0.0,-0.0,0.1009,0.157,0.1977,0.1975,0.1944,0.1913,0.1883,0.1853,0.1825,0.1799,0.1795,0.1795,0.1795,0.1795,0.1795,0.1795,0.1795,0.1795,0.1795,0.1795,0.1795,0.1795,0.1795,0.1795,0.1795,0.1795,0.1795,0.1795,0.1795,0.1795,0.1795,0.1795,0.1795,0.1795,0.1795,0.1795,0.1795,0.1795,0.1795,0.1795,0.1795,0.1795,0.1795,0.1795,0.1795,0.1794,0.1793,0.179,0.1791,0.1787,0.1769,0.1824,0.1821,0.172,0.1721,0.1742,0.1752,0.1757,0.1776,0.1791,0.1793,0.1793,0.1795,0.1795,0.1795,0.1795,0.1795,0.1795,0.1795,0.1795,0.1346,0.0785,-0.0,-0.0,-0.0,-0.0,-0.0,-0.0,-0.0,-0.0,-0.0,-0.0,-0.0,-0.0,-0.0,-0.0,-0.0,-0.0,-0.0,-0.0,-0.0,-0.0,-0.0,-0.0,-0.0,-0.0,-0.0,-0.0,-0.0,-0.0,-0.0,-0.0,-0.0,-0.0,-0.0,-0.0,-0.0,-0.0,-0.0,-0.0,-0.0,-0.0,-0.0,-0.0,0.1458,0.1458,0.1795,0.1977,0.1974,0.1943,0.1913,0.1883,0.1853,0.1822,0.1795,0.1795,0.1795,0.1795,0.1795,0.1795,0.1795,0.1795,0.1795,0.1795,0.1795,0.1795,0.1795,0.1795,0.1795,0.1795,0.1795,0.1795,0.1795,0.1795,0.1795,0.1795,0.1795,0.1795,0.1795,0.1795,0.1795,0.1795,0.1795,0.1795,0.1795,0.1795,0.1795,0.1795,0.1795,0.1795,0.1795,0.1795,0.1795,0.1795,0.1795,0.1788,0.1779,0.1773,0.1767,0.177,0.1778,0.1782,0.1783,0.1788,0.1795,0.1795,0.1795,0.1795,0.1795,0.1795,0.1795,0.1795,0.1795,0.1795,0.1795,0.1683,0.1121,-0.0,-0.0,-0.0,-0.0,-0.0,-0.0,-0.0,-0.0,-0.0,-0.0,-0.0,-0.0,-0.0,-0.0,-0.0,-0.0,-0.0,-0.0,-0.0,-0.0,-0.0,-0.0,-0.0,-0.0,-0.0,-0.0,-0.0,-0.0,-0.0,-0.0,-0.0,-0.0,-0.0,-0.0,-0.0,-0.0,-0.0,-0.0,-0.0,-0.0,0.0673,0.1234,0.157,0.1683,0.1801,0.1969,0.1953,0.1923,0.1892,0.1862,0.1832,0.181,0.1797,0.1795,0.1795,0.1795,0.1795,0.1795,0.1795,0.1795,0.1795,0.1795,0.1795,0.1795,0.1795,0.1795,0.1795,0.1795,0.1795,0.1795,0.1795,0.1795,0.1795,0.1795,0.1795,0.1795,0.1795,0.1795,0.1795,0.1795,0.1795,0.1795,0.1795,0.1795,0.1795,0.1795,0.1795,0.1795,0.1795,0.1795,0.1795,0.1795,0.1795,0.1795,0.1795,0.1795,0.1795,0.1795,0.1795,0.1795,0.1795,0.1795,0.1795,0.1795,0.1795,0.1795,0.1795,0.1795,0.1795,0.1795,0.1795,0.157,0.157,0.1458,-0.0,-0.0,-0.0,-0.0,-0.0,-0.0,-0.0,-0.0,-0.0,-0.0,-0.0,-0.0,-0.0,-0.0,-0.0,-0.0,-0.0,-0.0,-0.0,-0.0,-0.0,-0.0,-0.0,-0.0,-0.0,-0.0,-0.0,-0.0,-0.0,-0.0,-0.0,-0.0,-0.0,-0.0,-0.0,-0.0,-0.0,-0.0,-0.0,0.0673,0.1009,0.1346,0.157,0.1687,0.1809,0.1817,0.1955,0.1928,0.1894,0.1864,0.1838,0.1809,0.1796,0.1795,0.1795,0.1795,0.1795,0.1795,0.1795,0.1795,0.1795,0.1795,0.1795,0.1795,0.1795,0.1795,0.1795,0.1795,0.1795,0.1795,0.1795,0.1795,0.1795,0.1795,0.1795,0.1795,0.1795,0.1795,0.1795,0.1795,0.1795,0.1795,0.1795,0.1795,0.1795,0.1795,0.1795,0.1795,0.1795,0.1795,0.1795,0.1795,0.1795,0.1795,0.1795,0.1795,0.1795,0.1795,0.1795,0.1795,0.1795,0.1795,0.1795,0.1795,0.1795,0.1795,0.1795,0.1795,0.1795,0.1795,0.1795,0.1795,0.157,0.1234,0.1121,-0.0,-0.0,-0.0,-0.0,-0.0,-0.0,-0.0,-0.0,-0.0,-0.0,-0.0,-0.0,-0.0,-0.0,-0.0,-0.0,-0.0,-0.0,-0.0,-0.0,-0.0,-0.0,-0.0,-0.0,-0.0,-0.0,-0.0,-0.0,-0.0,-0.0,-0.0,-0.0,-0.0,-0.0,-0.0,-0.0,-0.0,-0.0,-0.0,0.1346,0.1683,0.1685,0.1686,0.1697,0.1824,0.1835,0.1936,0.1926,0.1871,0.1844,0.1836,0.1808,0.1795,0.1795,0.1795,0.1795,0.1795,0.1795,0.1795,0.1795,0.1795,0.1795,0.1795,0.1795,0.1795,0.1795,0.1795,0.1795,0.1795,0.1795,0.1795,0.1795,0.1795,0.1795,0.1795,0.1795,0.1795,0.1795,0.1795,0.1795,0.1795,0.1795,0.1795,0.1795,0.1795,0.1795,0.1795,0.1795,0.1795,0.1795,0.1795,0.1795,0.1795,0.1795,0.1795,0.1795,0.1795,0.1795,0.1795,0.1795,0.1795,0.1795,0.1795,0.1795,0.1795,0.1795,0.1795,0.1795,0.1795,0.1795,0.1795,0.1795,0.1458,0.0897,-0.0,-0.0,-0.0,-0.0,-0.0,-0.0,-0.0,-0.0,-0.0,-0.0,-0.0,-0.0,-0.0,-0.0,-0.0,-0.0,-0.0,-0.0,-0.0,-0.0,-0.0,-0.0,-0.0,-0.0,-0.0,-0.0,-0.0,-0.0,-0.0,-0.0,-0.0,-0.0,-0.0,-0.0,-0.0,-0.0,-0.0,-0.0,-0.0,0.1579,0.1694,0.1702,0.1698,0.1693,0.1828,0.1851,0.1862,0.1913,0.1882,0.1852,0.1831,0.1816,0.1802,0.1795,0.1795,0.1795,0.1795,0.1795,0.1795,0.1795,0.1795,0.1795,0.1795,0.1795,0.1795,0.1795,0.1795,0.1795,0.1795,0.1795,0.1795,0.1795,0.1795,0.1795,0.1795,0.1795,0.1795,0.1795,0.1795,0.1795,0.1795,0.1795,0.1795,0.1795,0.1795,0.1795,0.1795,0.1795,0.1795,0.1795,0.1795,0.1795,0.1795,0.1795,0.1795,0.1795,0.1795,0.1795,0.1795,0.1795,0.1795,0.1795,0.1795,0.1795,0.1795,0.1795,0.1795,0.1795,0.1795,0.1795,0.1795,0.1795,0.1683,0.1346,-0.0,-0.0,-0.0,-0.0,-0.0,-0.0,-0.0,-0.0,-0.0,-0.0,-0.0,-0.0,-0.0,-0.0,-0.0,-0.0,-0.0,-0.0,-0.0,-0.0,-0.0,-0.0,-0.0,-0.0,-0.0,-0.0,-0.0,-0.0,-0.0,-0.0,-0.0,-0.0,-0.0,-0.0,-0.0,-0.0,-0.0,-0.0,-0.0,0.1382,0.1851,0.1844,0.1839,0.1843,0.1849,0.1862,0.1876,0.1888,0.1885,0.184,0.1834,0.1817,0.1797,0.1795,0.1795,0.1795,0.1795,0.1795,0.1795,0.1795,0.1795,0.1795,0.1795,0.1795,0.1795,0.1795,0.1795,0.1795,0.1795,0.1795,0.1795,0.1795,0.1795,0.1795,0.1795,0.1795,0.1795,0.1795,0.1795,0.1795,0.1795,0.1795,0.1795,0.1795,0.1795,0.1795,0.1795,0.1795,0.1795,0.1795,0.1795,0.1795,0.1795,0.1795,0.1795,0.1795,0.1795,0.1795,0.1795,0.1795,0.1795,0.1795,0.1795,0.1795,0.1795,0.1795,0.1795,0.1795,0.1795,0.1795,0.1795,0.1795,0.1795,0.1683,-0.0,-0.0,-0.0,-0.0,-0.0,-0.0,-0.0,-0.0,-0.0,-0.0,-0.0,-0.0,-0.0,-0.0,-0.0,-0.0,-0.0,-0.0,-0.0,-0.0,-0.0,-0.0,-0.0,-0.0,-0.0,-0.0,-0.0,-0.0,-0.0,-0.0,-0.0,-0.0,-0.0,-0.0,-0.0,-0.0,-0.0,-0.0,-0.0,0.1308,0.1663,0.1886,0.1872,0.1867,0.188,0.1889,0.1896,0.1905,0.1917,0.1847,0.1838,0.1811,0.1798,0.1795,0.1795,0.1795,0.1795,0.1795,0.1795,0.1795,0.1795,0.1795,0.1795,0.1795,0.1795,0.1795,0.1795,0.1795,0.1795,0.1795,0.1795,0.1795,0.1795,0.1795,0.1795,0.1795,0.1795,0.1795,0.1795,0.1795,0.1795,0.1795,0.1795,0.1795,0.1795,0.1795,0.1795,0.1795,0.1795,0.1795,0.1795,0.1795,0.1795,0.1795,0.1795,0.1795,0.1795,0.1795,0.1795,0.1795,0.1795,0.1795,0.1795,0.1795,0.1795,0.1795,0.1795,0.1795,0.1795,0.1795,0.1795,0.1795,0.1795,0.1795,0.1795,-0.0,-0.0,-0.0,-0.0,-0.0,-0.0,-0.0,-0.0,-0.0,-0.0,-0.0,-0.0,-0.0,-0.0,-0.0,-0.0,-0.0,-0.0,-0.0,-0.0,-0.0,-0.0,-0.0,-0.0,-0.0,-0.0,-0.0,-0.0,-0.0,-0.0,-0.0,-0.0,-0.0,-0.0,-0.0,-0.0,-0.0,-0.0,0.1344,0.1456,0.18,0.1904,0.1892,0.1896,0.1909,0.1917,0.1924,0.1934,0.1945,0.1814,0.1813,0.1801,0.1795,0.1795,0.1795,0.1795,0.1795,0.1795,0.1795,0.1795,0.1795,0.1795,0.1795,0.1795,0.1795,0.1795,0.1795,0.1795,0.1795,0.1795,0.1795,0.1795,0.1795,0.1795,0.1795,0.1795,0.1795,0.1795,0.1795,0.1795,0.1795,0.1795,0.1795,0.1795,0.1795,0.1795,0.1795,0.1795,0.1795,0.1795,0.1795,0.1795,0.1795,0.1795,0.1795,0.1795,0.1795,0.1795,0.1795,0.1795,0.1795,0.1795,0.1795,0.1795,0.1795,0.1795,0.1795,0.1795,0.1795,0.1795,0.1795,0.1795,0.1795,0.1795,0.1795,0.1458,-0.0,-0.0,-0.0,-0.0,-0.0,-0.0,-0.0,-0.0,-0.0,-0.0,-0.0,-0.0,-0.0,-0.0,-0.0,-0.0,-0.0,-0.0,-0.0,-0.0,-0.0,-0.0,-0.0,-0.0,-0.0,-0.0,-0.0,-0.0,-0.0,-0.0,-0.0,-0.0,-0.0,-0.0,-0.0,0.1234,0.1606,0.1723,0.1831,0.1934,0.1934,0.1933,0.1935,0.1938,0.1943,0.1949,0.1955,0.1964,0.1795,0.1795,0.1795,0.1795,0.1795,0.1795,0.1795,0.1795,0.1795,0.1795,0.1795,0.1795,0.1795,0.1795,0.1795,0.1795,0.1795,0.1795,0.1795,0.1795,0.1795,0.1795,0.1795,0.1795,0.1795,0.1795,0.1795,0.1795,0.1795,0.1795,0.1795,0.1795,0.1795,0.1795,0.1795,0.1795,0.1795,0.1795,0.1795,0.1795,0.1795,0.1795,0.1795,0.1795,0.1795,0.1795,0.1795,0.1795,0.1795,0.1795,0.1795,0.1795,0.1795,0.1795,0.1795,0.1795,0.1795,0.1795,0.1795,0.1795,0.1795,0.1795,0.1795,0.1795,0.1795,0.1795,0.157,0.0897,0.0339,-0.0,-0.0,-0.0,-0.0,-0.0,-0.0,-0.0,-0.0,-0.0,-0.0,-0.0,-0.0,-0.0,-0.0,-0.0,-0.0,-0.0,-0.0,-0.0,-0.0,-0.0,-0.0,-0.0,-0.0,-0.0,-0.0,-0.0,-0.0,-0.0,-0.0,-0.0,-0.0,0.1105,0.1729,0.1977,0.1975,0.1971,0.1956,0.1967,0.1976,0.1965,0.1958,0.1967,0.1973,0.1977,0.1977,0.1795,0.1795,0.1795,0.1795,0.1795,0.1795,0.1795,0.1795,0.1795,0.1795,0.1795,0.1795,0.1795,0.1795,0.1795,0.1795,0.1795,0.1795,0.1795,0.1795,0.1795,0.1795,0.1795,0.1795,0.1795,0.1795,0.1795,0.1795,0.1795,0.1795,0.1795,0.1795,0.1795,0.1795,0.1795,0.1795,0.1795,0.1795,0.1795,0.1795,0.1795,0.1795,0.1795,0.1795,0.1795,0.1795,0.1795,0.1795,0.1795,0.1795,0.1795,0.1795,0.1795,0.1795,0.1795,0.1795,0.1795,0.1795,0.1795,0.1795,0.1795,0.1795,0.1795,0.1795,0.1795,0.1795,0.1458,0.1011,0.0453,-0.0,-0.0,-0.0,-0.0,-0.0,-0.0,-0.0,-0.0,-0.0,-0.0,-0.0,-0.0,-0.0,-0.0,-0.0,-0.0,-0.0,-0.0,-0.0,-0.0,-0.0,-0.0,-0.0,-0.0,-0.0,-0.0,-0.0,-0.0,-0.0,-0.0,-0.0,-0.0,0.1945,0.1966,0.1971,0.1969,0.1973,0.1977,0.1977,0.1977,0.1977,0.1977,0.1977,0.1977,0.1977,0.1977,0.1795,0.1795,0.1795,0.1795,0.1795,0.1795,0.1795,0.1795,0.1795,0.1795,0.1795,0.1795,0.1795,0.1795,0.1795,0.1795,0.1795,0.1795,0.1795,0.1795,0.1795,0.1795,0.1795,0.1795,0.1795,0.1795,0.1795,0.1795,0.1795,0.1795,0.1795,0.1795,0.1795,0.1795,0.1795,0.1795,0.1795,0.1795,0.1795,0.1795,0.1795,0.1795,0.1795,0.1795,0.1795,0.1795,0.1795,0.1795,0.1795,0.1795,0.1795,0.1795,0.1795,0.1795,0.1795,0.1795,0.1795,0.1795,0.1795,0.1795,0.1795,0.1795,0.1795,0.1795,0.1795,0.1795,0.1683,0.124,0.057,-0.0,-0.0,-0.0,-0.0,-0.0,-0.0,-0.0,-0.0,-0.0,-0.0,-0.0,-0.0,-0.0,-0.0,-0.0,-0.0,-0.0,-0.0,-0.0,-0.0,-0.0,-0.0,-0.0,-0.0,-0.0,-0.0,-0.0,-0.0,-0.0,-0.0,-0.0,0.1664,0.1927,0.1945,0.1953,0.1964,0.197,0.1974,0.1976,0.1977,0.1977,0.1977,0.1977,0.1977,0.1977,0.1977,0.1795,0.1795,0.1795,0.1795,0.1795,0.1795,0.1795,0.1795,0.1795,0.1795,0.1795,0.1795,0.1795,0.1795,0.1795,0.1795,0.1795,0.1795,0.1795,0.1795,0.1795,0.1795,0.1795,0.1795,0.1795,0.1795,0.1795,0.1795,0.1795,0.1795,0.1795,0.1795,0.1795,0.1795,0.1795,0.1795,0.1795,0.1795,0.1795,0.1795,0.1795,0.1795,0.1795,0.1795,0.1795,0.1795,0.1795,0.1795,0.1795,0.1795,0.1795,0.1795,0.1795,0.1795,0.1795,0.1795,0.1795,0.1795,0.1795,0.1795,0.1795,0.1795,0.1795,0.1795,0.1795,0.1795,0.1797,0.17,0.1033,-0.0,-0.0,-0.0,-0.0,-0.0,-0.0,-0.0,-0.0,-0.0,-0.0,-0.0,-0.0,-0.0,-0.0,-0.0,-0.0,-0.0,-0.0,-0.0,-0.0,-0.0,-0.0,-0.0,-0.0,-0.0,-0.0,-0.0,-0.0,-0.0,-0.0,-0.0,0.1406,0.1782,0.1926,0.1939,0.1951,0.1964,0.1972,0.1976,0.1977,0.1977,0.1977,0.1977,0.1977,0.1977,0.1977,0.1795,0.1795,0.1795,0.1795,0.1795,0.1795,0.1795,0.1795,0.1795,0.1795,0.1795,0.1795,0.1795,0.1795,0.1795,0.1795,0.1795,0.1795,0.1795,0.1795,0.1795,0.1795,0.1795,0.1795,0.1795,0.1795,0.1795,0.1795,0.1795,0.1795,0.1795,0.1795,0.1795,0.1795,0.1795,0.1795,0.1795,0.1795,0.1795,0.1795,0.1795,0.1795,0.1795,0.1795,0.1795,0.1795,0.1795,0.1795,0.1795,0.1795,0.1795,0.1795,0.1795,0.1795,0.1795,0.1795,0.1795,0.1795,0.1795,0.1795,0.1795,0.1795,0.1795,0.1795,0.1795,0.1797,0.1807,0.1711,0.1511,0.1064,-0.0,-0.0,-0.0,-0.0,-0.0,-0.0,-0.0,-0.0,-0.0,-0.0,-0.0,-0.0,-0.0,-0.0,-0.0,-0.0,-0.0,-0.0,-0.0,-0.0,-0.0,-0.0,-0.0,-0.0,-0.0,-0.0,-0.0,-0.0,0.068,0.1143,0.1387,0.1642,0.1781,0.1922,0.1945,0.1964,0.1972,0.1977,0.1977,0.1977,0.1977,0.1977,0.1977,0.1977,0.1977,0.1795,0.1795,0.1795,0.1795,0.1795,0.1795,0.1795,0.1795,0.1795,0.1795,0.1795,0.1795,0.1795,0.1795,0.1795,0.1795,0.1795,0.1795,0.1795,0.1795,0.1795,0.1795,0.1795,0.1795,0.1795,0.1795,0.1795,0.1795,0.1795,0.1795,0.1795,0.1795,0.1795,0.1795,0.1795,0.1795,0.1795,0.1795,0.1795,0.1795,0.1795,0.1795,0.1795,0.1795,0.1795,0.1795,0.1795,0.1795,0.1795,0.1795,0.1795,0.1795,0.1795,0.1795,0.1795,0.1795,0.1795,0.1795,0.1795,0.1795,0.1795,0.1795,0.1795,0.1795,0.1795,0.1795,0.1812,0.1838,0.1869,0.1543,-0.0,-0.0,-0.0,-0.0,-0.0,-0.0,-0.0,-0.0,-0.0,-0.0,-0.0,-0.0,-0.0,-0.0,-0.0,-0.0,-0.0,-0.0,-0.0,-0.0,-0.0,-0.0,-0.0,-0.0,-0.0,-0.0,-0.0,-0.0,0.1017,0.1579,0.1713,0.1745,0.1766,0.191,0.1939,0.1964,0.1971,0.1977,0.1977,0.1977,0.1977,0.1977,0.1977,0.1977,0.1977,0.1795,0.1795,0.1795,0.1795,0.1795,0.1795,0.1795,0.1795,0.1795,0.1795,0.1795,0.1795,0.1795,0.1795,0.1795,0.1795,0.1795,0.1795,0.1795,0.1795,0.1795,0.1795,0.1795,0.1795,0.1795,0.1795,0.1795,0.1795,0.1795,0.1795,0.1795,0.1795,0.1795,0.1795,0.1795,0.1795,0.1795,0.1795,0.1795,0.1795,0.1795,0.1795,0.1795,0.1795,0.1795,0.1795,0.1795,0.1795,0.1795,0.1795,0.1795,0.1795,0.1795,0.1795,0.1795,0.1795,0.1795,0.1795,0.1795,0.1795,0.1795,0.1795,0.1795,0.1795,0.1795,0.1795,0.1822,0.1849,0.1874,0.1908,0.1819,0.0738,-0.0,-0.0,-0.0,-0.0,-0.0,-0.0,-0.0,-0.0,-0.0,-0.0,-0.0,-0.0,-0.0,-0.0,-0.0,-0.0,-0.0,-0.0,-0.0,-0.0,-0.0,-0.0,-0.0,-0.0,-0.0,-0.0,0.1138,0.1704,0.1836,0.1874,0.1886,0.19,0.193,0.1955,0.1971,0.1977,0.1977,0.1977,0.1977,0.1977,0.1977,0.1977,0.1977,0.1795,0.1795,0.1795,0.1795,0.1795,0.1795,0.1795,0.1795,0.1795,0.1795,0.1795,0.1795,0.1795,0.1795,0.1795,0.1795,0.1795,0.1795,0.1795,0.1795,0.1795,0.1795,0.1795,0.1795,0.1795,0.1795,0.1795,0.1795,0.1795,0.1795,0.1795,0.1795,0.1795,0.1795,0.1795,0.1795,0.1795,0.1795,0.1795,0.1795,0.1795,0.1795,0.1795,0.1795,0.1795,0.1795,0.1795,0.1795,0.1795,0.1795,0.1795,0.1795,0.1795,0.1795,0.1795,0.1795,0.1795,0.1795,0.1795,0.1795,0.1795,0.1795,0.1795,0.1795,0.1797,0.1802,0.1832,0.1863,0.1891,0.1928,0.184,0.1723,-0.0,-0.0,-0.0,-0.0,-0.0,-0.0,-0.0,-0.0,-0.0,-0.0,-0.0,-0.0,-0.0,-0.0,-0.0,-0.0,-0.0,-0.0,-0.0,-0.0,-0.0,-0.0,-0.0,-0.0,-0.0,-0.0,0.1164,0.163,0.1761,0.1886,0.1901,0.1915,0.1928,0.1946,0.1968,0.1977,0.1977,0.1977,0.1977,0.1977,0.1977,0.1977,0.1977,0.1795,0.1795,0.1795,0.1795,0.1795,0.1795,0.1795,0.1795,0.1795,0.1795,0.1795,0.1795,0.1795,0.1795,0.1795,0.1795,0.1795,0.1795,0.1795,0.1795,0.1795,0.1795,0.1795,0.1795,0.1795,0.1795,0.1795,0.1795,0.1795,0.1795,0.1795,0.1795,0.1795,0.1795,0.1795,0.1795,0.1795,0.1795,0.1795,0.1795,0.1795,0.1795,0.1795,0.1795,0.1795,0.1795,0.1795,0.1795,0.1795,0.1795,0.1795,0.1795,0.1795,0.1795,0.1795,0.1795,0.1795,0.1795,0.1795,0.1795,0.1795,0.1795,0.1795,0.1795,0.18,0.1815,0.1842,0.1872,0.1903,0.1938,0.1963,0.1973,0.1853,0.1606,0.1112,-0.0,-0.0,-0.0,-0.0,-0.0,-0.0,-0.0,-0.0,-0.0,-0.0,-0.0,-0.0,-0.0,-0.0,-0.0,-0.0,-0.0,-0.0,-0.0,-0.0,-0.0,-0.0,0.1529,0.1538,0.1543,0.178,0.1907,0.1919,0.1932,0.1945,0.1958,0.1972,0.1976,0.1977,0.1977,0.1977,0.1977,0.1977,0.1977,0.1977,0.1795,0.1795,0.1795,0.1795,0.1795,0.1795,0.1795,0.1795,0.1795,0.1795,0.1795,0.1795,0.1795,0.1795,0.1795,0.1795,0.1795,0.1795,0.1795,0.1795,0.1795,0.1795,0.1795,0.1795,0.1795,0.1795,0.1795,0.1795,0.1795,0.1795,0.1795,0.1795,0.1795,0.1795,0.1795,0.1795,0.1795,0.1795,0.1795,0.1795,0.1795,0.1795,0.1795,0.1795,0.1795,0.1795,0.1795,0.1795,0.1795,0.1795,0.1795,0.1795,0.1795,0.1795,0.1795,0.1795,0.1795,0.1795,0.1795,0.1795,0.1795,0.1795,0.1795,0.1795,0.1805,0.1821,0.1851,0.1881,0.1912,0.1941,0.196,0.1977,0.1977,0.1977,0.173,0.1606,-0.0,-0.0,-0.0,-0.0,-0.0,-0.0,-0.0,-0.0,-0.0,-0.0,-0.0,-0.0,-0.0,-0.0,-0.0,-0.0,-0.0,-0.0,-0.0,-0.0,-0.0,0.1323,0.169,0.1814,0.1926,0.193,0.1946,0.1956,0.1963,0.1971,0.1976,0.1977,0.1977,0.1977,0.1977,0.1977,0.1977,0.1977,0.1977,0.1795,0.1795,0.1795,0.1795,0.1795,0.1795,0.1795,0.1795,0.1795,0.1795,0.1795,0.1795,0.1795,0.1795,0.1795,0.1795,0.1795,0.1795,0.1795,0.1795,0.1795,0.1795,0.1795,0.1795,0.1795,0.1795,0.1795,0.1795,0.1795,0.1795,0.1795,0.1795,0.1795,0.1795,0.1795,0.1795,0.1795,0.1795,0.1795,0.1795,0.1795,0.1795,0.1795,0.1795,0.1795,0.1795,0.1795,0.1795,0.1795,0.1795,0.1795,0.1795,0.1795,0.1795,0.1795,0.1795,0.1795,0.1795,0.1795,0.1795,0.1795,0.1795,0.1795,0.1795,0.1804,0.1834,0.1866,0.1889,0.1919,0.1948,0.197,0.1976,0.1977,0.1977,0.1853,0.1853,0.1606,0.1235,-0.0,-0.0,-0.0,-0.0,-0.0,-0.0,-0.0,-0.0,-0.0,-0.0,-0.0,-0.0,-0.0,-0.0,-0.0,-0.0,-0.0,-0.0,-0.0,0.0861,0.1475,0.1965,0.1953,0.1961,0.1975,0.1974,0.1971,0.1973,0.1977,0.1977,0.1977,0.1977,0.1977,0.1977,0.1977,0.1977,0.1977,0.1795,0.1795,0.1795,0.1795,0.1795,0.1795,0.1795,0.1795,0.1795,0.1795,0.1795,0.1795,0.1795,0.1795,0.1795,0.1795,0.1795,0.1795,0.1795,0.1795,0.1795,0.1795,0.1795,0.1795,0.1795,0.1795,0.1795,0.1795,0.1795,0.1795,0.1795,0.1795,0.1795,0.1795,0.1795,0.1795,0.1795,0.1795,0.1795,0.1795,0.1795,0.1795,0.1795,0.1795,0.1795,0.1795,0.1795,0.1795,0.1795,0.1795,0.1795,0.1795,0.1795,0.1795,0.1795,0.1795,0.1795,0.1795,0.1795,0.1795,0.1795,0.1795,0.1795,0.1795,0.1811,0.1851,0.1881,0.19,0.1926,0.1955,0.1973,0.1975,0.1977,0.1977,0.1977,0.1977,0.1977,0.173,0.1359,0.0988,0.0371,-0.0,-0.0,-0.0,-0.0,-0.0,-0.0,-0.0,-0.0,-0.0,-0.0,-0.0,-0.0,-0.0,-0.0,-0.0,-0.0,0.0618,0.1233,0.1604,0.1977,0.1977,0.1977,0.1977,0.1976,0.1977,0.1977,0.1977,0.1977,0.1977,0.1977,0.1977,0.1977,0.1977,0.1977,0.1795,0.1795,0.1795,0.1795,0.1795,0.1795,0.1795,0.1795,0.1795,0.1795,0.1795,0.1795,0.1795,0.1795,0.1795,0.1795,0.1795,0.1795,0.1795,0.1795,0.1795,0.1795,0.1795,0.1795,0.1795,0.1795,0.1795,0.1795,0.1795,0.1795,0.1795,0.1795,0.1795,0.1795,0.1795,0.1795,0.1795,0.1795,0.1795,0.1795,0.1795,0.1795,0.1795,0.1795,0.1795,0.1795,0.1795,0.1795,0.1795,0.1795,0.1795,0.1795,0.1795,0.1795,0.1795,0.1795,0.1795,0.1795,0.1795,0.1795,0.1795,0.1795,0.1795,0.1795,0.1805,0.1842,0.1877,0.19,0.1943,0.1973,0.1975,0.1977,0.1977,0.1977,0.1977,0.1977,0.1977,0.1853,0.173,0.1606,0.1112,-0.0,-0.0,-0.0,-0.0,-0.0,-0.0,-0.0,-0.0,-0.0,-0.0,-0.0,-0.0,-0.0,-0.0,-0.0,-0.0,0.0618,0.1112,0.1483,0.1853,0.1977,0.1977,0.1977,0.1977,0.1977,0.1977,0.1977,0.1977,0.1977,0.1977,0.1977,0.1977,0.1977,0.1977,0.1795,0.1795,0.1795,0.1795,0.1795,0.1795,0.1795,0.1795,0.1795,0.1795,0.1795,0.1795,0.1795,0.1795,0.1795,0.1795,0.1795,0.1795,0.1795,0.1795,0.1795,0.1795,0.1795,0.1795,0.1795,0.1795,0.1795,0.1795,0.1795,0.1795,0.1795,0.1795,0.1795,0.1795,0.1795,0.1795,0.1795,0.1795,0.1795,0.1795,0.1795,0.1795,0.1795,0.1795,0.1795,0.1795,0.1795,0.1795,0.1795,0.1795,0.1795,0.1795,0.1795,0.1795,0.1795,0.1795,0.1795,0.1795,0.1795,0.1795,0.1795,0.1795,0.1795,0.18,0.1809,0.1838,0.1873,0.1906,0.1948,0.1975,0.1976,0.1977,0.1977,0.1977,0.1977,0.1977,0.1977,0.1977,0.1977,0.1977,0.1853,0.1606,0.1112,0.0494,-0.0,-0.0,-0.0,-0.0,-0.0,-0.0,-0.0,-0.0,-0.0,-0.0,-0.0,-0.0,-0.0,0.0618,0.1112,0.1482,0.173,0.1977,0.1977,0.1977,0.1977,0.1977,0.1977,0.1977,0.1977,0.1977,0.1977,0.1977,0.1977,0.1977,0.1977,0.1795,0.1795,0.1795,0.1795,0.1795,0.1795,0.1795,0.1795,0.1795,0.1795,0.1795,0.1795,0.1795,0.1795,0.1795,0.1795,0.1795,0.1795,0.1795,0.1795,0.1795,0.1795,0.1795,0.1795,0.1795,0.1795,0.1795,0.1795,0.1795,0.1795,0.1795,0.1795,0.1795,0.1795,0.1795,0.1795,0.1795,0.1795,0.1795,0.1795,0.1795,0.1795,0.1795,0.1795,0.1795,0.1795,0.1795,0.1795,0.1795,0.1795,0.1795,0.1795,0.1795,0.1795,0.1795,0.1795,0.1795,0.1795,0.1795,0.1795,0.1795,0.1795,0.1795,0.1795,0.1816,0.185,0.1878,0.1896,0.1934,0.1969,0.1977,0.1977,0.1977,0.1977,0.1977,0.1977,0.1977,0.1977,0.1977,0.1977,0.1977,0.1853,0.173,0.1235,-0.0,-0.0,-0.0,-0.0,-0.0,-0.0,-0.0,-0.0,-0.0,-0.0,-0.0,-0.0,0.0494,0.0865,0.1112,0.1483,0.1853,0.1977,0.1977,0.1977,0.1977,0.1977,0.1977,0.1977,0.1977,0.1977,0.1977,0.1977,0.1977,0.1977,0.1977]},{"header":{"parameterUnit":"m.s-1","parameterCategory":1,"la1":31.0,"la2":29.5877,"lo1":-88.7671,"lo2":-86.6584,"dy":0.0162,"dx":0.0185,"nx":115,"ny":88,"refTime":"2024-06-23T06:00:00:Z","depth":0,"parameterNumber":3,"parameterNumberName":"V-component_of_WINDS"},"data":[0.0,0.0,0.0,0.0,0.0,0.0,0.0,0.0,0.0,0.0,0.0,0.0,0.0,0.0,0.0,0.0,0.0,0.0,0.0,0.0,0.0,0.0,0.0,0.0,0.0,0.0,0.0,0.0,0.0,0.0,0.0,0.0,0.0,0.0,0.0,0.0,0.0,0.0,0.0,0.0,0.0,0.0,0.0,0.0,0.0,0.0,0.0,0.0,0.0,0.0,0.0,0.0,0.0,0.0,0.0,0.0,0.0,0.0,0.0,0.0,0.0,0.0,0.0,0.0,0.0,0.0,0.0,0.0,0.0,0.0,0.0,0.0,0.0,0.0,0.0,0.0,0.0,0.0,0.0,0.0,0.0,0.0,0.0,0.0,0.0,0.0,0.0,0.0,0.0,0.0,0.0,0.0,0.0,0.0,0.0,0.0,0.0,0.0,0.0,0.0,0.0,0.0,0.0,0.0,0.0,0.0,0.0,0.0,0.0,0.0,0.0,0.0,0.0,0.0,0.0,0.0,0.0,0.0,0.0,0.0,0.0,0.0,0.0,0.0,0.0,0.0,0.0,0.0,0.0,0.0,0.0,0.0,0.0,0.0,0.0,0.0,0.0,0.0,0.0,0.0,0.0,0.0,0.0,0.0,0.0,0.0,0.0,0.0,0.0,0.0,0.0,0.0,0.0,0.0,0.0,0.0,0.0,0.0,0.0,0.0,0.0,0.0,0.0,0.0,0.0,0.0,0.0,0.0,0.0,0.0,0.0,0.0,0.0,0.0,0.0,0.0,0.0,0.0,0.0,0.0,0.0,0.0,0.0,0.0,0.0,0.0,0.0,0.0,0.0,0.0,0.0,0.0,0.0,0.0,0.0,0.0,0.0,0.0,0.0,0.0,0.0,0.0,0.0,0.0,0.0,0.0,0.0,0.0,0.0,0.0,0.0,0.0,0.0,0.0,0.0,0.0,0.0,0.0,0.0,0.0,0.0,0.0,0.0,0.0,0.0,0.0,0.0,0.0,0.0,0.0,0.0,0.0,0.0,0.0,0.0,0.0,0.0,0.0,0.0,0.0,0.0,0.0,0.0,0.0,0.0,0.0,0.0,0.0,0.0,0.0,0.0,0.0,0.0,0.0,0.0,0.0,0.0,0.0,0.0,0.0,0.0,0.0,0.0,0.0,0.0,0.0,0.0,0.0,0.0,0.0,0.0,0.0,0.0,0.0,0.0,0.0,0.0,0.0,0.0,0.0,0.0,0.0,0.0,0.0,0.0,0.0,0.0,0.0,0.0,0.0,0.0,0.0,0.0,0.0,0.0,0.0,0.0,0.0,0.0,0.0,0.0,0.0,0.0,0.0,0.0,0.0,0.0,0.0,0.0,0.0,0.0,0.0,0.0,0.0,0.0,0.0,0.0,0.0,0.0,0.0,0.0,0.0,0.0,0.0,0.0,0.0,0.0,0.0,0.0,0.0,0.0,0.0,0.0,0.0,0.0,0.0,0.0,0.0,0.0,0.0,0.0,0.0,0.0,0.0,0.0,0.0,0.0,0.0,0.0,0.0,0.0,0.0,0.0,0.0,0.0,0.0,0.0,0.0,0.0,0.0,0.0,0.0,0.0,0.0,0.0,0.0,0.0,0.0,0.0,0.0,0.0,0.0,0.0,0.0,0.0,0.0,0.0,0.0,0.0,0.0,0.0,0.0,0.0,0.0,0.0,0.0,0.0,0.0,0.0,0.0,0.0,0.0,0.0,0.0,0.0,0.0,0.0,0.0,0.0,0.0,0.0,0.0,0.0,0.0,0.0,0.0,0.0,0.0,0.0,0.0,0.0,0.0,0.0,0.0,0.0,0.0,0.0,0.0,0.0,0.0,0.0,0.0,0.0,0.0,0.0,0.0,0.0,0.0,0.0,0.0,0.0,0.0,0.0,0.0,0.0,0.0,0.0,0.0,0.0,0.0,0.0,0.0,0.0,0.0,0.0,0.0,0.0,0.0,0.0,0.0,0.0,0.0,0.0,0.0,0.0,0.0,0.0,0.0,0.0,0.0,0.0,0.0,0.0,0.0,0.0,0.0,0.0,0.0,0.0,0.0,0.0,0.0,0.0,0.0,0.0,0.0,0.0,0.0,0.0,0.0,0.0,0.0,0.0,0.0,0.0,0.0,0.0,0.0,0.0,0.0,0.0,0.0,0.0,0.0,0.0,0.0,0.0,0.0,0.0,0.0,0.0,0.0,0.0,0.0,0.0,0.0,0.0,0.0,0.0,0.0,0.0,0.0,0.0,0.0,0.0,0.0,0.0,0.0,0.0,0.0,0.0,0.0,0.0,0.0,0.0,0.0,0.0,0.0,0.0,0.0,0.0,0.0,0.0,0.0,0.0,0.0,0.0,0.0,0.0,0.0,0.0,0.0,0.0,0.0,0.0,0.0,0.0,0.0,0.0,0.0,0.0,0.0,0.0,0.0,0.0,0.0,0.0,0.0,0.0,0.0,0.0,0.0,0.0,0.0,0.0,0.0,0.0,0.0,0.0,0.0,0.0,0.0,0.0,0.0,0.0,0.0,0.0,0.0,0.0,0.0,0.0,0.0,0.0,0.0,0.0,0.0,0.0,0.0,0.0,0.0,0.0,0.0,0.0,0.0,0.0,0.0,0.0,0.0,0.0,0.0,0.0,0.0,0.0,0.0,0.0,0.0,0.0,0.0,0.0,0.0,0.0,0.0,0.0,0.0,0.0,0.0,0.0,0.0,0.0,0.0,0.0,0.0,0.0,0.0,0.0,0.0,0.0,0.0,0.0,0.0,0.0,0.0,0.0,0.0,0.0,0.0,0.0,0.0,0.0,0.0,0.0,0.0,0.0,0.0,0.0,0.0,0.0,0.0,0.0,0.0,0.0,0.0,0.0,0.0,0.0,0.0,0.0,0.0,0.0,0.0,0.0,0.0,0.0,0.0,0.0,0.0,0.0,0.0,0.0,0.0,0.0,0.0,0.0,0.0,0.0,0.0,0.0,0.0,0.0,0.0,0.0,0.0,0.0,0.0,0.0,0.0,0.0,0.0,0.0,0.0,0.0,0.0,0.0,0.0,0.0,0.0,0.0,0.0,0.0,0.0,0.0,0.0,0.0,0.0,0.0,0.0,0.0,0.0,0.0,0.0,0.0,0.0,0.0,0.0,0.0,0.0,0.0,0.0,0.0,0.0,0.0,0.0,0.0,0.0,0.0,0.0,0.0,0.0,0.0,0.0,0.0,0.0,0.0,0.0,0.0,0.0,0.0,0.0,0.0,0.0,0.0,0.0,0.0,0.0,0.0,0.0,0.0,0.0,0.0,0.0,0.0,0.0,0.0,0.0,0.0,0.0,0.0,0.0,0.0,0.0,0.0,0.0,0.0,0.0,0.0,0.0,0.0,0.0,0.0,0.0,0.0,0.0,0.0,0.0,0.0,0.0,0.0,0.0,0.0,0.0,0.0,0.0,0.0,0.0,0.0,0.0,0.0,0.0,0.0,0.0,0.0,0.0,0.0,0.0,0.0,0.0,0.0,0.0,0.0,0.0,0.0,0.0,0.0,0.0,0.0,0.0,0.0,0.0,0.0,0.0,0.0,0.0,0.0,0.0,0.0,0.0,0.0,0.0,0.0,0.0,0.0,0.0,0.0,0.0,0.0,0.0,0.0,0.0,0.0,0.0,0.0,0.0,0.0,0.0,0.0,0.0,0.0,0.0,0.0,0.0,0.0,0.0,0.0,0.0,0.0,0.0,0.0,0.0,0.0,0.0,0.0,0.0,0.0,0.0,0.0,0.0,0.0,0.0,0.0,0.0,0.0,0.0,0.0,0.0,0.0,0.0,0.0,0.0,0.0,0.0,0.0,0.0,0.0,0.0,0.0,0.0,0.0,0.0,0.0,0.0,0.0,0.0,0.0,0.0,0.0,0.0,0.0,0.0,0.0,0.0,0.0,0.0,0.0,0.0,0.0,0.0,0.0,0.0,0.0,0.0,0.0,0.0,0.0,0.0,0.0,0.0,0.0,0.0,0.0,0.0,0.0,0.0,0.0,0.0,0.0,0.0,0.0,0.0,0.0,0.0,0.0,0.0,0.0,0.0,0.0,0.0,0.0,0.0,0.0,0.0,0.0,0.0,0.0,0.0,0.0,0.0,0.0,0.0,0.0,0.0,0.0,0.0,0.0,0.0,0.0,0.0,0.0,0.0,0.0,0.0,0.0,0.0,0.0,0.0,0.0,0.0,0.0,0.0,0.0,0.0,0.0,0.0,0.0,0.0,0.0,0.0,-1.5284,0.0,0.0,0.0,0.0,0.0,0.0,0.0,0.0,0.0,0.0,0.0,0.0,0.0,0.0,0.0,0.0,0.0,0.0,0.0,0.0,0.0,0.0,0.0,0.0,0.0,0.0,0.0,0.0,0.0,0.0,0.0,0.0,0.0,0.0,0.0,0.0,0.0,0.0,0.0,0.0,0.0,0.0,0.0,0.0,0.0,0.0,0.0,0.0,0.0,0.0,0.0,0.0,0.0,0.0,0.0,0.0,0.0,0.0,0.0,0.0,0.0,0.0,0.0,0.0,0.0,0.0,0.0,0.0,0.0,0.0,0.0,0.0,0.0,0.0,0.0,0.0,0.0,0.0,0.0,0.0,0.0,0.0,0.0,0.0,0.0,0.0,0.0,0.0,0.0,0.0,0.0,0.0,0.0,0.0,0.0,0.0,0.0,0.0,0.0,0.0,0.0,0.0,0.0,0.0,0.0,0.0,0.0,0.0,0.0,0.0,-1.5293,-1.5293,-1.5298,-1.5283,-1.5283,0.0,0.0,0.0,0.0,0.0,0.0,0.0,0.0,0.0,0.0,0.0,0.0,0.0,0.0,0.0,0.0,0.0,0.0,0.0,0.0,0.0,0.0,0.0,0.0,0.0,0.0,0.0,0.0,0.0,0.0,0.0,0.0,0.0,0.0,0.0,0.0,0.0,0.0,0.0,0.0,0.0,0.0,0.0,0.0,0.0,0.0,0.0,0.0,0.0,0.0,0.0,0.0,0.0,0.0,0.0,0.0,0.0,0.0,0.0,0.0,0.0,0.0,0.0,0.0,0.0,0.0,0.0,0.0,0.0,0.0,0.0,0.0,0.0,0.0,0.0,0.0,0.0,0.0,0.0,0.0,0.0,0.0,0.0,0.0,0.0,0.0,0.0,0.0,0.0,0.0,0.0,0.0,0.0,0.0,0.0,0.0,0.0,0.0,0.0,0.0,0.0,0.0,0.0,0.0,0.0,0.0,0.0,0.0,0.0,0.0,0.0,0.0,-1.5776,-1.5799,-1.561,0.0,0.0,0.0,0.0,0.0,0.0,0.0,0.0,0.0,0.0,0.0,0.0,0.0,0.0,0.0,0.0,0.0,0.0,0.0,0.0,0.0,0.0,0.0,0.0,0.0,0.0,0.0,0.0,0.0,0.0,0.0,0.0,0.0,0.0,0.0,0.0,0.0,0.0,0.0,0.0,0.0,0.0,0.0,0.0,0.0,0.0,0.0,0.0,0.0,0.0,0.0,0.0,0.0,0.0,0.0,0.0,0.0,0.0,0.0,0.0,0.0,0.0,0.0,0.0,0.0,0.0,0.0,0.0,0.0,0.0,0.0,0.0,0.0,0.0,0.0,0.0,0.0,0.0,0.0,0.0,0.0,0.0,0.0,0.0,0.0,0.0,0.0,0.0,0.0,0.0,0.0,0.0,0.0,0.0,0.0,0.0,0.0,0.0,0.0,0.0,0.0,0.0,0.0,0.0,0.0,0.0,0.0,0.0,0.0,0.0,-1.6478,-1.6478,-1.7243,0.0,-1.6568,0.0,0.0,0.0,0.0,0.0,0.0,0.0,0.0,0.0,0.0,0.0,0.0,0.0,0.0,0.0,0.0,0.0,0.0,0.0,0.0,0.0,0.0,0.0,0.0,0.0,0.0,0.0,0.0,0.0,0.0,0.0,0.0,0.0,0.0,0.0,0.0,0.0,0.0,0.0,0.0,0.0,0.0,0.0,0.0,0.0,0.0,0.0,0.0,0.0,0.0,0.0,0.0,0.0,0.0,0.0,0.0,0.0,0.0,0.0,0.0,0.0,0.0,0.0,0.0,0.0,0.0,0.0,0.0,0.0,0.0,0.0,0.0,0.0,0.0,0.0,0.0,0.0,0.0,0.0,0.0,0.0,0.0,0.0,0.0,0.0,0.0,0.0,0.0,0.0,0.0,0.0,0.0,0.0,0.0,0.0,0.0,0.0,0.0,0.0,0.0,0.0,0.0,0.0,0.0,0.0,0.0,0.0,0.0,0.0,0.0,0.0,-1.7381,-1.7723,-1.7505,0.0,0.0,0.0,0.0,0.0,0.0,0.0,0.0,0.0,0.0,0.0,0.0,0.0,0.0,0.0,0.0,0.0,0.0,0.0,0.0,0.0,0.0,0.0,0.0,0.0,0.0,0.0,0.0,0.0,0.0,0.0,0.0,0.0,0.0,0.0,0.0,0.0,0.0,0.0,0.0,0.0,0.0,0.0,0.0,0.0,0.0,0.0,0.0,0.0,0.0,0.0,0.0,0.0,0.0,0.0,0.0,0.0,0.0,0.0,0.0,0.0,0.0,0.0,0.0,0.0,0.0,0.0,0.0,0.0,0.0,0.0,0.0,0.0,0.0,0.0,0.0,0.0,0.0,0.0,0.0,0.0,0.0,0.0,0.0,0.0,0.0,0.0,0.0,0.0,0.0,0.0,0.0,0.0,0.0,0.0,0.0,0.0,0.0,0.0,0.0,0.0,0.0,0.0,0.0,0.0,0.0,0.0,0.0,0.0,0.0,-1.7816,0.0,-1.8586,-1.8617,-1.8224,-1.74,0.0,0.0,0.0,0.0,0.0,0.0,0.0,0.0,0.0,0.0,0.0,0.0,0.0,0.0,0.0,0.0,0.0,0.0,0.0,0.0,0.0,0.0,0.0,0.0,0.0,0.0,0.0,0.0,0.0,0.0,0.0,0.0,0.0,0.0,0.0,0.0,0.0,0.0,0.0,0.0,0.0,0.0,0.0,0.0,0.0,0.0,0.0,0.0,0.0,0.0,0.0,0.0,0.0,0.0,0.0,0.0,0.0,0.0,0.0,0.0,0.0,0.0,0.0,0.0,0.0,0.0,0.0,0.0,0.0,0.0,0.0,0.0,0.0,0.0,0.0,0.0,0.0,0.0,0.0,0.0,0.0,0.0,0.0,0.0,0.0,0.0,0.0,0.0,0.0,0.0,0.0,0.0,0.0,0.0,0.0,0.0,0.0,0.0,0.0,0.0,0.0,0.0,0.0,0.0,0.0,0.0,0.0,0.0,0.0,-1.871,-1.955,-2.0313,-2.0371,-1.9978,0.0,0.0,0.0,0.0,0.0,0.0,0.0,0.0,0.0,0.0,0.0,0.0,0.0,0.0,0.0,0.0,0.0,0.0,0.0,0.0,0.0,0.0,0.0,0.0,0.0,0.0,0.0,0.0,0.0,0.0,0.0,0.0,0.0,0.0,0.0,0.0,0.0,0.0,0.0,0.0,0.0,0.0,0.0,0.0,0.0,0.0,0.0,0.0,0.0,0.0,0.0,0.0,0.0,0.0,0.0,0.0,0.0,0.0,0.0,0.0,0.0,0.0,0.0,0.0,0.0,0.0,0.0,0.0,0.0,0.0,0.0,0.0,0.0,0.0,0.0,0.0,0.0,0.0,0.0,0.0,0.0,0.0,0.0,0.0,0.0,0.0,0.0,0.0,0.0,0.0,0.0,0.0,0.0,0.0,0.0,0.0,0.0,0.0,0.0,0.0,0.0,0.0,0.0,0.0,0.0,0.0,0.0,0.0,0.0,-1.8779,-1.9578,-2.0166,-2.0483,-2.0503,-2.0127,0.0,0.0,0.0,0.0,0.0,0.0,0.0,0.0,0.0,0.0,0.0,0.0,0.0,0.0,0.0,0.0,0.0,0.0,0.0,0.0,0.0,0.0,0.0,0.0,0.0,0.0,0.0,0.0,0.0,0.0,0.0,0.0,0.0,0.0,0.0,0.0,0.0,0.0,0.0,0.0,0.0,0.0,0.0,0.0,0.0,0.0,0.0,0.0,0.0,0.0,0.0,0.0,0.0,0.0,0.0,0.0,0.0,0.0,0.0,0.0,0.0,0.0,0.0,0.0,0.0,0.0,0.0,0.0,0.0,0.0,0.0,0.0,0.0,0.0,0.0,0.0,0.0,0.0,0.0,0.0,0.0,0.0,0.0,0.0,0.0,0.0,0.0,0.0,0.0,0.0,0.0,0.0,0.0,0.0,0.0,0.0,0.0,0.0,0.0,0.0,0.0,0.0,0.0,0.0,0.0,0.0,0.0,0.0,0.0,-1.9656,0.0,-2.0511,0.0,-2.0516,-2.026,0.0,0.0,0.0,0.0,0.0,0.0,0.0,0.0,0.0,0.0,0.0,0.0,0.0,0.0,0.0,0.0,0.0,0.0,0.0,0.0,0.0,0.0,0.0,0.0,0.0,0.0,0.0,0.0,0.0,0.0,0.0,0.0,0.0,0.0,0.0,0.0,0.0,0.0,0.0,0.0,0.0,0.0,0.0,0.0,0.0,0.0,0.0,0.0,0.0,0.0,0.0,0.0,0.0,0.0,0.0,0.0,0.0,0.0,0.0,0.0,0.0,0.0,0.0,0.0,0.0,0.0,0.0,0.0,0.0,0.0,0.0,0.0,0.0,0.0,0.0,0.0,0.0,0.0,0.0,0.0,0.0,0.0,0.0,0.0,0.0,0.0,0.0,0.0,0.0,0.0,0.0,0.0,0.0,0.0,0.0,0.0,0.0,0.0,0.0,0.0,0.0,0.0,0.0,0.0,0.0,0.0,0.0,0.0,-2.0519,-2.0516,-2.0538,-2.0636,-2.0538,-2.0577,-2.0558,0.0,0.0,0.0,0.0,0.0,0.0,0.0,0.0,0.0,0.0,0.0,0.0,0.0,0.0,0.0,0.0,0.0,0.0,0.0,0.0,0.0,0.0,0.0,0.0,0.0,0.0,0.0,0.0,0.0,0.0,0.0,0.0,0.0,0.0,0.0,0.0,0.0,0.0,0.0,0.0,0.0,0.0,0.0,0.0,0.0,0.0,0.0,0.0,0.0,0.0,0.0,0.0,0.0,0.0,0.0,0.0,0.0,0.0,0.0,0.0,0.0,0.0,0.0,0.0,0.0,0.0,0.0,0.0,0.0,0.0,0.0,0.0,0.0,0.0,0.0,0.0,0.0,0.0,0.0,0.0,0.0,0.0,0.0,0.0,0.0,0.0,0.0,0.0,0.0,0.0,0.0,0.0,0.0,0.0,0.0,0.0,0.0,0.0,0.0,0.0,0.0,0.0,0.0,0.0,0.0,0.0,0.0,0.0,0.0,-2.1485,-2.2012,-2.2287,-2.2266,-2.1739,-2.1487,0.0,0.0,0.0,0.0,0.0,0.0,0.0,0.0,0.0,0.0,0.0,0.0,0.0,0.0,0.0,0.0,0.0,0.0,0.0,0.0,0.0,0.0,0.0,0.0,0.0,0.0,0.0,0.0,0.0,0.0,0.0,0.0,0.0,0.0,0.0,0.0,0.0,0.0,0.0,0.0,0.0,0.0,0.0,0.0,0.0,0.0,0.0,0.0,0.0,0.0,0.0,0.0,0.0,0.0,0.0,0.0,0.0,0.0,0.0,0.0,0.0,0.0,0.0,0.0,0.0,0.0,0.0,0.0,0.0,0.0,0.0,0.0,0.0,0.0,0.0,0.0,0.0,0.0,0.0,0.0,0.0,0.0,0.0,0.0,0.0,0.0,0.0,0.0,0.0,0.0,0.0,0.0,0.0,0.0,0.0,0.0,0.0,0.0,0.0,0.0,0.0,0.0,0.0,0.0,0.0,0.0,0.0,0.0,0.0,-2.2842,-2.3015,-2.3111,-2.3111,-2.2623,-2.2213,-2.1883,0.0,0.0,0.0,0.0,0.0,0.0,0.0,0.0,0.0,0.0,0.0,0.0,0.0,0.0,0.0,0.0,0.0,0.0,0.0,0.0,0.0,0.0,0.0,0.0,0.0,0.0,0.0,0.0,0.0,0.0,0.0,0.0,0.0,0.0,0.0,0.0,0.0,0.0,0.0,0.0,0.0,0.0,0.0,0.0,0.0,0.0,0.0,0.0,0.0,0.0,0.0,0.0,0.0,0.0,0.0,0.0,0.0,0.0,0.0,0.0,0.0,0.0,0.0,0.0,0.0,0.0,0.0,0.0,0.0,0.0,0.0,0.0,0.0,0.0,0.0,0.0,0.0,0.0,0.0,0.0,0.0,0.0,0.0,0.0,0.0,0.0,0.0,0.0,0.0,0.0,0.0,0.0,0.0,0.0,0.0,0.0,0.0,0.0,0.0,0.0,0.0,0.0,0.0,0.0,0.0,0.0,0.0,0.0,-2.4626,-2.382,-2.3366,-2.3288,-2.323,-2.28,0.0,0.0,0.0,0.0,0.0,0.0,0.0,0.0,0.0,0.0,0.0,0.0,0.0,0.0,0.0,0.0,0.0,0.0,0.0,0.0,0.0,0.0,0.0,0.0,0.0,0.0,0.0,0.0,0.0,0.0,0.0,0.0,0.0,0.0,0.0,0.0,0.0,0.0,0.0,0.0,0.0,0.0,0.0,0.0,0.0,0.0,0.0,0.0,0.0,0.0,0.0,0.0,0.0,0.0,0.0,0.0,0.0,0.0,0.0,0.0,0.0,0.0,0.0,0.0,0.0,0.0,0.0,0.0,0.0,0.0,0.0,0.0,0.0,0.0,0.0,0.0,0.0,0.0,0.0,0.0,0.0,0.0,0.0,0.0,0.0,0.0,0.0,0.0,0.0,0.0,0.0,0.0,0.0,0.0,0.0,0.0,0.0,0.0,0.0,0.0,0.0,0.0,0.0,0.0,0.0,0.0,0.0,0.0,0.0,-2.7223,-2.7047,-2.6323,-2.5073,-2.4408,-2.3664,0.0,0.0,0.0,0.0,0.0,0.0,0.0,0.0,0.0,0.0,0.0,0.0,0.0,0.0,0.0,0.0,0.0,0.0,0.0,0.0,0.0,0.0,0.0,0.0,0.0,0.0,0.0,0.0,0.0,0.0,0.0,0.0,0.0,0.0,0.0,0.0,0.0,0.0,0.0,0.0,0.0,0.0,0.0,0.0,0.0,0.0,0.0,0.0,0.0,0.0,0.0,0.0,0.0,0.0,0.0,0.0,0.0,0.0,0.0,0.0,0.0,0.0,0.0,0.0,0.0,0.0,0.0,0.0,0.0,0.0,0.0,0.0,0.0,0.0,0.0,0.0,0.0,0.0,0.0,0.0,0.0,0.0,0.0,0.0,0.0,0.0,0.0,0.0,0.0,0.0,0.0,0.0,0.0,0.0,0.0,0.0,0.0,0.0,0.0,0.0,0.0,0.0,0.0,0.0,0.0,0.0,0.0,0.0,-2.6914,-2.8261,-2.83,-2.7811,-2.6835,-2.5956,-2.49,0.0,0.0,0.0,0.0,0.0,0.0,0.0,0.0,0.0,0.0,0.0,0.0,0.0,0.0,0.0,0.0,0.0,0.0,0.0,0.0,0.0,0.0,0.0,0.0,0.0,0.0,0.0,0.0,0.0,0.0,0.0,0.0,0.0,0.0,0.0,0.0,0.0,0.0,0.0,0.0,0.0,0.0,0.0,0.0,0.0,0.0,0.0,0.0,0.0,0.0,0.0,0.0,0.0,0.0,0.0,0.0,0.0,0.0,0.0,0.0,0.0,0.0,0.0,0.0,0.0,0.0,0.0,0.0,0.0,0.0,0.0,0.0,0.0,0.0,0.0,0.0,0.0,0.0,0.0,0.0,0.0,0.0,0.0,0.0,0.0,0.0,0.0,0.0,0.0,0.0,0.0,0.0,0.0,0.0,0.0,0.0,0.0,0.0,0.0,0.0,0.0,0.0,0.0,0.0,0.0,0.0,0.0,0.0,-2.7617,-2.8555,-2.8574,-2.8535,-2.8418,-2.7598,-2.6309,0.0,0.0,0.0,0.0,0.0,0.0,0.0,0.0,0.0,0.0,0.0,0.0,0.0,0.0,0.0,0.0,0.0,0.0,0.0,0.0,0.0,0.0,0.0,0.0,0.0,0.0,0.0,0.0,0.0,0.0,0.0,0.0,0.0,0.0,0.0,0.0,0.0,0.0,0.0,0.0,0.0,0.0,0.0,0.0,0.0,0.0,0.0,0.0,0.0,0.0,0.0,0.0,0.0,0.0,0.0,0.0,0.0,0.0,0.0,0.0,0.0,0.0,0.0,0.0,0.0,0.0,0.0,0.0,0.0,0.0,0.0,0.0,0.0,0.0,0.0,0.0,0.0,0.0,0.0,0.0,0.0,0.0,0.0,0.0,0.0,0.0,0.0,0.0,0.0,0.0,0.0,0.0,0.0,0.0,0.0,0.0,0.0,0.0,0.0,0.0,0.0,0.0,0.0,0.0,0.0,0.0,0.0,0.0,-2.8769,-3.0293,-3.0351,-3.0019,-2.9336,-2.8476,-2.7207,0.0,0.0,0.0,0.0,0.0,0.0,0.0,0.0,0.0,0.0,0.0,0.0,0.0,0.0,0.0,0.0,0.0,0.0,0.0,0.0,0.0,0.0,0.0,0.0,0.0,0.0,0.0,0.0,0.0,0.0,0.0,0.0,0.0,0.0,0.0,0.0,0.0,0.0,0.0,0.0,0.0,0.0,0.0,0.0,0.0,0.0,0.0,0.0,-2.0703,0.0,0.0,0.0,0.0,0.0,0.0,0.0,0.0,0.0,0.0,0.0,0.0,0.0,0.0,0.0,0.0,0.0,0.0,0.0,0.0,0.0,0.0,0.0,0.0,0.0,0.0,0.0,0.0,0.0,0.0,0.0,0.0,0.0,0.0,0.0,0.0,0.0,0.0,0.0,0.0,0.0,0.0,0.0,0.0,0.0,0.0,0.0,0.0,0.0,0.0,0.0,0.0,0.0,0.0,0.0,0.0,0.0,0.0,0.0,-2.9567,-3.0859,-3.0918,-3.0684,-3.0215,-2.9783,-2.8511,0.0,0.0,0.0,0.0,0.0,0.0,0.0,0.0,0.0,0.0,0.0,0.0,0.0,0.0,0.0,0.0,0.0,0.0,0.0,0.0,0.0,0.0,0.0,0.0,0.0,0.0,0.0,0.0,0.0,0.0,0.0,0.0,0.0,0.0,0.0,0.0,0.0,0.0,0.0,0.0,0.0,0.0,0.0,0.0,0.0,0.0,0.0,0.0,0.0,0.0,0.0,0.0,0.0,0.0,0.0,0.0,0.0,0.0,0.0,0.0,0.0,0.0,0.0,0.0,0.0,0.0,0.0,0.0,0.0,0.0,0.0,0.0,0.0,0.0,0.0,0.0,0.0,0.0,0.0,0.0,0.0,0.0,0.0,0.0,0.0,0.0,0.0,0.0,0.0,0.0,0.0,0.0,0.0,0.0,0.0,0.0,0.0,0.0,0.0,0.0,0.0,0.0,0.0,0.0,0.0,0.0,0.0,-2.916,-3.0025,-3.0873,-3.0916,-3.0918,-3.0918,-3.0911,-2.973,-2.729,0.0,0.0,0.0,0.0,0.0,0.0,0.0,0.0,0.0,0.0,0.0,0.0,0.0,0.0,0.0,0.0,0.0,0.0,0.0,0.0,0.0,0.0,0.0,0.0,0.0,0.0,0.0,0.0,0.0,0.0,0.0,0.0,0.0,0.0,0.0,0.0,0.0,0.0,-2.0781,-2.1543,0.0,0.0,0.0,0.0,0.0,0.0,0.0,0.0,-2.3203,0.0,0.0,0.0,0.0,0.0,0.0,0.0,0.0,0.0,0.0,0.0,0.0,0.0,0.0,0.0,0.0,0.0,0.0,0.0,0.0,0.0,0.0,0.0,0.0,0.0,0.0,0.0,0.0,0.0,0.0,0.0,0.0,0.0,0.0,0.0,0.0,0.0,0.0,0.0,0.0,0.0,0.0,0.0,0.0,0.0,0.0,0.0,0.0,0.0,0.0,0.0,0.0,0.0,0.0,0.0,0.0,-2.8257,-2.9177,-3.0021,-3.0882,-3.0923,-3.0912,-3.0918,-3.0915,-3.0011,-2.8147,0.0,0.0,0.0,0.0,0.0,0.0,0.0,0.0,0.0,0.0,0.0,0.0,0.0,0.0,0.0,0.0,0.0,0.0,0.0,0.0,0.0,0.0,0.0,0.0,0.0,0.0,0.0,0.0,0.0,0.0,0.0,0.0,0.0,0.0,0.0,0.0,0.0,0.0,0.0,-2.2383,-2.2969,0.0,0.0,0.0,0.0,0.0,0.0,0.0,0.0,-2.3867,0.0,0.0,0.0,0.0,0.0,0.0,0.0,0.0,0.0,0.0,0.0,0.0,0.0,0.0,0.0,0.0,0.0,0.0,0.0,0.0,0.0,0.0,0.0,0.0,0.0,0.0,0.0,0.0,0.0,0.0,0.0,0.0,0.0,0.0,0.0,0.0,0.0,0.0,0.0,0.0,0.0,0.0,0.0,0.0,0.0,0.0,0.0,0.0,0.0,0.0,0.0,0.0,0.0,0.0,0.0,-2.8252,-2.9567,-3.0428,-3.0841,-3.088,-3.0923,-3.0912,-3.0909,-3.0085,0.0,0.0,0.0,0.0,0.0,0.0,0.0,0.0,0.0,0.0,0.0,0.0,0.0,0.0,0.0,0.0,0.0,0.0,0.0,0.0,0.0,0.0,0.0,0.0,0.0,0.0,0.0,0.0,0.0,0.0,0.0,0.0,0.0,0.0,0.0,0.0,0.0,0.0,0.0,0.0,-2.3535,-2.3945,-2.4434,0.0,0.0,0.0,0.0,0.0,0.0,-2.4785,-2.4785,0.0,0.0,0.0,0.0,0.0,0.0,0.0,0.0,0.0,0.0,0.0,0.0,0.0,0.0,0.0,0.0,0.0,0.0,0.0,0.0,0.0,0.0,0.0,0.0,0.0,0.0,0.0,0.0,0.0,0.0,0.0,0.0,0.0,0.0,0.0,0.0,0.0,0.0,0.0,0.0,0.0,0.0,0.0,0.0,0.0,0.0,0.0,0.0,0.0,0.0,0.0,0.0,0.0,0.0,0.0,-2.8324,-2.9938,-3.0801,-3.0801,-3.086,-3.088,-3.088,-3.0877,-3.0077,0.0,0.0,0.0,0.0,0.0,0.0,0.0,0.0,0.0,0.0,0.0,0.0,0.0,0.0,0.0,0.0,0.0,0.0,0.0,0.0,0.0,0.0,0.0,0.0,0.0,0.0,0.0,0.0,0.0,0.0,0.0,0.0,0.0,0.0,0.0,0.0,0.0,0.0,0.0,0.0,0.0,-2.5176,-2.5859,-2.6094,0.0,0.0,0.0,0.0,-2.623,-2.6074,0.0,0.0,0.0,0.0,0.0,0.0,0.0,0.0,0.0,0.0,0.0,0.0,0.0,0.0,0.0,0.0,0.0,0.0,0.0,0.0,0.0,0.0,0.0,0.0,0.0,0.0,0.0,0.0,0.0,0.0,0.0,0.0,0.0,0.0,0.0,0.0,0.0,0.0,0.0,0.0,0.0,0.0,0.0,0.0,0.0,0.0,0.0,0.0,0.0,0.0,0.0,0.0,0.0,0.0,0.0,0.0,-2.8324,-2.9957,-3.0801,-3.0801,-3.0821,-3.0821,-3.088,-3.0855,-3.001,0.0,0.0,0.0,0.0,0.0,0.0,0.0,0.0,0.0,0.0,0.0,0.0,0.0,0.0,0.0,0.0,0.0,0.0,0.0,0.0,0.0,0.0,0.0,0.0,0.0,0.0,0.0,0.0,0.0,0.0,0.0,0.0,0.0,0.0,0.0,0.0,0.0,0.0,0.0,0.0,0.0,-2.6738,-2.6836,-2.7519,-2.7988,0.0,0.0,-2.7988,-2.7988,-2.7363,0.0,0.0,0.0,0.0,0.0,0.0,0.0,0.0,0.0,0.0,0.0,0.0,0.0,0.0,0.0,0.0,0.0,0.0,0.0,0.0,0.0,0.0,0.0,0.0,0.0,0.0,0.0,0.0,0.0,0.0,0.0,0.0,0.0,0.0,0.0,0.0,0.0,0.0,0.0,0.0,0.0,0.0,0.0,0.0,0.0,0.0,0.0,0.0,0.0,0.0,0.0,0.0,0.0,0.0,0.0,-2.7842,-2.8343,-2.9957,-3.0801,-3.0801,-3.0801,-3.0821,-3.086,-3.037,-2.9547,0.0,0.0,0.0,0.0,0.0,0.0,0.0,0.0,0.0,0.0,0.0,0.0,0.0,0.0,0.0,0.0,0.0,0.0,0.0,0.0,0.0,0.0,0.0,0.0,0.0,0.0,0.0,0.0,0.0,0.0,0.0,0.0,0.0,0.0,0.0,0.0,0.0,0.0,0.0,0.0,0.0,0.0,-2.7676,-2.8047,0.0,0.0,0.0,-2.8281,-2.8281,0.0,0.0,0.0,0.0,0.0,0.0,0.0,0.0,0.0,0.0,0.0,0.0,0.0,0.0,0.0,0.0,0.0,0.0,0.0,0.0,0.0,0.0,0.0,0.0,0.0,0.0,0.0,0.0,0.0,0.0,0.0,0.0,0.0,0.0,0.0,0.0,0.0,0.0,0.0,0.0,0.0,0.0,0.0,0.0,0.0,0.0,0.0,0.0,0.0,0.0,0.0,0.0,0.0,0.0,0.0,0.0,0.0,-2.8616,-3.027,-3.1111,-3.1114,-3.1133,-3.1133,-3.1094,-3.0333,0.0,0.0,0.0,0.0,0.0,0.0,0.0,0.0,0.0,0.0,0.0,0.0,0.0,0.0,0.0,0.0,0.0,0.0,0.0,0.0,0.0,0.0,0.0,0.0,0.0,0.0,0.0,-1.7382,0.0,0.0,0.0,0.0,0.0,0.0,0.0,0.0,0.0,0.0,0.0,0.0,0.0,0.0,-2.7891,-2.8535,-2.9004,-2.9258,0.0,0.0,-2.9512,-2.9297,-2.9101,-2.8887,0.0,0.0,0.0,0.0,0.0,0.0,0.0,0.0,0.0,0.0,0.0,0.0,0.0,0.0,0.0,0.0,0.0,0.0,0.0,0.0,0.0,0.0,0.0,0.0,0.0,0.0,0.0,0.0,0.0,0.0,0.0,0.0,0.0,0.0,0.0,0.0,0.0,0.0,0.0,0.0,0.0,0.0,0.0,0.0,0.0,0.0,0.0,0.0,0.0,0.0,0.0,0.0,0.0,0.0,0.0,-2.9455,-3.1126,-3.199,-3.2012,-3.2031,-3.2012,-3.1992,-3.1187,-2.9952,0.0,0.0,0.0,0.0,0.0,0.0,0.0,0.0,0.0,0.0,0.0,0.0,0.0,0.0,0.0,0.0,0.0,0.0,0.0,0.0,0.0,0.0,0.0,0.0,0.0,0.0,0.0,0.0,0.0,0.0,0.0,0.0,0.0,0.0,0.0,0.0,0.0,0.0,0.0,0.0,0.0,-2.9453,-2.9492,-3.0918,-3.1934,0.0,0.0,-3.2793,-3.2051,-3.125,-3.0449,-2.9648,0.0,0.0,0.0,0.0,0.0,0.0,0.0,0.0,0.0,0.0,0.0,0.0,0.0,0.0,0.0,0.0,0.0,0.0,0.0,0.0,0.0,0.0,0.0,0.0,0.0,0.0,0.0,0.0,0.0,0.0,0.0,0.0,0.0,0.0,0.0,0.0,0.0,0.0,0.0,0.0,0.0,0.0,0.0,0.0,0.0,0.0,0.0,0.0,0.0,0.0,0.0,0.0,0.0,-2.8903,-3.0271,-3.1477,-3.236,-3.289,-3.289,-3.2656,-3.2109,-3.1267,-3.0013,0.0,0.0,0.0,0.0,0.0,0.0,0.0,0.0,0.0,0.0,0.0,0.0,0.0,0.0,0.0,0.0,0.0,0.0,0.0,0.0,0.0,0.0,0.0,0.0,0.0,0.0,0.0,0.0,-2.0108,-2.0443,-2.1307,0.0,0.0,0.0,0.0,0.0,0.0,0.0,0.0,0.0,0.0,-3.0781,-3.1797,-3.2519,0.0,0.0,-3.3203,-3.3301,-3.2988,-3.2656,-3.2324,-3.1992,-3.0801,0.0,0.0,0.0,0.0,0.0,0.0,0.0,0.0,0.0,0.0,0.0,0.0,0.0,0.0,0.0,0.0,0.0,0.0,0.0,0.0,0.0,0.0,0.0,0.0,0.0,0.0,0.0,0.0,0.0,0.0,0.0,0.0,0.0,0.0,0.0,0.0,0.0,0.0,0.0,0.0,0.0,0.0,0.0,0.0,0.0,0.0,0.0,0.0,0.0,0.0,0.0,0.0,-2.9693,-3.1168,-3.2293,-3.3177,-3.3768,-3.3788,-3.3495,-3.289,-3.1777,-3.0526,0.0,0.0,0.0,0.0,0.0,0.0,0.0,0.0,0.0,0.0,0.0,0.0,0.0,0.0,0.0,0.0,0.0,0.0,0.0,0.0,0.0,0.0,0.0,0.0,0.0,0.0,0.0,0.0,-2.1198,-2.1572,-2.2181,0.0,0.0,0.0,0.0,0.0,0.0,0.0,0.0,0.0,0.0,-3.207,-3.3242,-3.3613,-3.3789,-3.3789,-3.4004,-3.4082,-3.3828,-3.3769,-3.3711,-3.3437,0.0,0.0,0.0,0.0,0.0,0.0,0.0,0.0,0.0,0.0,0.0,0.0,0.0,0.0,0.0,0.0,0.0,0.0,0.0,0.0,0.0,0.0,0.0,0.0,0.0,0.0,0.0,0.0,0.0,0.0,-2.3914,0.0,0.0,0.0,0.0,0.0,0.0,0.0,0.0,0.0,0.0,0.0,0.0,0.0,0.0,0.0,0.0,0.0,0.0,0.0,0.0,0.0,0.0,-3.1091,-3.2081,-3.3746,-3.4635,-3.4686,-3.4686,-3.4647,-3.4569,-3.2988,-3.1658,-3.0735,0.0,0.0,0.0,0.0,0.0,0.0,0.0,0.0,0.0,0.0,0.0,0.0,0.0,0.0,0.0,0.0,0.0,0.0,0.0,0.0,0.0,0.0,0.0,0.0,0.0,0.0,-2.1801,-2.2564,-2.3072,0.0,0.0,0.0,0.0,0.0,0.0,0.0,0.0,0.0,0.0,-3.2324,-3.3359,-3.3457,-3.416,-3.4766,-3.4746,-3.541,-3.5684,-3.4863,-3.4726,-3.4375,0.0,0.0,0.0,0.0,0.0,0.0,0.0,0.0,0.0,0.0,0.0,0.0,0.0,0.0,0.0,0.0,0.0,0.0,0.0,0.0,0.0,0.0,0.0,0.0,0.0,0.0,0.0,-2.8714,-2.8637,0.0,0.0,0.0,0.0,0.0,0.0,0.0,0.0,0.0,0.0,0.0,-3.2119,-3.2138,0.0,0.0,0.0,0.0,0.0,0.0,0.0,0.0,0.0,0.0,0.0,0.0,-3.1789,-3.3762,-3.4397,-3.4973,-3.5545,-3.5564,-3.5291,-3.4725,-3.4139,-3.2871,-3.0858,0.0,0.0,0.0,0.0,0.0,0.0,0.0,0.0,0.0,0.0,0.0,0.0,0.0,0.0,0.0,0.0,0.0,0.0,0.0,0.0,0.0,0.0,0.0,0.0,0.0,-2.2389,0.0,0.0,0.0,0.0,0.0,0.0,0.0,0.0,0.0,0.0,0.0,-3.1523,-3.3203,-3.4414,-3.5351,-3.5918,-3.6738,-3.7305,0.0,0.0,0.0,0.0,0.0,0.0,0.0,0.0,0.0,0.0,0.0,0.0,0.0,0.0,-3.3066,-3.1894,-3.1699,-3.1699,-3.1699,0.0,0.0,0.0,0.0,0.0,0.0,0.0,0.0,0.0,0.0,0.0,0.0,0.0,0.0,-3.1328,0.0,-2.9938,0.0,0.0,0.0,0.0,0.0,0.0,0.0,0.0,-3.3001,-3.3604,-3.44,-3.4673,-3.4693,0.0,-3.3575,-3.2145,0.0,0.0,0.0,0.0,0.0,0.0,0.0,0.0,-3.3126,-3.5057,-3.5142,-3.5578,-3.6401,-3.6147,-3.574,-3.5154,-3.4569,-3.3163,-3.086,-2.8381,-2.6644,0.0,0.0,0.0,0.0,0.0,0.0,0.0,0.0,0.0,0.0,0.0,0.0,0.0,0.0,0.0,0.0,0.0,0.0,0.0,0.0,0.0,0.0,0.0,-2.3989,0.0,0.0,0.0,0.0,0.0,0.0,0.0,0.0,0.0,-3.1794,-3.2297,-3.3397,-3.5351,-3.6348,-3.7129,-3.7676,0.0,0.0,0.0,0.0,0.0,0.0,0.0,-3.9062,-3.9062,-3.834,-3.7754,-3.7754,-3.7285,-3.6894,-3.6894,0.0,0.0,-3.4609,-3.4316,-3.4199,-3.3906,-3.3867,-3.3769,-3.3457,-3.3379,-3.3379,0.0,0.0,0.0,0.0,0.0,0.0,0.0,0.0,-3.3191,-3.323,0.0,-3.2362,0.0,0.0,0.0,0.0,0.0,-3.2926,0.0,0.0,-3.5388,-3.6237,-3.703,-3.7757,-3.7771,-3.7006,-3.6144,-3.534,-3.4486,-3.21,0.0,0.0,0.0,0.0,0.0,0.0,-3.5112,-3.6063,-3.6098,-3.6492,-3.7282,-3.6501,-3.603,-3.5952,-3.4334,-3.2675,-3.0977,-3.0057,-2.8437,-2.598,-2.5726,0.0,0.0,0.0,0.0,0.0,0.0,0.0,0.0,0.0,0.0,0.0,0.0,0.0,0.0,0.0,0.0,0.0,0.0,0.0,0.0,-2.4786,0.0,0.0,0.0,0.0,0.0,0.0,0.0,0.0,0.0,0.0,-3.379,-3.5001,-3.6376,-3.7207,0.0,0.0,0.0,0.0,-3.8789,-3.8828,-3.9492,-4.0039,-4.0059,-4.0059,-4.0039,-4.0059,0.0,0.0,-3.875,-3.873,-3.873,-3.8691,-3.8691,-3.8164,-3.6504,-3.6152,-3.584,-3.5059,-3.4941,-3.457,-3.3848,-3.3926,-3.3828,-3.6614,0.0,0.0,0.0,0.0,-3.5977,-3.6086,-3.6709,-3.6721,-3.6745,-3.6721,-3.5899,0.0,0.0,0.0,0.0,0.0,0.0,-3.6429,-3.7264,-3.7506,-3.7762,-3.8023,-3.8239,-3.8218,-3.7983,-3.7752,-3.7499,-3.7253,-3.6526,-3.4964,-3.261,0.0,0.0,0.0,0.0,-3.6316,-3.7679,-3.7822,-3.7985,-3.8238,-3.7379,-3.6638,-3.601,-3.492,-3.3807,-3.2673,-3.1248,-2.9843,-2.8535,-2.6702,0.0,0.0,0.0,0.0,0.0,0.0,0.0,0.0,0.0,0.0,0.0,0.0,0.0,0.0,0.0,0.0,0.0,0.0,0.0,-2.6661,-2.7813,-2.8476,0.0,0.0,0.0,0.0,0.0,0.0,0.0,0.0,0.0,-3.7828,-3.734,-3.7248,0.0,0.0,-4.0387,-4.0387,-4.1442,-4.2243,-4.2246,-4.2461,0.0,-4.2617,-4.2617,-4.2598,-4.2617,-4.2402,-4.2031,-4.1406,-4.1308,-4.1113,-4.0566,-4.0449,-4.0273,-3.9785,-3.8672,-3.7812,-3.7539,-3.748,-3.7422,-3.7168,-3.7109,-3.707,-4.0179,-4.003,-3.8132,-3.763,-3.8067,-3.7578,-3.7699,-3.8226,-3.8245,-3.828,-3.8267,-3.7735,-3.752,-3.7529,-3.7059,0.0,0.0,0.0,-3.7921,-3.842,-3.8773,-3.8926,-3.8926,-3.9263,-3.9424,-3.9408,-3.9074,-3.8937,-3.896,-3.8604,-3.7409,-3.5427,0.0,0.0,-3.6902,-3.698,-3.7669,-3.8935,-3.8746,-3.8765,-3.9058,-3.8238,-3.7399,-3.654,-3.5662,-3.4803,-3.3941,-3.2246,-3.0938,-3.0096,-2.8281,-2.678,0.0,0.0,0.0,0.0,0.0,0.0,0.0,0.0,0.0,0.0,0.0,-2.4262,0.0,0.0,0.0,0.0,-2.6429,-2.7678,-2.8732,-3.0194,0.0,0.0,0.0,0.0,0.0,0.0,0.0,-3.7653,-3.8394,-3.9175,-4.0171,-4.0034,-3.99,-4.0081,-4.1275,-4.2114,-4.2114,0.0,-4.3698,-4.3706,-4.4001,-4.4198,-4.4219,-4.4219,-4.4101,-4.375,-4.3711,-4.3535,-4.3047,-4.291,-4.2754,-4.2324,-4.2187,-4.2187,-4.2187,-4.1328,-4.0234,-3.9336,-3.9101,-3.9004,-3.8691,-3.8613,-3.8613,-4.335,-4.3124,-3.9883,-3.8582,-3.862,-3.8605,-3.864,-3.8604,-3.8617,-3.8565,-3.852,-3.8513,-3.8548,-3.8607,-3.8663,0.0,-3.8714,-3.8799,-3.8858,-3.8831,-3.9656,-4.0026,-4.0064,-4.0855,-4.122,-4.1188,-4.0402,-4.0052,-4.0084,-3.934,-3.8911,-3.8908,-3.8924,-3.8807,-3.8615,-3.8603,-3.9039,-3.9897,-3.9175,-3.9117,-3.9761,-3.9078,-3.8277,-3.7419,-3.656,-3.5678,-3.48,-3.3202,-3.1895,-3.1036,-3.0155,-2.8594,-2.6273,0.0,0.0,0.0,0.0,0.0,0.0,0.0,0.0,0.0,0.0,0.0,0.0,0.0,0.0,0.0,-2.9279,0.0,-3.0001,-3.2165,0.0,0.0,0.0,-3.656,-3.7399,-3.7555,-3.7926,-3.8804,0.0,0.0,-4.1303,-4.2767,-4.3489,-4.2708,-4.3313,-4.3801,-4.3817,-4.3879,-4.3895,-4.4016,-4.4594,-4.5112,-4.5097,-4.5098,-4.4883,-4.4199,-4.3906,-4.3965,-4.3848,-4.3789,-4.3808,-4.3594,-4.3691,-4.3652,-4.3691,-4.3496,-4.2969,-4.0664,-4.0273,-4.0019,-3.9434,-3.9297,-3.9336,-4.3395,-4.3337,-4.2501,-4.2152,-4.216,-4.216,-4.1834,-4.1274,-4.1265,-4.0904,-4.0293,-4.033,-4.037,-4.039,-4.0383,-4.0785,-4.1451,-4.1454,-4.1824,-4.2432,-4.2646,-4.2752,-4.2767,-4.2961,-4.3056,-4.3041,-4.2841,-4.2763,-4.2768,-4.2563,-4.2475,-4.2459,-4.2467,-4.1456,-3.9563,-3.9484,-3.9917,-4.0776,-4.06,-4.0288,-3.9819,-3.9605,-3.9117,-3.8316,-3.7438,-3.6579,-3.5718,-3.4664,-3.3671,-3.2795,-3.1328,-3.0233,-2.9611,-2.8381,0.0,0.0,0.0,0.0,0.0,0.0,0.0,0.0,0.0,-2.8047,-2.8903,0.0,-2.9335,0.0,-3.0997,-3.2051,-3.3358,-3.4627,0.0,0.0,-3.7321,-3.8316,-3.9117,-3.98,-4.0522,-4.14,-4.2435,-4.3079,-4.3099,-4.4016,-4.4602,-4.4406,-4.4563,-4.468,-4.4719,-4.5265,-4.5675,-4.5656,-4.5796,-4.5994,-4.5941,-4.5993,-4.5898,-4.5723,-4.5664,-4.5449,-4.4805,-4.4687,-4.4492,-4.3867,-4.3711,-4.3711,-4.375,-4.3711,-4.3555,-4.293,-4.2793,-4.2754,-4.2519,-4.2441,-4.2441,-4.4552,-4.4552,-4.4577,-4.4617,-4.454,-4.3771,-4.3188,-4.2792,-4.2809,-4.2539,-4.2101,-4.2149,-4.2187,-4.2187,-4.2206,-4.249,-4.2968,-4.2978,-4.3231,-4.3695,-4.3704,-4.3695,-4.3694,-4.3709,-4.37,-4.3708,-4.37,-4.3695,-4.37,-4.3708,-4.3712,-4.3697,-4.3704,-4.2965,-4.1596,-4.1537,-4.1771,-4.2262,-4.1872,-4.1244,-4.0405,-4.0385,-3.9976,-3.9156,-3.8316,-3.7458,-3.6618,-3.5366,-3.4488,-3.3983,-3.2692,-3.1794,-3.1385,-3.0138,-2.9416,0.0,0.0,0.0,0.0,0.0,0.0,0.0,0.0,0.0,0.0,0.0,-3.1638,-3.248,-3.3319,-3.4374,-3.574,-3.695,-3.7887,-3.8355,-3.9546,-4.0464,-4.0912,-4.1713,-4.2435,-4.2942,-4.3762,-4.4289,-4.4309,-4.5031,-4.5578,-4.5578,-4.5558,-4.5578,-4.5617,-4.6027,-4.63,-4.63,-4.63,-4.63,-4.63,-4.6303,-4.6289,-4.6289,-4.6289,-4.6133,-4.5664,-4.5586,-4.543,-4.4961,-4.4863,-4.4844,-4.4863,-4.4863,-4.4844,-4.4844,-4.4844,-4.457,-4.3867,-4.3711,-4.3711,-4.6337,-4.6348,-4.6299,-4.6288,-4.6158,-4.4539,-4.3791,-4.3683,-4.3733,-4.3716,-4.3604,-4.3665,-4.3695,-4.3695,-4.3695,-4.3778,-4.3856,-4.3875,-4.3914,-4.4012,-4.4048,-4.4044,-4.4031,-4.4031,-4.402,-4.4032,-4.404,-4.4036,-4.4025,-4.4025,-4.4048,-4.4036,-4.4036,-4.4036,-4.4036,-4.4036,-4.3941,-4.3687,-4.2965,-4.2145,-4.1303,-4.1264,-4.0854,-3.9995,-3.9195,-3.8394,-3.7633,-3.5952,-3.5034,-3.4995,-3.4114,-3.3216,-3.2478,-3.1599,-3.1133,0.0,-3.047,0.0,0.0,0.0,0.0,0.0,0.0,0.0,0.0,-3.3941,-3.439,-3.5135,-3.5896,-3.6735,-3.7711,-3.9117,-4.0054,-4.0327,-4.1654,-4.2572,-4.2591,-4.3333,-4.386,-4.386,-4.4641,-4.5168,-4.5207,-4.5831,-4.63,-4.6241,-4.6222,-4.6202,-4.628,-4.628,-4.63,-4.63,-4.63,-4.63,-4.6303,-4.6301,-4.6289,-4.6289,-4.6289,-4.6289,-4.6269,-4.625,-4.6269,-4.625,-4.6172,-4.6211,-4.6289,-4.625,-4.625,-4.6172,-4.6152,-4.5723,-4.4551,-4.418,-4.4043,-4.8126,-4.8136,-4.749,-4.7233,-4.7163,-4.6142,-4.5285,-4.4623,-4.4655,-4.4286,-4.3708,-4.3704,-4.3704,-4.3704,-4.3708,-4.4103,-4.4751,-4.4754,-4.5145,-4.5808,-4.5812,-4.5812,-4.5808,-4.5808,-4.5828,-4.5812,-4.5808,-4.5808,-4.5808,-4.5808,-4.5812,-4.5792,-4.5812,-4.5792,-4.5812,0.0,0.0,0.0,-4.3531,-4.304,-4.2181,-4.2162,-4.1732,-4.0873,-4.0015,0.0,-3.9295,-3.7711,-3.6813,-3.6755,-3.5308,0.0,0.0,0.0,0.0,0.0,0.0,0.0,0.0,0.0,0.0,0.0,-3.6972,-3.6852,-3.5681,-3.6794,-3.7692,-3.7848,-3.8007,-3.8726,-4.0229,-4.0659,-4.142,-4.2806,-4.3255,-4.345,-4.3489,-4.4231,-4.4758,-4.4758,-4.5519,-4.6046,-4.6027,-4.6202,-4.63,-4.63,-4.63,-4.63,-4.63,-4.63,-4.63,-4.63,-4.63,-4.63,-4.63,-4.6295,-4.6306,-4.6289,-4.6289,-4.6289,-4.6289,-4.6289,-4.6289,-4.6289,-4.6289,-4.6289,-4.6289,-4.6289,-4.6289,-4.6289,-4.6289,-4.6191,-4.5879,-4.5801,-4.5801,-4.8677,0.0,-4.8314,-4.8133,0.0,-4.769,-4.7248,-4.6766,-4.5908,-4.5343,-4.4992,-4.4985,-4.4985,-4.4985,-4.4985,-4.5223,-4.5636,-4.5636,-4.587,-4.63,-4.63,-4.63,-4.63,-4.63,-4.63,-4.63,-4.63,-4.63,-4.63,-4.63,-4.63,-4.63,-4.63,-4.63,-4.63,-4.63,-4.5656,-4.4367,-4.4348,-4.3918,-4.3079,-4.2611,-4.2181,-4.1732,0.0,0.0,0.0,0.0,0.0,0.0,0.0,0.0,0.0,0.0,0.0,-3.5916,-3.5564,-3.5701,-3.654,-3.7031,-3.748,-3.7929,-3.9117,-3.9117,-3.7416,-3.8082,-3.8944,-3.9761,-3.9839,-4.0542,-4.2181,-4.2396,-4.2728,-4.3587,-4.4094,-4.4348,-4.4426,-4.5109,-4.5636,-4.5675,-4.6027,-4.63,-4.63,-4.63,-4.63,-4.63,-4.63,-4.6319,-4.63,-4.63,-4.63,-4.63,-4.63,-4.63,-4.63,-4.6287,-4.63,-4.6289,-4.6289,-4.6289,-4.6289,-4.6289,-4.6289,-4.6289,-4.6289,-4.6289,-4.6289,-4.6289,-4.6289,-4.6289,-4.6289,-4.6289,-4.6289,-4.6289,-4.6289,-4.9172,-4.9172,-4.9087,-4.904,-4.902,-4.8869,-4.8796,-4.8688,0.0,0.0,0.0,-4.6749,-4.6729,-4.6729,-4.6729,-4.6749,-4.6729,-4.6729,-4.6749,-4.6749,-4.6729,-4.6749,-4.6749,-4.6749,-4.6671,-4.6534,-4.6515,-4.6436,-4.63,-4.63,-4.63,-4.63,-4.63,-4.63,-4.63,-4.63,-4.5948,-4.5285,-4.5226,-4.4797,-4.3938,-4.3235,-4.2786,-4.263,-4.1088,-4.0268,-4.0249,-3.9331,-3.8804,-3.8807,-3.8668,-3.8609,-3.859,-3.7926,-3.7848,-3.8492,-3.7946,-3.7906,-3.8746,-3.8963,-3.9178,-3.9471,-4.0756,-4.0893,-3.937,-3.9409,-4.0076,-4.1439,-4.1557,-4.2201,-4.3762,-4.3938,-4.3997,-4.4153,-4.4816,-4.5226,-4.5285,-4.6007,-4.6515,-4.6534,-4.669,-4.6749,-4.6807,-4.6807,-4.6749,-4.6749,-4.6885,-4.6749,-4.669,-4.6534,-4.63,-4.63,-4.63,-4.63,-4.6303,-4.6303,-4.6295,-4.6289,-4.6289,-4.6289,-4.6289,-4.6289,-4.6289,-4.6289,-4.6289,-4.6289,-4.6289,-4.6289,-4.6289,-4.6289,-4.6289,-4.6289,-4.6289,-4.6289,-4.6289,-5.0998,-5.0959,-5.0215,-4.9928,-4.9855,-4.9122,-4.8794,-4.8775,-4.8525,-4.845,-4.845,-4.8447,-4.8447,-4.8447,-4.8447,-4.8447,-4.8447,-4.845,-4.845,0.0,-4.8447,-4.8447,-4.8431,-4.8447,-4.8076,-4.7451,-4.7432,-4.7022,-4.6358,-4.63,-4.63,-4.63,-4.63,-4.63,-4.63,-4.63,-4.6222,-4.6124,-4.6124,-4.5695,-4.4836,-4.4699,-4.4289,-4.3528,-4.2552,-4.2045,-4.2009,-4.0483,-3.9624,-3.9624,-3.8961,-3.8609,-3.859,-3.8531,-3.8473,-3.859,-3.8492,-3.8765,-3.9605,-4.031,-4.1404,-4.2809,-4.3216,-4.2923,-4.1989,-4.2552,-4.3099,-4.3333,-4.3294,-4.3743,-4.468,-4.4816,-4.5109,-4.5792,-4.6027,-4.6124,-4.6163,-4.6885,-4.7412,-4.7432,-4.8037,-4.8369,-4.831,-4.8349,-4.831,-4.8388,-4.8193,-4.8369,-4.8096,-4.7178,-4.6397,-4.63,-4.63,-4.6306,-4.6488,-4.6309,-4.6454,-4.6289,-4.6406,-4.6504,-4.6523,-4.6523,-4.6523,-4.6367,-4.6484,-4.6426,-4.6367,-4.6289,-4.6348,-4.6348,-4.6289,-4.6289,-4.6289,-4.6289,-4.6289,-5.1391,-5.1352,-5.0972,-5.082,-5.0761,-5.0375,-5.0204,-5.0204,-5.0204,-4.9677,-4.8837,-4.8798,-4.8798,-4.8798,-4.8798,-4.8798,-4.8798,-4.8798,-4.8798,-4.8798,-4.8798,-4.8798,-4.8802,-4.8798,-4.8603,-4.8271,-4.8232,-4.7822,-4.7061,-4.7022,-4.6788,-4.6339,-4.63,-4.63,-4.63,-4.63,-4.63,-4.63,-4.63,-4.6105,-4.5714,-4.5246,-4.4797,-4.4406,-4.3567,-4.3118,-4.3102,-4.2341,-4.1931,-4.1911,-4.1108,-4.0659,-4.0659,-4.0659,-4.0659,-4.0678,-4.1108,-4.1537,-4.1908,-4.2282,-4.2848,-4.3645,-4.4133,-4.425,-4.384,-4.3743,-4.3899,-4.4328,-4.4406,-4.4758,-4.5597,-4.5714,-4.6046,-4.6924,-4.7002,-4.7178,-4.7608,-4.7978,-4.8252,-4.8291,-4.8603,-4.8857,-4.8857,-4.8857,-4.8857,-4.8876,-4.8857,-4.8857,-4.8876,-4.8252,-4.7725,-4.7705,-4.7709,-4.7728,-4.7698,-4.7707,-4.7712,-4.7715,-4.7715,-4.7715,-4.7715,-4.7695,-4.7695,-4.7715,-4.7695,-4.75,-4.7148,-4.6992,-4.6836,-4.6348,-4.6289,-4.6289,-4.6289,-4.6289,-4.6289,-5.139,-5.1381,-5.139,-5.1394,-5.1394,-5.1394,-5.1394,-5.1394,-5.1375,-5.0633,-4.9497,-4.938,-4.9384,-4.9384,-4.9384,-4.9384,-4.9384,-4.9384,-4.9384,-4.9384,-4.9384,-4.9384,-4.9407,-4.9384,-4.9286,-4.9107,-4.9091,-4.8662,-4.7959,-4.7881,-4.7432,-4.6651,-4.6397,-4.63,-4.63,-4.63,-4.63,-4.63,-4.63,-4.63,-4.628,-4.5617,-4.5285,-4.5226,-4.4445,-4.3997,-4.3997,-4.3805,-4.3707,-4.3668,-4.3063,-4.2692,-4.2711,-4.2708,-4.2689,-4.2747,-4.3333,-4.3801,-4.3977,-4.3997,-4.4075,-4.4289,-4.4914,-4.5285,-4.5246,-4.468,-4.4563,-4.5168,-4.5285,-4.5656,-4.6417,-4.6593,-4.6924,-4.7744,-4.7861,-4.8096,-4.8701,-4.8974,-4.9091,-4.9111,-4.9306,-4.9501,-4.9469,-4.9469,-4.9528,-4.9567,-4.9449,-4.9469,-4.9469,-4.9446,-4.9481,-4.9403,-4.9173,-4.8821,-4.8883,-4.8822,-4.8808,-4.8887,-4.8828,-4.873,-4.875,-4.8828,-4.8867,-4.875,-4.8808,-4.8535,-4.8027,-4.7891,-4.7656,-4.7187,-4.709,-4.6933,-4.6719,-4.6445,-4.6308,-5.1414,-5.1394,-5.1414,-5.1394,-5.1394,-5.1394,-5.1394,-5.1394,-5.1394,-5.1355,-5.1082,-5.116,-5.1102,-5.116,-5.1102,-5.1063,-5.1082,-5.116,-5.1102,-5.1082,-5.116,-5.1141,-5.1063,-5.1102,-5.0731,-5.0067,-4.9989,-4.954,-4.872,-4.8662,-4.8252,-4.7474,-4.669,-4.6319,-4.63,-4.63,-4.63,-4.63,-4.63,-4.63,-4.63,-4.6222,-4.6163,-4.6183,-4.5343,-4.4875,-4.4855,-4.4133,-4.3723,-4.3704,-4.3645,-4.3587,-4.3567,-4.3567,-4.3587,-4.3567,-4.3684,-4.4036,-4.4781,-4.4878,-4.5187,-4.5948,-4.6046,-4.6124,-4.6144,-4.6085,-4.6066,-4.6163,-4.6183,-4.6554,-4.7354,-4.7471,-4.7803,-4.8584,-4.8701,-4.8759,-4.9032,-4.954,-4.9969,-4.9969,-5.0555,-5.1148,-5.0962,-5.0947,-5.1025,-5.0908,-5.0849,-5.0869,-5.0889,-5.0878,-5.0926,-5.077,-4.9973,-4.9118,-4.9043,-4.892,-4.9121,-4.9062,-4.8965,-4.9101,-4.918,-4.9121,-4.8945,-4.9375,-4.9101,-4.9062,-4.8867,-4.8769,-4.873,-4.8379,-4.8301,-4.8359,-4.7637,-4.6992,-4.6582,-5.2175,-5.2117,-5.1609,-5.1394,-5.1394,-5.1394,-5.1394,-5.1394,-5.1394,-5.1394,-5.1394,-5.1394,-5.1394,-5.1394,-5.1394,-5.1394,-5.1394,-5.1394,-5.1394,-5.1394,-5.1394,-5.1394,-5.1394,-5.1394,-5.1199,-5.0887,-5.0887,-5.0418,-4.9599,-4.9052,-4.8388,-4.765,-4.7221,-4.6827,-4.6339,-4.63,-4.63,-4.63,-4.63,-4.63,-4.63,-4.63,-4.63,-4.6261,-4.5948,-4.5773,-4.5734,-4.5402,-4.5246,-4.5207,-4.4738,-4.4465,-4.4465,-4.4465,-4.4465,-4.4504,-4.4953,-4.5382,-4.5753,-4.5773,-4.5909,-4.628,-4.63,-4.63,-4.6339,-4.6768,-4.7081,-4.7061,-4.7081,-4.7412,-4.8174,-4.831,-4.8642,-4.9384,-4.9579,-4.9758,-5.0337,-5.063,-5.0864,-5.0903,-5.1187,-5.1398,-5.1389,-5.14,-5.1385,-5.1386,-5.1387,-5.1387,-5.1387,-5.1391,-5.1394,-5.134,-5.0767,-5.0464,-5.0332,-5.037,-5.0351,-5.0351,-5.0371,-5.0391,-5.0293,-5.0371,-5.0391,-5.0351,-5.0254,-5.0039,-4.9746,-4.9629,-4.957,-4.9277,-4.8906,-4.8769,-4.8418,-4.8086,-4.7871,-5.2897,-5.2585,-5.1746,-5.1394,-5.1394,-5.1394,-5.1394,-5.1394,-5.1394,-5.1394,-5.1394,-5.1394,-5.1394,-5.1394,-5.1394,-5.1394,-5.1394,-5.1394,-5.1394,-5.1394,-5.1394,-5.1394,-5.1394,-5.1394,-5.1394,-5.1394,-5.1375,-5.1082,-5.0399,-4.9579,-4.8837,-4.833,-4.806,-4.7514,-4.6749,-4.6651,-4.6515,-4.6319,-4.63,-4.63,-4.63,-4.63,-4.63,-4.63,-4.63,-4.63,-4.63,-4.63,-4.63,-4.628,-4.5695,-4.5363,-4.5363,-4.5363,-4.5363,-4.5402,-4.5948,-4.63,-4.63,-4.63,-4.63,-4.63,-4.63,-4.6397,-4.669,-4.7237,-4.7803,-4.8291,-4.8291,-4.8584,-4.9032,-4.915,-4.952,-5.0301,-5.0438,-5.0738,-5.1274,-5.1398,-5.1363,-5.1402,-5.1357,-5.1389,-5.1391,-5.1387,-5.1387,-5.1387,-5.1387,-5.1387,-5.1387,-5.14,-5.1391,-5.1391,-5.1384,-5.1348,-5.1387,-5.125,-5.1387,-5.1387,-5.1269,-5.125,-5.1387,-5.1387,-5.1367,-5.0918,-5.1269,-5.125,-5.0683,-5.0469,-5.0371,-4.9805,-4.9453,-4.9316,-4.9258,-4.9101,-4.8887,-5.3444,-5.2624,-5.1765,-5.1453,-5.1414,-5.1394,-5.1394,-5.1394,-5.1394,-5.1394,-5.1394,-5.1394,-5.1394,-5.1394,-5.1394,-5.1394,-5.1394,-5.1394,-5.1394,-5.1394,-5.1394,-5.1394,-5.1394,-5.1394,-5.1394,-5.1394,-5.1394,-5.1355,-5.1219,-5.0457,-5.0028,-4.9911,-4.913,-4.8333,-4.765,-4.7533,-4.7143,-4.6475,-4.6397,-4.6319,-4.63,-4.63,-4.63,-4.63,-4.63,-4.63,-4.63,-4.63,-4.63,-4.63,-4.6222,-4.6202,-4.6222,-4.6202,-4.6183,-4.6202,-4.6261,-4.63,-4.63,-4.63,-4.63,-4.63,-4.6378,-4.6671,-4.7354,-4.7686,-4.8408,-4.9774,-4.9833,-4.9969,-5.0028,-5.0048,-5.036,-5.1102,-5.1277,-5.1316,-5.1379,-5.1402,-5.1387,-5.1387,-5.1387,-5.1387,-5.1387,-5.1387,-5.1387,-5.1387,-5.1387,-5.1387,-5.1387,-5.1387,-5.1387,-5.1387,-5.1387,-5.1387,-5.1387,-5.1387,-5.1387,-5.1387,-5.1387,-5.1387,-5.1387,-5.1387,-5.1387,-5.1387,-5.1387,-5.1387,-5.1348,-5.1289,-5.1191,-5.082,-5.0391,-5.0215,-5.0137,-4.9414,-4.9277,-5.4322,-5.3463,-5.2585,-5.2234,-5.2175,-5.1648,-5.1394,-5.1394,-5.1394,-5.1394,-5.1394,-5.1394,-5.1394,-5.1394,-5.1394,-5.1394,-5.1394,-5.1394,-5.1394,-5.1394,-5.1394,-5.1394,-5.1394,-5.1394,-5.1394,-5.1394,-5.1394,-5.1394,-5.1375,-5.1082,-5.0633,-5.0145,-4.9794,-4.9208,-4.8525,-4.8369,-4.7962,-4.7217,-4.7139,-4.6866,-4.6358,-4.63,-4.63,-4.63,-4.63,-4.63,-4.63,-4.63,-4.63,-4.63,-4.63,-4.63,-4.63,-4.63,-4.63,-4.63,-4.63,-4.63,-4.63,-4.63,-4.63,-4.6339,-4.6827,-4.7237,-4.7705,-4.8564,-4.9481,-5.0048,-5.0672,-5.0906,-5.0945,-5.0926,-5.1043,-5.1316,-5.1394,-5.1385,-5.14,-5.1387,-5.1387,-5.1387,-5.1387,-5.1387,-5.1387,-5.1387,-5.1387,-5.1387,-5.1387,-5.1387,-5.1387,-5.1387,-5.1387,-5.1387,-5.1387,-5.1387,-5.1387,-5.1387,-5.1387,-5.1387,-5.1387,-5.1387,-5.1387,-5.1387,-5.1387,-5.1387,-5.1387,-5.1387,-5.1367,-5.1367,-5.1387,-5.1328,-5.0918,-5.0859,-5.0976,-5.0351,-5.0293,-5.4966,-5.4283,-5.319,-5.2702,-5.2605,-5.1785,-5.1394,-5.1394,-5.1394,-5.1394,-5.1394,-5.1394,-5.1394,-5.1394,-5.1394,-5.1394,-5.1394,-5.1394,-5.1394,-5.1394,-5.1394,-5.1394,-5.1394,-5.1394,-5.1394,-5.1394,-5.1394,-5.1394,-5.1394,-5.1394,-5.1082,-5.0555,-5.0535,-5.0087,-4.936,-4.9228,-4.8818,-4.8154,-4.7998,-4.7569,-4.6827,-4.671,-4.6554,-4.6339,-4.63,-4.63,-4.63,-4.63,-4.63,-4.63,-4.63,-4.63,-4.63,-4.63,-4.63,-4.63,-4.63,-4.63,-4.6358,-4.6554,-4.6729,-4.6749,-4.749,-4.8057,-4.8427,-4.9442,-5.0126,-5.0575,-5.0984,-5.1394,-5.1402,-5.1379,-5.1394,-5.1398,-5.1385,-5.1398,-5.1387,-5.1387,-5.1387,-5.1387,-5.1387,-5.1387,-5.1387,-5.1387,-5.1387,-5.1387,-5.1387,-5.1387,-5.1387,-5.1387,-5.1387,-5.1387,-5.1387,-5.1387,-5.1387,-5.1387,-5.1387,-5.1387,-5.1387,-5.1387,-5.1387,-5.1387,-5.1387,-5.1387,-5.1387,-5.1387,-5.1387,-5.1387,-5.1387,-5.1387,-5.1308,-5.1191,-5.1269,-5.1328,-5.1113,-5.5337,-5.5064,-5.3463,-5.2858,-5.2722,-5.1902,-5.1433,-5.1414,-5.1394,-5.1394,-5.1394,-5.1394,-5.1394,-5.1394,-5.1394,-5.1394,-5.1394,-5.1394,-5.1394,-5.1394,-5.1394,-5.1394,-5.1394,-5.1394,-5.1394,-5.1394,-5.1394,-5.1394,-5.1394,-5.1394,-5.1336,-5.1355,-5.1277,-5.0848,-5.0106,-5.0087,-4.9677,-4.9013,-4.8818,-4.8408,-4.7705,-4.7608,-4.7256,-4.6573,-4.6456,-4.6417,-4.6378,-4.6319,-4.63,-4.63,-4.63,-4.63,-4.63,-4.63,-4.63,-4.63,-4.6319,-4.6339,-4.6456,-4.7143,-4.7611,-4.7705,-4.8349,-4.9091,-4.9677,-5.0067,-5.0516,-5.1121,-5.1316,-5.1402,-5.1391,-5.1385,-5.1398,-5.1398,-5.1387,-5.1387,-5.1387,-5.1387,-5.1387,-5.1387,-5.1387,-5.1387,-5.1387,-5.1387,-5.1387,-5.1387,-5.1387,-5.1387,-5.1387,-5.1387,-5.1387,-5.1387,-5.1387,-5.1387,-5.1387,-5.1387,-5.1387,-5.1387,-5.1387,-5.1387,-5.1387,-5.1387,-5.1387,-5.1387,-5.1387,-5.1387,-5.1387,-5.1387,-5.1387,-5.1387,-5.1387,-5.1387,-5.1387,-5.1387,-5.1387,-5.6196,-5.6059,-5.4966,-5.4127,-5.3522,-5.2663,-5.198,-5.1414,-5.1394,-5.1394,-5.1394,-5.1394,-5.1394,-5.1394,-5.1394,-5.1394,-5.1394,-5.1394,-5.1394,-5.1394,-5.1394,-5.1394,-5.1394,-5.1394,-5.1394,-5.1394,-5.1394,-5.1394,-5.1394,-5.1394,-5.1394,-5.1394,-5.1394,-5.1277,-5.0984,-5.0965,-5.0555,-4.9794,-4.9696,-4.9286,-4.8505,-4.8427,-4.8271,-4.7998,-4.749,-4.7178,-4.7159,-4.6632,-4.6319,-4.63,-4.63,-4.63,-4.63,-4.63,-4.63,-4.6378,-4.6905,-4.7198,-4.7295,-4.7923,-4.8447,-4.8584,-4.9208,-4.9755,-5.0145,-5.0653,-5.1063,-5.1375,-5.1394,-5.1398,-5.1402,-5.1398,-5.1385,-5.1387,-5.1387,-5.1387,-5.1387,-5.1387,-5.1387,-5.1387,-5.1387,-5.1387,-5.1426,-5.1465,-5.1562,-5.1523,-5.1504,-5.1523,-5.1465,-5.1582,-5.1387,-5.1387,-5.1387,-5.1523,-5.1601,-5.1543,-5.1387,-5.1387,-5.1387,-5.1387,-5.1387,-5.1387,-5.1387,-5.1387,-5.1387,-5.1387,-5.1387,-5.1387,-5.1387,-5.1387,-5.1387,-5.1387,-5.1387,-5.1387,-5.1387,-5.6606,-5.6489,-5.565,-5.4791,-5.3932,-5.3073,-5.2214,-5.1472,-5.1394,-5.1394,-5.1394,-5.1394,-5.1394,-5.1394,-5.1394,-5.1394,-5.1394,-5.1394,-5.1394,-5.1394,-5.1394,-5.1394,-5.1394,-5.1394,-5.1394,-5.1394,-5.1394,-5.1394,-5.1394,-5.1394,-5.1394,-5.1394,-5.1394,-5.1394,-5.1394,-5.1375,-5.1082,-5.0633,-5.0575,-5.0165,-4.9462,-4.9286,-4.913,-4.8779,-4.831,-4.8057,-4.8017,-4.749,-4.6928,-4.6436,-4.63,-4.63,-4.6319,-4.6573,-4.6788,-4.6944,-4.751,-4.8057,-4.8135,-4.8802,-4.9286,-4.9419,-5.0087,-5.0575,-5.0672,-5.116,-5.1375,-5.1394,-5.1402,-5.1402,-5.1398,-5.1389,-5.14,-5.1387,-5.1387,-5.1387,-5.1387,-5.1387,-5.1601,-5.1777,-5.1933,-5.2031,-5.2266,-5.2363,-5.2383,-5.2363,-5.2363,-5.2363,-5.2363,-5.2422,-5.2324,-5.2187,-5.2129,-5.2129,-5.1933,-5.1719,-5.1426,-5.1387,-5.1387,-5.1387,-5.1387,-5.1387,-5.1387,-5.1387,-5.1387,-5.1387,-5.1387,-5.1387,-5.1387,-5.1387,-5.1387,-5.1387,-5.1387,-5.1387,-5.1387,-5.6606,-5.6489,-5.5728,-5.4869,-5.3951,-5.3171,-5.2312,-5.1472,-5.1394,-5.1394,-5.1394,-5.1394,-5.1394,-5.1394,-5.1394,-5.1394,-5.1394,-5.1394,-5.1394,-5.1394,-5.1394,-5.1394,-5.1394,-5.1394,-5.1394,-5.1394,-5.1394,-5.1394,-5.1394,-5.1394,-5.1394,-5.1394,-5.1394,-5.1394,-5.1394,-5.1394,-5.1375,-5.1277,-5.1316,-5.0887,-5.0223,-5.0184,-4.9852,-4.913,-4.8974,-4.8876,-4.8857,-4.8646,-4.7943,-4.671,-4.6651,-4.669,-4.6651,-4.7237,-4.7666,-4.7705,-4.8427,-4.8818,-4.9052,-4.9677,-5.0165,-5.0243,-5.0809,-5.1394,-5.1297,-5.1316,-5.1394,-5.1394,-5.1389,-5.1394,-5.1389,-5.14,-5.1387,-5.1387,-5.1387,-5.1387,-5.1387,-5.1445,-5.1894,-5.2461,-5.2734,-5.3027,-5.3652,-5.375,-5.3769,-5.3789,-5.3711,-5.3633,-5.3652,-5.3535,-5.3848,-5.3535,-5.291,-5.2539,-5.2285,-5.1699,-5.1426,-5.1387,-5.1387,-5.1387,-5.1387,-5.1387,-5.1387,-5.1387,-5.1387,-5.1387,-5.1387,-5.1387,-5.1387,-5.1387,-5.1387,-5.1387,-5.1387,-5.1387,-5.1387,-5.6606,-5.6586,-5.6352,-5.5396,-5.4088,-5.3737,-5.278,-5.1492,-5.1394,-5.1394,-5.1394,-5.1394,-5.1394,-5.1394,-5.1394,-5.1394,-5.1394,-5.1394,-5.1394,-5.1394,-5.1394,-5.1394,-5.1394,-5.1394,-5.1394,-5.1394,-5.1394,-5.1394,-5.1394,-5.1394,-5.1394,-5.1394,-5.1394,-5.1394,-5.1394,-5.1394,-5.1394,-5.1394,-5.1394,-5.1316,-5.1102,-5.1004,-5.0965,-5.0731,-5.0087,-4.9794,-4.9677,-4.913,-4.8681,-4.8232,-4.8135,-4.8154,-4.8076,-4.833,-4.8505,-4.8623,-4.9247,-4.9755,-4.9911,-5.0535,-5.1004,-5.1043,-5.1219,-5.1394,-5.1394,-5.1394,-5.1394,-5.1398,-5.1391,-5.14,-5.1384,-5.1387,-5.1387,-5.1387,-5.1445,-5.1465,-5.1543,-5.1973,-5.2461,-5.2695,-5.3301,-5.3769,-5.4043,-5.4141,-5.4141,-5.4141,-5.416,-5.418,-5.4336,-5.4297,-5.4433,-5.3867,-5.3301,-5.291,-5.2461,-5.1816,-5.1465,-5.1406,-5.1387,-5.1387,-5.1387,-5.1387,-5.1387,-5.1387,-5.1387,-5.1387,-5.1387,-5.1387,-5.1387,-5.1387,-5.1387,-5.1387,-5.1387,-5.1387,-5.1387,-5.6606,-5.6567,-5.6196,-5.5279,-5.401,-5.362,-5.2663,-5.157,-5.1394,-5.1394,-5.1394,-5.1394,-5.1394,-5.1394,-5.1394,-5.1394,-5.1394,-5.1394,-5.1394,-5.1394,-5.1394,-5.1394,-5.1394,-5.1394,-5.1394,-5.1394,-5.1394,-5.1394,-5.1394,-5.1394,-5.1394,-5.1394,-5.1394,-5.1394,-5.1394,-5.1394,-5.1394,-5.1394,-5.1394,-5.1394,-5.1394,-5.1394,-5.1375,-5.1336,-5.0867,-5.0653,-5.0575,-5.0165,-4.9618,-4.9013,-4.8779,-4.8798,-4.8837,-4.9189,-4.9325,-4.9384,-5.0165,-5.0653,-5.0711,-5.1141,-5.1375,-5.1394,-5.1394,-5.1394,-5.1394,-5.1394,-5.1394,-5.1394,-5.1391,-5.1402,-5.1387,-5.1387,-5.1387,-5.1426,-5.1719,-5.1914,-5.1953,-5.2363,-5.3027,-5.3613,-5.4219,-5.4726,-5.498,-5.5058,-5.5058,-5.5137,-5.5254,-5.5234,-5.5234,-5.5078,-5.4902,-5.4512,-5.3867,-5.3398,-5.2773,-5.2109,-5.1484,-5.1406,-5.1387,-5.1387,-5.1387,-5.1387,-5.1387,-5.1387,-5.1387,-5.1387,-5.1387,-5.1387,-5.1387,-5.1387,-5.1387,-5.1387,-5.1387,-5.1396,-5.1402,-5.6606,-5.6547,-5.5669,-5.4791,-5.3932,-5.3073,-5.2273,-5.1511,-5.1394,-5.1394,-5.1394,-5.1394,-5.1394,-5.1394,-5.1394,-5.1394,-5.1394,-5.1394,-5.1394,-5.1394,-5.1394,-5.1394,-5.1394,-5.1394,-5.1394,-5.1394,-5.1394,-5.1394,-5.1394,-5.1394,-5.1394,-5.1394,-5.1394,-5.1394,-5.1394,-5.1394,-5.1394,-5.1394,-5.1394,-5.1394,-5.1394,-5.1394,-5.1394,-5.1375,-5.1336,-5.1258,-5.1277,-5.116,-5.0653,-4.9165,-4.9068,-4.9247,-4.9286,-4.9891,-5.0184,-5.0321,-5.0848,-5.1277,-5.1355,-5.1336,-5.1394,-5.1394,-5.1394,-5.1394,-5.1394,-5.1394,-5.1394,-5.1394,-5.1389,-5.14,-5.1387,-5.1387,-5.1387,-5.1504,-5.2129,-5.2637,-5.2832,-5.291,-5.3594,-5.5019,-5.5312,-5.584,-5.6289,-5.6621,-5.6543,-5.5898,-5.6015,-5.5976,-5.5976,-5.5937,-5.582,-5.5664,-5.4844,-5.3887,-5.3164,-5.2383,-5.1797,-5.1387,-5.1387,-5.1387,-5.1387,-5.1387,-5.1387,-5.1387,-5.1387,-5.1387,-5.1387,-5.1387,-5.1387,-5.1387,-5.1387,-5.1387,-5.1385,-5.1385,-5.1394,-5.6606,-5.6528,-5.565,-5.4791,-5.3932,-5.3073,-5.2175,-5.1414,-5.1394,-5.1394,-5.1394,-5.1394,-5.1394,-5.1394,-5.1394,-5.1394,-5.1394,-5.1394,-5.1394,-5.1394,-5.1394,-5.1394,-5.1394,-5.1394,-5.1394,-5.1394,-5.1394,-5.1394,-5.1394,-5.1394,-5.1394,-5.1394,-5.1394,-5.1394,-5.1394,-5.1394,-5.1394,-5.1394,-5.1394,-5.1394,-5.1394,-5.1394,-5.1394,-5.1394,-5.1394,-5.1394,-5.1394,-5.1394,-5.1199,-5.0945,-5.077,-5.0614,-5.0692,-5.0906,-5.1023,-5.1063,-5.1199,-5.1394,-5.1394,-5.1394,-5.1394,-5.1394,-5.1394,-5.1394,-5.1394,-5.1394,-5.1394,-5.1394,-5.1398,-5.1394,-5.1387,-5.1387,-5.1445,-5.1641,-5.2266,-5.3027,-5.3652,-5.4297,-5.4824,-5.5312,-5.5898,-5.6387,-5.6562,-5.6601,-5.6621,-5.6621,-5.6621,-5.6621,-5.6601,-5.6601,-5.6308,-5.5996,-5.5,-5.3887,-5.3047,-5.2305,-5.1758,-5.1387,-5.1387,-5.1387,-5.1387,-5.1387,-5.1387,-5.1387,-5.1387,-5.1387,-5.1387,-5.1387,-5.1387,-5.1387,-5.1402,-5.1391,-5.1402,-5.1398,-5.157,-5.6372,-5.5923,-5.5064,-5.4186,-5.3307,-5.2468,-5.1824,-5.1453,-5.1394,-5.1394,-5.1394,-5.1394,-5.1394,-5.1394,-5.1394,-5.1394,-5.1394,-5.1394,-5.1394,-5.1394,-5.1394,-5.1394,-5.1394,-5.1394,-5.1394,-5.1394,-5.1394,-5.1394,-5.1394,-5.1394,-5.1394,-5.1394,-5.1394,-5.1394,-5.1394,-5.1394,-5.1394,-5.1394,-5.1394,-5.1394,-5.1394,-5.1394,-5.1394,-5.1394,-5.1394,-5.1394,-5.1394,-5.1394,-5.1394,-5.1394,-5.1394,-5.1394,-5.1394,-5.1394,-5.1394,-5.1394,-5.1394,-5.1394,-5.1394,-5.1394,-5.1394,-5.1394,-5.1394,-5.1394,-5.1394,-5.1394,-5.1402,-5.1382,-5.1385,-5.1387,-5.1387,-5.1387,-5.1504,-5.209,-5.2754,-5.3633,-5.4453,-5.5039,-5.5508,-5.582,-5.6308,-5.6504,-5.6601,-5.6621,-5.6621,-5.6621,-5.6621,-5.6601,-5.6601,-5.6523,-5.6074,-5.5586,-5.4668,-5.373,-5.2851,-5.2168,-5.1601,-5.1387,-5.1387,-5.1387,-5.1387,-5.1387,-5.1387,-5.1387,-5.1387,-5.1387,-5.1387,-5.1387,-5.1402,-5.1396,-5.1389,-5.1402,-5.1535,-5.1804,-5.2019,-5.5981,-5.5201,-5.4225,-5.3385,-5.2624,-5.1804,-5.1433,-5.1394,-5.1394,-5.1394,-5.1394,-5.1394,-5.1394,-5.1394,-5.1394,-5.1394,-5.1394,-5.1394,-5.1394,-5.1394,-5.1394,-5.1394,-5.1394,-5.1394,-5.1394,-5.1394,-5.1394,-5.1394,-5.1394,-5.1394,-5.1394,-5.1394,-5.1394,-5.1394,-5.1394,-5.1394,-5.1394,-5.1394,-5.1394,-5.1394,-5.1394,-5.1394,-5.1394,-5.1394,-5.1394,-5.1394,-5.1394,-5.1394,-5.1394,-5.1394,-5.1394,-5.1394,-5.1394,-5.1394,-5.1394,-5.1394,-5.1394,-5.1394,-5.1394,-5.1394,-5.1394,-5.1394,-5.1394,-5.1394,-5.1394,-5.1394,-5.1382,-5.1391,-5.1394,-5.1387,-5.1387,-5.1387,-5.1836,-5.2539,-5.3437,-5.4336,-5.5078,-5.5371,-5.5898,-5.6348,-5.6504,-5.6582,-5.6621,-5.6621,-5.6621,-5.6621,-5.6621,-5.6523,-5.6484,-5.6211,-5.5664,-5.4863,-5.3887,-5.3144,-5.2324,-5.2031,-5.1484,-5.1562,-5.1523,-5.1699,-5.1777,-5.2168,-5.2246,-5.1504,-5.1387,-5.1465,-5.1445,-5.1387,-5.1389,-5.1398,-5.1457,-5.1515,-5.1828,-5.2234,-5.2546,-5.5435,-5.5162,-5.358,-5.2819,-5.2585,-5.1765,-5.1394,-5.1394,-5.1394,-5.1394,-5.1394,-5.1394,-5.1394,-5.1394,-5.1394,-5.1394,-5.1394,-5.1394,-5.1394,-5.1394,-5.1394,-5.1394,-5.1394,-5.1394,-5.1394,-5.1394,-5.1394,-5.1394,-5.1394,-5.1394,-5.1394,-5.1394,-5.1394,-5.1394,-5.1394,-5.1394,-5.1394,-5.1394,-5.1394,-5.1394,-5.1394,-5.1394,-5.1394,-5.1394,-5.1394,-5.1394,-5.1394,-5.1394,-5.1394,-5.1394,-5.1394,-5.1394,-5.1394,-5.1394,-5.1394,-5.1394,-5.1394,-5.1394,-5.1394,-5.1394,-5.1394,-5.1394,-5.1394,-5.1394,-5.1394,-5.1394,-5.1385,-5.1398,-5.1387,-5.1387,-5.1387,-5.1387,-5.1855,-5.2637,-5.3476,-5.4375,-5.5234,-5.5879,-5.6289,-5.6562,-5.6621,-5.6621,-5.6621,-5.6621,-5.6621,-5.6621,-5.6621,-5.6211,-5.582,-5.5449,-5.4922,-5.4004,-5.2988,-5.2344,-5.168,-5.1621,-5.1445,-5.1758,-5.1933,-5.2402,-5.2656,-5.3281,-5.3203,-5.2402,-5.1875,-5.1816,-5.1719,-5.1675,-5.1749,-5.2003,-5.1867,-5.173,-5.2351,-5.2995,-5.3307,-5.4771,-5.3893,-5.3034,-5.2429,-5.1999,-5.159,-5.1394,-5.1394,-5.1394,-5.1394,-5.1394,-5.1394,-5.1394,-5.1394,-5.1394,-5.1394,-5.1394,-5.1394,-5.1394,-5.1394,-5.1394,-5.1394,-5.1394,-5.1394,-5.1394,-5.1394,-5.1394,-5.1394,-5.1394,-5.1394,-5.1394,-5.1394,-5.1394,-5.1394,-5.1394,-5.1394,-5.1394,-5.1394,-5.1394,-5.1394,-5.1394,-5.1394,-5.1394,-5.1394,-5.1394,-5.1394,-5.1394,-5.1394,-5.1394,-5.1394,-5.1394,-5.1394,-5.1394,-5.1394,-5.1394,-5.1394,-5.1394,-5.1394,-5.1394,-5.1394,-5.1394,-5.1394,-5.1394,-5.1394,-5.1394,-5.1398,-5.1389,-5.1387,-5.1387,-5.1387,-5.1387,-5.1406,-5.2051,-5.3105,-5.3789,-5.4609,-5.5625,-5.6289,-5.6523,-5.6621,-5.6621,-5.6621,-5.6621,-5.6621,-5.6621,-5.6621,-5.6601,-5.6015,-5.5293,-5.4805,-5.4316,-5.3301,-5.2402,-5.1973,-5.1504,-5.1465,-5.166,-5.1973,-5.2402,-5.2871,-5.3418,-5.3965,-5.3828,-5.3223,-5.2812,-5.2754,-5.2775,-5.2995,-5.2819,-5.2663,-5.278,-5.2956,-5.3327,-5.3717,-5.4068,-5.3971,-5.2702,-5.2507,-5.2038,-5.1453,-5.1394,-5.1394,-5.1394,-5.1394,-5.1394,-5.1394,-5.1394,-5.1394,-5.1394,-5.1394,-5.1394,-5.1394,-5.1394,-5.1394,-5.1394,-5.1394,-5.1394,-5.1394,-5.1394,-5.1394,-5.1394,-5.1394,-5.1394,-5.1394,-5.1394,-5.1394,-5.1394,-5.1394,-5.1394,-5.1394,-5.1394,-5.1394,-5.1394,-5.1394,-5.1394,-5.1394,-5.1394,-5.1394,-5.1394,-5.1394,-5.1394,-5.1394,-5.1394,-5.1394,-5.1394,-5.1394,-5.1394,-5.1394,-5.1394,-5.1394,-5.1394,-5.1394,-5.1394,-5.1394,-5.1394,-5.1394,-5.1394,-5.1394,-5.1394,-5.1394,-5.1398,-5.1387,-5.1387,-5.1387,-5.1387,-5.1426,-5.1601,-5.2422,-5.3516,-5.4199,-5.4785,-5.5937,-5.6582,-5.6562,-5.6621,-5.6621,-5.6621,-5.6621,-5.6621,-5.6621,-5.6387,-5.6348,-5.5566,-5.4863,-5.4375,-5.3769,-5.2734,-5.1953,-5.166,-5.1426,-5.1426,-5.1797,-5.2363,-5.2891,-5.3457,-5.4004,-5.459,-5.4375,-5.4414,-5.4531,-5.4496,-5.4428,-5.401,-5.36,-5.3463,-5.3834,-5.4108,-5.4283,-5.4556,-5.4908,-5.2878,-5.2624,-5.1863,-5.1492,-5.1414,-5.1394,-5.1394,-5.1394,-5.1394,-5.1394,-5.1394,-5.1394,-5.1394,-5.1394,-5.1394,-5.1394,-5.1394,-5.1394,-5.1394,-5.1394,-5.1394,-5.1394,-5.1394,-5.1394,-5.1394,-5.1394,-5.1394,-5.1394,-5.1394,-5.1394,-5.1394,-5.1394,-5.1394,-5.1394,-5.1394,-5.1394,-5.1394,-5.1394,-5.1394,-5.1394,-5.1394,-5.1394,-5.1394,-5.1394,-5.1394,-5.1394,-5.1394,-5.1394,-5.1394,-5.1394,-5.1394,-5.1394,-5.1394,-5.1394,-5.1394,-5.1394,-5.1394,-5.1394,-5.1394,-5.1394,-5.1394,-5.1394,-5.1394,-5.1394,-5.1394,-5.1394,-5.1387,-5.1387,-5.1387,-5.1484,-5.166,-5.2109,-5.2969,-5.3848,-5.4668,-5.539,-5.6367,-5.6621,-5.6621,-5.6621,-5.6621,-5.6621,-5.6621,-5.6621,-5.6582,-5.6328,-5.5937,-5.5156,-5.4355,-5.3789,-5.3223,-5.2187,-5.1758,-5.1484,-5.1387,-5.1387,-5.2031,-5.2676,-5.3281,-5.3984,-5.4805,-5.543,-5.5898,-5.5957,-5.5999,-5.5606,-5.499,-5.4517,-5.4166,-5.4283,-5.4654,-5.4888,-5.5083,-5.5396,-5.5689,-5.196,-5.1921,-5.157,-5.1394,-5.1394,-5.1394,-5.1394,-5.1394,-5.1394,-5.1394,-5.1394,-5.1394,-5.1394,-5.1394,-5.1394,-5.1394,-5.1394,-5.1394,-5.1394,-5.1394,-5.1394,-5.1394,-5.1394,-5.1394,-5.1394,-5.1394,-5.1394,-5.1394,-5.1394,-5.1394,-5.1394,-5.1394,-5.1394,-5.1394,-5.1394,-5.1394,-5.1394,-5.1394,-5.1394,-5.1394,-5.1394,-5.1394,-5.1394,-5.1394,-5.1394,-5.1394,-5.1394,-5.1394,-5.1394,-5.1394,-5.1394,-5.1394,-5.1394,-5.1394,-5.1394,-5.1394,-5.1394,-5.1394,-5.1394,-5.1394,-5.1394,-5.1394,-5.1394,-5.1394,-5.1394,-5.1394,-5.1385,-5.1387,-5.1387,-5.1601,-5.2012,-5.2461,-5.3457,-5.4355,-5.5098,-5.5723,-5.6348,-5.6484,-5.6621,-5.6621,-5.6621,-5.6621,-5.6621,-5.6621,-5.6582,-5.6406,-5.5781,-5.4863,-5.3848,-5.2871,-5.2305,-5.166,-5.1484,-5.1406,-5.1387,-5.1426,-5.2305,-5.2969,-5.3496,-5.4336,-5.5605,-5.6328,-5.6549,-5.6618,-5.6399,-5.5927,-5.5396,-5.5376,-5.5357,-5.5415,-5.5493,-5.565,-5.5806,-5.5981,-5.6235,-5.1394,-5.1394,-5.1394,-5.1394,-5.1394,-5.1394,-5.1394,-5.1394,-5.1394,-5.1394,-5.1394,-5.1394,-5.1394,-5.1394,-5.1394,-5.1394,-5.1394,-5.1394,-5.1394,-5.1394,-5.1394,-5.1394,-5.1394,-5.1394,-5.1394,-5.1394,-5.1394,-5.1394,-5.1394,-5.1394,-5.1394,-5.1394,-5.1394,-5.1394,-5.1394,-5.1394,-5.1394,-5.1394,-5.1394,-5.1394,-5.1394,-5.1394,-5.1394,-5.1394,-5.1394,-5.1394,-5.1394,-5.1394,-5.1394,-5.1394,-5.1394,-5.1394,-5.1394,-5.1394,-5.1394,-5.1394,-5.1394,-5.1394,-5.1394,-5.1394,-5.1394,-5.1394,-5.1394,-5.1394,-5.1394,-5.1394,-5.1402,-5.1398,-5.1737,-5.2109,-5.2598,-5.3008,-5.4062,-5.4883,-5.5508,-5.6015,-5.6426,-5.6543,-5.6621,-5.6621,-5.6621,-5.6621,-5.6621,-5.6621,-5.6543,-5.6445,-5.5703,-5.4629,-5.3457,-5.2226,-5.1836,-5.1387,-5.1387,-5.1387,-5.1387,-5.166,-5.2519,-5.3125,-5.3652,-5.4414,-5.5508,-5.6259,-5.6575,-5.6606,-5.6567,-5.643,-5.6001,-5.6313,-5.6586,-5.6274,-5.6079,-5.6333,-5.6508,-5.6606,-5.6606,-5.1394,-5.1394,-5.1394,-5.1394,-5.1394,-5.1394,-5.1394,-5.1394,-5.1394,-5.1394,-5.1394,-5.1394,-5.1394,-5.1394,-5.1394,-5.1394,-5.1394,-5.1394,-5.1394,-5.1394,-5.1394,-5.1394,-5.1394,-5.1394,-5.1394,-5.1394,-5.1394,-5.1394,-5.1394,-5.1394,-5.1394,-5.1394,-5.1394,-5.1394,-5.1394,-5.1394,-5.1394,-5.1394,-5.1394,-5.1394,-5.1394,-5.1394,-5.1394,-5.1394,-5.1394,-5.1394,-5.1394,-5.1394,-5.1394,-5.1394,-5.1394,-5.1394,-5.1394,-5.1394,-5.1394,-5.1394,-5.1394,-5.1394,-5.1394,-5.1394,-5.1394,-5.1394,-5.1394,-5.1394,-5.1394,-5.1394,-5.1385,-5.1474,-5.1951,-5.25,-5.3164,-5.3984,-5.4844,-5.543,-5.5918,-5.623,-5.6523,-5.6543,-5.6621,-5.6621,-5.6621,-5.6621,-5.6621,-5.6621,-5.6621,-5.6504,-5.5176,-5.4101,-5.293,-5.1836,-5.1641,-5.1387,-5.1387,-5.1387,-5.1387,-5.1777,-5.2168,-5.2754,-5.332,-5.4121,-5.5078,-5.5708,-5.6294,-5.643,-5.6372,-5.6489,-5.6606,-5.6606,-5.6606,-5.6606,-5.6606,-5.6606,-5.6606,-5.6606,-5.6606,-5.1394,-5.1394,-5.1394,-5.1394,-5.1394,-5.1394,-5.1394,-5.1394,-5.1394,-5.1394,-5.1394,-5.1394,-5.1394,-5.1394,-5.1394,-5.1394,-5.1394,-5.1394,-5.1394,-5.1394,-5.1394,-5.1394,-5.1394,-5.1394,-5.1394,-5.1394,-5.1394,-5.1394,-5.1394,-5.1394,-5.1394,-5.1394,-5.1394,-5.1394,-5.1394,-5.1394,-5.1394,-5.1394,-5.1394,-5.1394,-5.1394,-5.1394,-5.1394,-5.1394,-5.1394,-5.1394,-5.1394,-5.1394,-5.1394,-5.1394,-5.1394,-5.1394,-5.1394,-5.1394,-5.1394,-5.1394,-5.1394,-5.1394,-5.1394,-5.1394,-5.1394,-5.1394,-5.1394,-5.1394,-5.1394,-5.1394,-5.1398,-5.1665,-5.2243,-5.2891,-5.3672,-5.4551,-5.539,-5.5937,-5.6308,-5.6543,-5.6621,-5.6621,-5.6621,-5.6621,-5.6621,-5.6621,-5.6621,-5.6621,-5.6621,-5.6484,-5.498,-5.3594,-5.2558,-5.1738,-5.1601,-5.1426,-5.1387,-5.1387,-5.1387,-5.1562,-5.1738,-5.2324,-5.2969,-5.3672,-5.4447,-5.5181,-5.5708,-5.5923,-5.6235,-5.6411,-5.6528,-5.6586,-5.6606,-5.6606,-5.6606,-5.6606,-5.6606,-5.6606,-5.6606,-5.1394,-5.1394,-5.1394,-5.1394,-5.1394,-5.1394,-5.1394,-5.1394,-5.1394,-5.1394,-5.1394,-5.1394,-5.1394,-5.1394,-5.1394,-5.1394,-5.1394,-5.1394,-5.1394,-5.1394,-5.1394,-5.1394,-5.1394,-5.1394,-5.1394,-5.1394,-5.1394,-5.1394,-5.1394,-5.1394,-5.1394,-5.1394,-5.1394,-5.1394,-5.1394,-5.1394,-5.1394,-5.1394,-5.1394,-5.1394,-5.1394,-5.1394,-5.1394,-5.1394,-5.1394,-5.1394,-5.1394,-5.1394,-5.1394,-5.1394,-5.1394,-5.1394,-5.1394,-5.1394,-5.1394,-5.1394,-5.1394,-5.1394,-5.1394,-5.1394,-5.1394,-5.1394,-5.1394,-5.1394,-5.1394,-5.1414,-5.1472,-5.1945,-5.2626,-5.3437,-5.4277,-5.5254,-5.5879,-5.6387,-5.6445,-5.6621,-5.6621,-5.6621,-5.6621,-5.6621,-5.6621,-5.6621,-5.6621,-5.6582,-5.6328,-5.623,-5.541,-5.4023,-5.2812,-5.2148,-5.1816,-5.1601,-5.1387,-5.1387,-5.1406,-5.1504,-5.1621,-5.1875,-5.248,-5.2969,-5.3692,-5.4443,-5.5162,-5.5532,-5.5864,-5.6255,-5.6469,-5.6586,-5.6606,-5.6606,-5.6606,-5.6606,-5.6606,-5.6606,-5.6606,-5.1394,-5.1394,-5.1394,-5.1394,-5.1394,-5.1394,-5.1394,-5.1394,-5.1394,-5.1394,-5.1394,-5.1394,-5.1394,-5.1394,-5.1394,-5.1394,-5.1394,-5.1394,-5.1394,-5.1394,-5.1394,-5.1394,-5.1394,-5.1394,-5.1394,-5.1394,-5.1394,-5.1394,-5.1394,-5.1394,-5.1394,-5.1394,-5.1394,-5.1394,-5.1394,-5.1394,-5.1394,-5.1394,-5.1394,-5.1394,-5.1394,-5.1394,-5.1394,-5.1394,-5.1394,-5.1394,-5.1394,-5.1394,-5.1394,-5.1394,-5.1394,-5.1394,-5.1394,-5.1394,-5.1394,-5.1394,-5.1394,-5.1394,-5.1394,-5.1394,-5.1394,-5.1394,-5.1394,-5.1394,-5.1394,-5.1453,-5.1746,-5.2277,-5.326,-5.4189,-5.5117,-5.5937,-5.6348,-5.6543,-5.6601,-5.6621,-5.6621,-5.6621,-5.6621,-5.6621,-5.6621,-5.6621,-5.6621,-5.6523,-5.6133,-5.584,-5.5469,-5.4551,-5.3359,-5.2519,-5.2168,-5.1875,-5.1621,-5.1387,-5.1387,-5.1387,-5.1504,-5.1699,-5.1949,-5.237,-5.297,-5.3744,-5.4404,-5.5025,-5.5708,-5.6255,-5.6469,-5.6606,-5.6606,-5.6606,-5.6606,-5.6606,-5.6606,-5.6606,-5.6606,-5.1394,-5.1394,-5.1394,-5.1394,-5.1394,-5.1394,-5.1394,-5.1394,-5.1394,-5.1394,-5.1394,-5.1394,-5.1394,-5.1394,-5.1394,-5.1394,-5.1394,-5.1394,-5.1394,-5.1394,-5.1394,-5.1394,-5.1394,-5.1394,-5.1394,-5.1394,-5.1394,-5.1394,-5.1394,-5.1394,-5.1394,-5.1394,-5.1394,-5.1394,-5.1394,-5.1394,-5.1394,-5.1394,-5.1394,-5.1394,-5.1394,-5.1394,-5.1394,-5.1394,-5.1394,-5.1394,-5.1394,-5.1394,-5.1394,-5.1394,-5.1394,-5.1394,-5.1394,-5.1394,-5.1394,-5.1394,-5.1394,-5.1394,-5.1394,-5.1394,-5.1394,-5.1394,-5.1394,-5.1394,-5.1394,-5.1394,-5.1882,-5.2644,-5.3522,-5.4392,-5.5195,-5.6055,-5.6504,-5.6582,-5.6621,-5.6621,-5.6621,-5.6621,-5.6621,-5.6621,-5.6621,-5.6621,-5.6621,-5.6621,-5.6308,-5.6055,-5.5762,-5.541,-5.4433,-5.3223,-5.25,-5.2226,-5.1953,-5.1582,-5.1445,-5.1816,-5.1875,-5.1973,-5.1806,-5.1675,-5.2316,-5.3311,-5.3936,-5.4693,-5.5513,-5.6255,-5.645,-5.6606,-5.6606,-5.6606,-5.6606,-5.6606,-5.6606,-5.6606,-5.6606,-5.1394,-5.1394,-5.1394,-5.1394,-5.1394,-5.1394,-5.1394,-5.1394,-5.1394,-5.1394,-5.1394,-5.1394,-5.1394,-5.1394,-5.1394,-5.1394,-5.1394,-5.1394,-5.1394,-5.1394,-5.1394,-5.1394,-5.1394,-5.1394,-5.1394,-5.1394,-5.1394,-5.1394,-5.1394,-5.1394,-5.1394,-5.1394,-5.1394,-5.1394,-5.1394,-5.1394,-5.1394,-5.1394,-5.1394,-5.1394,-5.1394,-5.1394,-5.1394,-5.1394,-5.1394,-5.1394,-5.1394,-5.1394,-5.1394,-5.1394,-5.1394,-5.1394,-5.1394,-5.1394,-5.1394,-5.1394,-5.1394,-5.1394,-5.1394,-5.1394,-5.1394,-5.1394,-5.1394,-5.1394,-5.1394,-5.1394,-5.2175,-5.2956,-5.3678,-5.4635,-5.5576,-5.6401,-5.6543,-5.6601,-5.6621,-5.6621,-5.6621,-5.6621,-5.6621,-5.6621,-5.6621,-5.6621,-5.6621,-5.6621,-5.6523,-5.6328,-5.6113,-5.5762,-5.539,-5.4277,-5.3242,-5.2949,-5.2773,-5.2598,-5.2519,-5.2637,-5.2598,-5.2344,-5.2175,-5.2042,-5.2565,-5.3678,-5.401,-5.44,-5.5259,-5.5981,-5.643,-5.6606,-5.6606,-5.6606,-5.6606,-5.6606,-5.6606,-5.6606,-5.6606,-5.1394,-5.1394,-5.1394,-5.1394,-5.1394,-5.1394,-5.1394,-5.1394,-5.1394,-5.1394,-5.1394,-5.1394,-5.1394,-5.1394,-5.1394,-5.1394,-5.1394,-5.1394,-5.1394,-5.1394,-5.1394,-5.1394,-5.1394,-5.1394,-5.1394,-5.1394,-5.1394,-5.1394,-5.1394,-5.1394,-5.1394,-5.1394,-5.1394,-5.1394,-5.1394,-5.1394,-5.1394,-5.1394,-5.1394,-5.1394,-5.1394,-5.1394,-5.1394,-5.1394,-5.1394,-5.1394,-5.1394,-5.1394,-5.1394,-5.1394,-5.1394,-5.1394,-5.1394,-5.1394,-5.1394,-5.1394,-5.1394,-5.1394,-5.1394,-5.1394,-5.1394,-5.1394,-5.1394,-5.1394,-5.1453,-5.159,-5.2448,-5.3346,-5.4147,-5.5201,-5.622,-5.6399,-5.6601,-5.6621,-5.6621,-5.6621,-5.6621,-5.6621,-5.6621,-5.6621,-5.6621,-5.6621,-5.6621,-5.6621,-5.6621,-5.6523,-5.6348,-5.6152,-5.5762,-5.5351,-5.4433,-5.3984,-5.3848,-5.3808,-5.3711,-5.3457,-5.334,-5.3086,-5.3327,-5.3334,-5.378,-5.401,-5.4439,-5.4849,-5.5201,-5.5728,-5.6352,-5.6606,-5.6606,-5.6606,-5.6606,-5.6606,-5.6606,-5.6606,-5.6606,-5.1394,-5.1394,-5.1394,-5.1394,-5.1394,-5.1394,-5.1394,-5.1394,-5.1394,-5.1394,-5.1394,-5.1394,-5.1394,-5.1394,-5.1394,-5.1394,-5.1394,-5.1394,-5.1394,-5.1394,-5.1394,-5.1394,-5.1394,-5.1394,-5.1394,-5.1394,-5.1394,-5.1394,-5.1394,-5.1394,-5.1394,-5.1394,-5.1394,-5.1394,-5.1394,-5.1394,-5.1394,-5.1394,-5.1394,-5.1394,-5.1394,-5.1394,-5.1394,-5.1394,-5.1394,-5.1394,-5.1394,-5.1394,-5.1394,-5.1394,-5.1394,-5.1394,-5.1394,-5.1394,-5.1394,-5.1394,-5.1394,-5.1394,-5.1394,-5.1394,-5.1394,-5.1394,-5.1394,-5.1394,-5.155,-5.198,-5.2761,-5.362,-5.4498,-5.5493,-5.6216,-5.6508,-5.661,-5.6618,-5.661,-5.6621,-5.6621,-5.6621,-5.6621,-5.6621,-5.6621,-5.6621,-5.6621,-5.6621,-5.6621,-5.6621,-5.6543,-5.6387,-5.6172,-5.5762,-5.5469,-5.5,-5.4726,-5.4609,-5.4238,-5.3965,-5.3926,-5.3904,-5.4216,-5.4373,-5.4365,-5.4596,-5.4966,-5.5337,-5.5708,-5.6059,-5.6469,-5.6586,-5.6606,-5.6606,-5.6606,-5.6606,-5.6606,-5.6606,-5.6606,-5.1394,-5.1394,-5.1394,-5.1394,-5.1394,-5.1394,-5.1394,-5.1394,-5.1394,-5.1394,-5.1394,-5.1394,-5.1394,-5.1394,-5.1394,-5.1394,-5.1394,-5.1394,-5.1394,-5.1394,-5.1394,-5.1394,-5.1394,-5.1394,-5.1394,-5.1394,-5.1394,-5.1394,-5.1394,-5.1394,-5.1394,-5.1394,-5.1394,-5.1394,-5.1394,-5.1394,-5.1394,-5.1394,-5.1394,-5.1394,-5.1394,-5.1394,-5.1394,-5.1394,-5.1394,-5.1394,-5.1394,-5.1394,-5.1394,-5.1394,-5.1394,-5.1394,-5.1394,-5.1394,-5.1394,-5.1394,-5.1394,-5.1394,-5.1394,-5.1394,-5.1394,-5.1394,-5.1394,-5.1394,-5.1687,-5.2136,-5.2995,-5.3854,-5.4752,-5.5591,-5.6138,-5.6606,-5.6606,-5.6606,-5.6614,-5.6618,-5.6621,-5.6621,-5.6621,-5.6621,-5.6621,-5.6621,-5.6621,-5.6621,-5.6621,-5.6621,-5.6621,-5.6562,-5.6426,-5.6211,-5.6074,-5.584,-5.5547,-5.5312,-5.4961,-5.4785,-5.4961,-5.5101,-5.5326,-5.54,-5.5142,-5.5279,-5.5728,-5.6001,-5.6216,-5.645,-5.6586,-5.6606,-5.6606,-5.6606,-5.6606,-5.6606,-5.6606,-5.6606,-5.6606,-5.1394,-5.1394,-5.1394,-5.1394,-5.1394,-5.1394,-5.1394,-5.1394,-5.1394,-5.1394,-5.1394,-5.1394,-5.1394,-5.1394,-5.1394,-5.1394,-5.1394,-5.1394,-5.1394,-5.1394,-5.1394,-5.1394,-5.1394,-5.1394,-5.1394,-5.1394,-5.1394,-5.1394,-5.1394,-5.1394,-5.1394,-5.1394,-5.1394,-5.1394,-5.1394,-5.1394,-5.1394,-5.1394,-5.1394,-5.1394,-5.1394,-5.1394,-5.1394,-5.1394,-5.1394,-5.1394,-5.1394,-5.1394,-5.1394,-5.1394,-5.1394,-5.1394,-5.1394,-5.1394,-5.1394,-5.1394,-5.1394,-5.1394,-5.1394,-5.1394,-5.1394,-5.1394,-5.1394,-5.1394,-5.1668,-5.2526,-5.3444,-5.4108,-5.4947,-5.5786,-5.6411,-5.6586,-5.6606,-5.6606,-5.661,-5.661,-5.6618,-5.6607,-5.6621,-5.6621,-5.6621,-5.6621,-5.6621,-5.6621,-5.6621,-5.6621,-5.6621,-5.6621,-5.6582,-5.6484,-5.6445,-5.6406,-5.6172,-5.5937,-5.6015,-5.5937,-5.6191,-5.638,-5.6328,-5.6274,-5.5923,-5.6157,-5.6547,-5.6528,-5.645,-5.6508,-5.6606,-5.6606,-5.6606,-5.6606,-5.6606,-5.6606,-5.6606,-5.6606,-5.6606,-5.1394,-5.1394,-5.1394,-5.1394,-5.1394,-5.1394,-5.1394,-5.1394,-5.1394,-5.1394,-5.1394,-5.1394,-5.1394,-5.1394,-5.1394,-5.1394,-5.1394,-5.1394,-5.1394,-5.1394,-5.1394,-5.1394,-5.1394,-5.1394,-5.1394,-5.1394,-5.1394,-5.1394,-5.1394,-5.1394,-5.1394,-5.1394,-5.1394,-5.1394,-5.1394,-5.1394,-5.1394,-5.1394,-5.1394,-5.1394,-5.1394,-5.1394,-5.1394,-5.1394,-5.1394,-5.1394,-5.1394,-5.1394,-5.1394,-5.1394,-5.1394,-5.1394,-5.1394,-5.1394,-5.1394,-5.1394,-5.1394,-5.1394,-5.1394,-5.1394,-5.1394,-5.1394,-5.1394,-5.1394,-5.1863,-5.2995,-5.3854,-5.442,-5.5142,-5.5981,-5.6508,-5.6567,-5.6606,-5.6606,-5.6606,-5.6606,-5.6606,-5.6614,-5.6605,-5.6612,-5.662,-5.6621,-5.6621,-5.6621,-5.6621,-5.6621,-5.6621,-5.6621,-5.6621,-5.6562,-5.6543,-5.6523,-5.6543,-5.6465,-5.6621,-5.6621,-5.6621,-5.6618,-5.649,-5.654,-5.6606,-5.6606,-5.6606,-5.6606,-5.6586,-5.6606,-5.6606,-5.6606,-5.6606,-5.6606,-5.6606,-5.6606,-5.6606,-5.6606,-5.6606,-5.1394,-5.1394,-5.1394,-5.1394,-5.1394,-5.1394,-5.1394,-5.1394,-5.1394,-5.1394,-5.1394,-5.1394,-5.1394,-5.1394,-5.1394,-5.1394,-5.1394,-5.1394,-5.1394,-5.1394,-5.1394,-5.1394,-5.1394,-5.1394,-5.1394,-5.1394,-5.1394,-5.1394,-5.1394,-5.1394,-5.1394,-5.1394,-5.1394,-5.1394,-5.1394,-5.1394,-5.1394,-5.1394,-5.1394,-5.1394,-5.1394,-5.1394,-5.1394,-5.1394,-5.1394,-5.1394,-5.1394,-5.1394,-5.1394,-5.1394,-5.1394,-5.1394,-5.1394,-5.1394,-5.1394,-5.1394,-5.1394,-5.1394,-5.1394,-5.1394,-5.1394,-5.1394,-5.1394,-5.1394,-5.1687,-5.2761,-5.3756,-5.442,-5.563,-5.6508,-5.6547,-5.6606,-5.6606,-5.6606,-5.6606,-5.6606,-5.6606,-5.661,-5.6614,-5.6618,-5.661,-5.6621,-5.6621,-5.6621,-5.6621,-5.6621,-5.6621,-5.6621,-5.6621,-5.6621,-5.6621,-5.6621,-5.6621,-5.6621,-5.6621,-5.6621,-5.6621,-5.6618,-5.661,-5.6621,-5.661,-5.6606,-5.6606,-5.6606,-5.6606,-5.6606,-5.6606,-5.6606,-5.6606,-5.6606,-5.6606,-5.6606,-5.6606,-5.6606,-5.6606,-5.1394,-5.1394,-5.1394,-5.1394,-5.1394,-5.1394,-5.1394,-5.1394,-5.1394,-5.1394,-5.1394,-5.1394,-5.1394,-5.1394,-5.1394,-5.1394,-5.1394,-5.1394,-5.1394,-5.1394,-5.1394,-5.1394,-5.1394,-5.1394,-5.1394,-5.1394,-5.1394,-5.1394,-5.1394,-5.1394,-5.1394,-5.1394,-5.1394,-5.1394,-5.1394,-5.1394,-5.1394,-5.1394,-5.1394,-5.1394,-5.1394,-5.1394,-5.1394,-5.1394,-5.1394,-5.1394,-5.1394,-5.1394,-5.1394,-5.1394,-5.1394,-5.1394,-5.1394,-5.1394,-5.1394,-5.1394,-5.1394,-5.1394,-5.1394,-5.1394,-5.1394,-5.1394,-5.1394,-5.1531,-5.1804,-5.2644,-5.3639,-5.4576,-5.5786,-5.6547,-5.6586,-5.6606,-5.6606,-5.6606,-5.6606,-5.6606,-5.6606,-5.6606,-5.6606,-5.6606,-5.661,-5.6618,-5.661,-5.6619,-5.6621,-5.6621,-5.6621,-5.6621,-5.6621,-5.6621,-5.6621,-5.6621,-5.6621,-5.6621,-5.6621,-5.6621,-5.6621,-5.6618,-5.661,-5.6602,-5.6614,-5.6606,-5.6606,-5.6606,-5.6606,-5.6606,-5.6606,-5.6606,-5.6606,-5.6606,-5.6606,-5.6606,-5.6606,-5.6606,-5.6606,-5.1394,-5.1394,-5.1394,-5.1394,-5.1394,-5.1394,-5.1394,-5.1394,-5.1394,-5.1394,-5.1394,-5.1394,-5.1394,-5.1394,-5.1394,-5.1394,-5.1394,-5.1394,-5.1394,-5.1394,-5.1394,-5.1394,-5.1394,-5.1394,-5.1394,-5.1394,-5.1394,-5.1394,-5.1394,-5.1394,-5.1394,-5.1394,-5.1394,-5.1394,-5.1394,-5.1394,-5.1394,-5.1394,-5.1394,-5.1394,-5.1394,-5.1394,-5.1394,-5.1394,-5.1394,-5.1394,-5.1394,-5.1394,-5.1394,-5.1394,-5.1394,-5.1394,-5.1394,-5.1394,-5.1394,-5.1394,-5.1394,-5.1394,-5.1394,-5.1394,-5.1394,-5.1394,-5.1394,-5.1414,-5.1999,-5.2975,-5.3776,-5.4283,-5.5376,-5.6391,-5.6606,-5.6606,-5.6606,-5.6606,-5.6606,-5.6606,-5.6606,-5.6606,-5.6606,-5.6606,-5.6606,-5.661,-5.6614,-5.6607,-5.6621,-5.6621,-5.6621,-5.6621,-5.6621,-5.6621,-5.6621,-5.6621,-5.6621,-5.6621,-5.6621,-5.6621,-5.6619,-5.6614,-5.661,-5.6621,-5.661,-5.6606,-5.6606,-5.6606,-5.6606,-5.6606,-5.6606,-5.6606,-5.6606,-5.6606,-5.6606,-5.6606,-5.6606,-5.6606,-5.6606]}]]